<?xml version="1.0" encoding="UTF-8" standalone="no" ?>
<gpx xmlns="http://www.topografix.com/GPX/1/1" xmlns:xsi="http://www.w3.org/2001/XMLSchema-instance" xsi:schemaLocation="http://www.topografix.com/GPX/1/1 http://www.topografix.com/GPX/1/1/gpx.xsd" version="1.1" creator="VisuGPX - https://www.visugpx.com">
  <metadata>
    <name>45 CCC Flémalle - Spa - Flémalle</name>
    <desc><![CDATA[Randonnée au départ de l'Auto5 de Flémalle.]]></desc>
  </metadata>
  <trk>
    <name><![CDATA[45 CCC]]></name>
    <extensions>
      <line xmlns="http://www.topografix.com/GPX/gpx_style/0/2">
        <color>0000FF</color>
        <width>4</width>
      </line>
    </extensions>
    <trkseg>
      <trkpt lat="50.60438" lon="5.48414">
        <ele>66</ele>
        <time>2019-01-16T16:23:35Z</time>
      </trkpt>
      <trkpt lat="50.60403" lon="5.48442">
        <ele>65</ele>
        <time>2019-01-16T16:24:35Z</time>
      </trkpt>
      <trkpt lat="50.60396" lon="5.48451">
        <ele>65</ele>
        <time>2019-01-16T16:25:35Z</time>
      </trkpt>
      <trkpt lat="50.60349" lon="5.48517">
        <ele>64</ele>
        <time>2019-01-16T16:26:35Z</time>
      </trkpt>
      <trkpt lat="50.60364" lon="5.48551">
        <ele>63</ele>
        <time>2019-01-16T16:27:35Z</time>
      </trkpt>
      <trkpt lat="50.60371" lon="5.48538">
        <ele>64</ele>
        <time>2019-01-16T16:28:35Z</time>
      </trkpt>
      <trkpt lat="50.60422" lon="5.4847">
        <ele>64</ele>
        <time>2019-01-16T16:29:35Z</time>
      </trkpt>
      <trkpt lat="50.60488" lon="5.48393">
        <ele>67</ele>
        <time>2019-01-16T16:30:35Z</time>
      </trkpt>
      <trkpt lat="50.60486" lon="5.48383">
        <ele>67</ele>
        <time>2019-01-16T16:31:35Z</time>
      </trkpt>
      <trkpt lat="50.60487" lon="5.48374">
        <ele>67</ele>
        <time>2019-01-16T16:32:35Z</time>
      </trkpt>
      <trkpt lat="50.60492" lon="5.48364">
        <ele>67</ele>
        <time>2019-01-16T16:33:35Z</time>
      </trkpt>
      <trkpt lat="50.60497" lon="5.48367">
        <ele>68</ele>
        <time>2019-01-16T16:34:35Z</time>
      </trkpt>
      <trkpt lat="50.60503" lon="5.48374">
        <ele>68</ele>
        <time>2019-01-16T16:35:35Z</time>
      </trkpt>
      <trkpt lat="50.60503" lon="5.48384">
        <ele>67</ele>
        <time>2019-01-16T16:36:35Z</time>
      </trkpt>
      <trkpt lat="50.60501" lon="5.48393">
        <ele>67</ele>
        <time>2019-01-16T16:37:35Z</time>
      </trkpt>
      <trkpt lat="50.60516" lon="5.48421">
        <ele>67</ele>
        <time>2019-01-16T16:38:35Z</time>
      </trkpt>
      <trkpt lat="50.60567" lon="5.48541">
        <ele>65</ele>
        <time>2019-01-16T16:39:35Z</time>
      </trkpt>
      <trkpt lat="50.60614" lon="5.48647">
        <ele>64</ele>
        <time>2019-01-16T16:40:35Z</time>
      </trkpt>
      <trkpt lat="50.60645" lon="5.48723">
        <ele>64</ele>
        <time>2019-01-16T16:41:35Z</time>
      </trkpt>
      <trkpt lat="50.60675" lon="5.48783">
        <ele>64</ele>
        <time>2019-01-16T16:42:35Z</time>
      </trkpt>
      <trkpt lat="50.6077" lon="5.48966">
        <ele>65</ele>
        <time>2019-01-16T16:43:35Z</time>
      </trkpt>
      <trkpt lat="50.60796" lon="5.49018">
        <ele>65</ele>
        <time>2019-01-16T16:44:35Z</time>
      </trkpt>
      <trkpt lat="50.60828" lon="5.49077">
        <ele>65</ele>
        <time>2019-01-16T16:45:35Z</time>
      </trkpt>
      <trkpt lat="50.60883" lon="5.49164">
        <ele>65</ele>
        <time>2019-01-16T16:46:35Z</time>
      </trkpt>
      <trkpt lat="50.60962" lon="5.49287">
        <ele>65</ele>
        <time>2019-01-16T16:47:35Z</time>
      </trkpt>
      <trkpt lat="50.61032" lon="5.4939">
        <ele>64</ele>
        <time>2019-01-16T16:48:35Z</time>
      </trkpt>
      <trkpt lat="50.61165" lon="5.49592">
        <ele>65</ele>
        <time>2019-01-16T16:49:35Z</time>
      </trkpt>
      <trkpt lat="50.61236" lon="5.497">
        <ele>66</ele>
        <time>2019-01-16T16:50:35Z</time>
      </trkpt>
      <trkpt lat="50.61265" lon="5.49748">
        <ele>62</ele>
        <time>2019-01-16T16:51:35Z</time>
      </trkpt>
      <trkpt lat="50.61338" lon="5.49876">
        <ele>61</ele>
        <time>2019-01-16T16:52:35Z</time>
      </trkpt>
      <trkpt lat="50.61382" lon="5.4995">
        <ele>62</ele>
        <time>2019-01-16T16:53:35Z</time>
      </trkpt>
      <trkpt lat="50.61471" lon="5.50103">
        <ele>63</ele>
        <time>2019-01-16T16:54:35Z</time>
      </trkpt>
      <trkpt lat="50.61534" lon="5.50214">
        <ele>64</ele>
        <time>2019-01-16T16:55:35Z</time>
      </trkpt>
      <trkpt lat="50.61601" lon="5.50331">
        <ele>64</ele>
        <time>2019-01-16T16:56:35Z</time>
      </trkpt>
      <trkpt lat="50.61607" lon="5.5035">
        <ele>64</ele>
        <time>2019-01-16T16:57:35Z</time>
      </trkpt>
      <trkpt lat="50.61609" lon="5.50388">
        <ele>64</ele>
        <time>2019-01-16T16:58:35Z</time>
      </trkpt>
      <trkpt lat="50.61597" lon="5.50439">
        <ele>64</ele>
        <time>2019-01-16T16:59:35Z</time>
      </trkpt>
      <trkpt lat="50.61595" lon="5.5046">
        <ele>65</ele>
        <time>2019-01-16T17:00:35Z</time>
      </trkpt>
      <trkpt lat="50.616" lon="5.50482">
        <ele>65</ele>
        <time>2019-01-16T17:01:35Z</time>
      </trkpt>
      <trkpt lat="50.61659" lon="5.50595">
        <ele>64</ele>
        <time>2019-01-16T17:02:35Z</time>
      </trkpt>
      <trkpt lat="50.61722" lon="5.50735">
        <ele>65</ele>
        <time>2019-01-16T17:03:35Z</time>
      </trkpt>
      <trkpt lat="50.61752" lon="5.50826">
        <ele>63</ele>
        <time>2019-01-16T17:04:35Z</time>
      </trkpt>
      <trkpt lat="50.61758" lon="5.50865">
        <ele>63</ele>
        <time>2019-01-16T17:05:35Z</time>
      </trkpt>
      <trkpt lat="50.61758" lon="5.50897">
        <ele>63</ele>
        <time>2019-01-16T17:06:35Z</time>
      </trkpt>
      <trkpt lat="50.61762" lon="5.50937">
        <ele>63</ele>
        <time>2019-01-16T17:07:35Z</time>
      </trkpt>
      <trkpt lat="50.61771" lon="5.50985">
        <ele>63</ele>
        <time>2019-01-16T17:08:35Z</time>
      </trkpt>
      <trkpt lat="50.61808" lon="5.51061">
        <ele>64</ele>
        <time>2019-01-16T17:09:35Z</time>
      </trkpt>
      <trkpt lat="50.61828" lon="5.51052">
        <ele>64</ele>
        <time>2019-01-16T17:10:35Z</time>
      </trkpt>
      <trkpt lat="50.61851" lon="5.51066">
        <ele>66</ele>
        <time>2019-01-16T17:11:35Z</time>
      </trkpt>
      <trkpt lat="50.61854" lon="5.51089">
        <ele>65</ele>
        <time>2019-01-16T17:12:35Z</time>
      </trkpt>
      <trkpt lat="50.61826" lon="5.51122">
        <ele>64</ele>
        <time>2019-01-16T17:13:35Z</time>
      </trkpt>
      <trkpt lat="50.6179" lon="5.51151">
        <ele>64</ele>
        <time>2019-01-16T17:14:35Z</time>
      </trkpt>
      <trkpt lat="50.61758" lon="5.51168">
        <ele>65</ele>
        <time>2019-01-16T17:15:35Z</time>
      </trkpt>
      <trkpt lat="50.61689" lon="5.51206">
        <ele>63</ele>
        <time>2019-01-16T17:16:35Z</time>
      </trkpt>
      <trkpt lat="50.61684" lon="5.51208">
        <ele>63</ele>
        <time>2019-01-16T17:17:35Z</time>
      </trkpt>
      <trkpt lat="50.61673" lon="5.51216">
        <ele>63</ele>
        <time>2019-01-16T17:18:35Z</time>
      </trkpt>
      <trkpt lat="50.61667" lon="5.51227">
        <ele>63</ele>
        <time>2019-01-16T17:19:35Z</time>
      </trkpt>
      <trkpt lat="50.61662" lon="5.51244">
        <ele>63</ele>
        <time>2019-01-16T17:20:35Z</time>
      </trkpt>
      <trkpt lat="50.6166" lon="5.51267">
        <ele>62</ele>
        <time>2019-01-16T17:21:35Z</time>
      </trkpt>
      <trkpt lat="50.61662" lon="5.51293">
        <ele>61</ele>
        <time>2019-01-16T17:22:35Z</time>
      </trkpt>
      <trkpt lat="50.61672" lon="5.51352">
        <ele>61</ele>
        <time>2019-01-16T17:23:35Z</time>
      </trkpt>
      <trkpt lat="50.61674" lon="5.51387">
        <ele>62</ele>
        <time>2019-01-16T17:24:35Z</time>
      </trkpt>
      <trkpt lat="50.61672" lon="5.51403">
        <ele>63</ele>
        <time>2019-01-16T17:25:35Z</time>
      </trkpt>
      <trkpt lat="50.61665" lon="5.51403">
        <ele>62</ele>
        <time>2019-01-16T17:26:35Z</time>
      </trkpt>
      <trkpt lat="50.61661" lon="5.51412">
        <ele>63</ele>
        <time>2019-01-16T17:27:35Z</time>
      </trkpt>
      <trkpt lat="50.61661" lon="5.51425">
        <ele>63</ele>
        <time>2019-01-16T17:28:35Z</time>
      </trkpt>
      <trkpt lat="50.61666" lon="5.51431">
        <ele>63</ele>
        <time>2019-01-16T17:29:35Z</time>
      </trkpt>
      <trkpt lat="50.61666" lon="5.51443">
        <ele>63</ele>
        <time>2019-01-16T17:30:35Z</time>
      </trkpt>
      <trkpt lat="50.61667" lon="5.51458">
        <ele>63</ele>
        <time>2019-01-16T17:31:35Z</time>
      </trkpt>
      <trkpt lat="50.61667" lon="5.51475">
        <ele>63</ele>
        <time>2019-01-16T17:32:35Z</time>
      </trkpt>
      <trkpt lat="50.61666" lon="5.51484">
        <ele>63</ele>
        <time>2019-01-16T17:33:35Z</time>
      </trkpt>
      <trkpt lat="50.61668" lon="5.51492">
        <ele>63</ele>
        <time>2019-01-16T17:34:35Z</time>
      </trkpt>
      <trkpt lat="50.61675" lon="5.51498">
        <ele>63</ele>
        <time>2019-01-16T17:35:35Z</time>
      </trkpt>
      <trkpt lat="50.6168" lon="5.51501">
        <ele>63</ele>
        <time>2019-01-16T17:36:35Z</time>
      </trkpt>
      <trkpt lat="50.6169" lon="5.51515">
        <ele>63</ele>
        <time>2019-01-16T17:37:35Z</time>
      </trkpt>
      <trkpt lat="50.61696" lon="5.51551">
        <ele>62</ele>
        <time>2019-01-16T17:38:35Z</time>
      </trkpt>
      <trkpt lat="50.61703" lon="5.51593">
        <ele>61</ele>
        <time>2019-01-16T17:39:35Z</time>
      </trkpt>
      <trkpt lat="50.61709" lon="5.51654">
        <ele>58</ele>
        <time>2019-01-16T17:40:35Z</time>
      </trkpt>
      <trkpt lat="50.61712" lon="5.5173">
        <ele>58</ele>
        <time>2019-01-16T17:41:35Z</time>
      </trkpt>
      <trkpt lat="50.61713" lon="5.51826">
        <ele>59</ele>
        <time>2019-01-16T17:42:35Z</time>
      </trkpt>
      <trkpt lat="50.61715" lon="5.5185">
        <ele>60</ele>
        <time>2019-01-16T17:43:35Z</time>
      </trkpt>
      <trkpt lat="50.61715" lon="5.51865">
        <ele>61</ele>
        <time>2019-01-16T17:44:35Z</time>
      </trkpt>
      <trkpt lat="50.61713" lon="5.5188">
        <ele>62</ele>
        <time>2019-01-16T17:45:35Z</time>
      </trkpt>
      <trkpt lat="50.61708" lon="5.51895">
        <ele>62</ele>
        <time>2019-01-16T17:46:35Z</time>
      </trkpt>
      <trkpt lat="50.61702" lon="5.51903">
        <ele>63</ele>
        <time>2019-01-16T17:47:35Z</time>
      </trkpt>
      <trkpt lat="50.61695" lon="5.51909">
        <ele>62</ele>
        <time>2019-01-16T17:48:35Z</time>
      </trkpt>
      <trkpt lat="50.61681" lon="5.5191">
        <ele>62</ele>
        <time>2019-01-16T17:49:35Z</time>
      </trkpt>
      <trkpt lat="50.61673" lon="5.51905">
        <ele>61</ele>
        <time>2019-01-16T17:50:35Z</time>
      </trkpt>
      <trkpt lat="50.61665" lon="5.51909">
        <ele>61</ele>
        <time>2019-01-16T17:51:35Z</time>
      </trkpt>
      <trkpt lat="50.6166" lon="5.51915">
        <ele>61</ele>
        <time>2019-01-16T17:52:35Z</time>
      </trkpt>
      <trkpt lat="50.61656" lon="5.51922">
        <ele>61</ele>
        <time>2019-01-16T17:53:35Z</time>
      </trkpt>
      <trkpt lat="50.61654" lon="5.51932">
        <ele>61</ele>
        <time>2019-01-16T17:54:35Z</time>
      </trkpt>
      <trkpt lat="50.61655" lon="5.51945">
        <ele>61</ele>
        <time>2019-01-16T17:55:35Z</time>
      </trkpt>
      <trkpt lat="50.61661" lon="5.51958">
        <ele>61</ele>
        <time>2019-01-16T17:56:35Z</time>
      </trkpt>
      <trkpt lat="50.61668" lon="5.51963">
        <ele>61</ele>
        <time>2019-01-16T17:57:35Z</time>
      </trkpt>
      <trkpt lat="50.61677" lon="5.51964">
        <ele>61</ele>
        <time>2019-01-16T17:58:35Z</time>
      </trkpt>
      <trkpt lat="50.61685" lon="5.5196">
        <ele>61</ele>
        <time>2019-01-16T17:59:35Z</time>
      </trkpt>
      <trkpt lat="50.6169" lon="5.51976">
        <ele>60</ele>
        <time>2019-01-16T18:00:35Z</time>
      </trkpt>
      <trkpt lat="50.61696" lon="5.51993">
        <ele>60</ele>
        <time>2019-01-16T18:01:35Z</time>
      </trkpt>
      <trkpt lat="50.61698" lon="5.52014">
        <ele>60</ele>
        <time>2019-01-16T18:02:35Z</time>
      </trkpt>
      <trkpt lat="50.61698" lon="5.52031">
        <ele>61</ele>
        <time>2019-01-16T18:03:35Z</time>
      </trkpt>
      <trkpt lat="50.61692" lon="5.52071">
        <ele>64</ele>
        <time>2019-01-16T18:04:35Z</time>
      </trkpt>
      <trkpt lat="50.61675" lon="5.52145">
        <ele>66</ele>
        <time>2019-01-16T18:05:35Z</time>
      </trkpt>
      <trkpt lat="50.61663" lon="5.52184">
        <ele>67</ele>
        <time>2019-01-16T18:06:35Z</time>
      </trkpt>
      <trkpt lat="50.61633" lon="5.52269">
        <ele>64</ele>
        <time>2019-01-16T18:07:35Z</time>
      </trkpt>
      <trkpt lat="50.61612" lon="5.52321">
        <ele>63</ele>
        <time>2019-01-16T18:08:35Z</time>
      </trkpt>
      <trkpt lat="50.61591" lon="5.52371">
        <ele>63</ele>
        <time>2019-01-16T18:09:35Z</time>
      </trkpt>
      <trkpt lat="50.61564" lon="5.52428">
        <ele>62</ele>
        <time>2019-01-16T18:10:35Z</time>
      </trkpt>
      <trkpt lat="50.61519" lon="5.52516">
        <ele>63</ele>
        <time>2019-01-16T18:11:35Z</time>
      </trkpt>
      <trkpt lat="50.61494" lon="5.52561">
        <ele>64</ele>
        <time>2019-01-16T18:12:35Z</time>
      </trkpt>
      <trkpt lat="50.61461" lon="5.52617">
        <ele>65</ele>
        <time>2019-01-16T18:13:35Z</time>
      </trkpt>
      <trkpt lat="50.61433" lon="5.5266">
        <ele>66</ele>
        <time>2019-01-16T18:14:35Z</time>
      </trkpt>
      <trkpt lat="50.61406" lon="5.527">
        <ele>64</ele>
        <time>2019-01-16T18:15:35Z</time>
      </trkpt>
      <trkpt lat="50.6137" lon="5.52749">
        <ele>62</ele>
        <time>2019-01-16T18:16:35Z</time>
      </trkpt>
      <trkpt lat="50.61307" lon="5.52827">
        <ele>62</ele>
        <time>2019-01-16T18:17:35Z</time>
      </trkpt>
      <trkpt lat="50.61286" lon="5.5285">
        <ele>62</ele>
        <time>2019-01-16T18:18:35Z</time>
      </trkpt>
      <trkpt lat="50.6123" lon="5.52907">
        <ele>62</ele>
        <time>2019-01-16T18:19:35Z</time>
      </trkpt>
      <trkpt lat="50.61057" lon="5.53071">
        <ele>66</ele>
        <time>2019-01-16T18:20:35Z</time>
      </trkpt>
      <trkpt lat="50.61031" lon="5.53097">
        <ele>65</ele>
        <time>2019-01-16T18:21:35Z</time>
      </trkpt>
      <trkpt lat="50.61002" lon="5.53125">
        <ele>65</ele>
        <time>2019-01-16T18:22:35Z</time>
      </trkpt>
      <trkpt lat="50.60973" lon="5.53157">
        <ele>65</ele>
        <time>2019-01-16T18:23:35Z</time>
      </trkpt>
      <trkpt lat="50.60958" lon="5.53177">
        <ele>66</ele>
        <time>2019-01-16T18:24:35Z</time>
      </trkpt>
      <trkpt lat="50.60946" lon="5.53193">
        <ele>66</ele>
        <time>2019-01-16T18:25:35Z</time>
      </trkpt>
      <trkpt lat="50.60929" lon="5.53221">
        <ele>65</ele>
        <time>2019-01-16T18:26:35Z</time>
      </trkpt>
      <trkpt lat="50.60917" lon="5.53241">
        <ele>64</ele>
        <time>2019-01-16T18:27:35Z</time>
      </trkpt>
      <trkpt lat="50.60906" lon="5.53264">
        <ele>63</ele>
        <time>2019-01-16T18:28:35Z</time>
      </trkpt>
      <trkpt lat="50.60886" lon="5.53308">
        <ele>63</ele>
        <time>2019-01-16T18:29:35Z</time>
      </trkpt>
      <trkpt lat="50.60848" lon="5.53404">
        <ele>67</ele>
        <time>2019-01-16T18:30:35Z</time>
      </trkpt>
      <trkpt lat="50.60832" lon="5.53446">
        <ele>66</ele>
        <time>2019-01-16T18:31:35Z</time>
      </trkpt>
      <trkpt lat="50.60814" lon="5.53498">
        <ele>63</ele>
        <time>2019-01-16T18:32:35Z</time>
      </trkpt>
      <trkpt lat="50.60789" lon="5.53583">
        <ele>65</ele>
        <time>2019-01-16T18:33:35Z</time>
      </trkpt>
      <trkpt lat="50.60782" lon="5.53622">
        <ele>64</ele>
        <time>2019-01-16T18:34:35Z</time>
      </trkpt>
      <trkpt lat="50.60775" lon="5.53671">
        <ele>64</ele>
        <time>2019-01-16T18:35:35Z</time>
      </trkpt>
      <trkpt lat="50.60772" lon="5.53696">
        <ele>63</ele>
        <time>2019-01-16T18:36:35Z</time>
      </trkpt>
      <trkpt lat="50.60713" lon="5.53997">
        <ele>64</ele>
        <time>2019-01-16T18:37:35Z</time>
      </trkpt>
      <trkpt lat="50.60701" lon="5.54062">
        <ele>65</ele>
        <time>2019-01-16T18:38:35Z</time>
      </trkpt>
      <trkpt lat="50.60673" lon="5.54214">
        <ele>69</ele>
        <time>2019-01-16T18:39:35Z</time>
      </trkpt>
      <trkpt lat="50.60659" lon="5.54293">
        <ele>70</ele>
        <time>2019-01-16T18:40:35Z</time>
      </trkpt>
      <trkpt lat="50.60654" lon="5.54328">
        <ele>69</ele>
        <time>2019-01-16T18:41:35Z</time>
      </trkpt>
      <trkpt lat="50.6065" lon="5.54371">
        <ele>69</ele>
        <time>2019-01-16T18:42:35Z</time>
      </trkpt>
      <trkpt lat="50.60642" lon="5.54461">
        <ele>68</ele>
        <time>2019-01-16T18:43:35Z</time>
      </trkpt>
      <trkpt lat="50.60636" lon="5.54553">
        <ele>69</ele>
        <time>2019-01-16T18:44:35Z</time>
      </trkpt>
      <trkpt lat="50.60634" lon="5.54625">
        <ele>70</ele>
        <time>2019-01-16T18:45:35Z</time>
      </trkpt>
      <trkpt lat="50.60634" lon="5.54684">
        <ele>71</ele>
        <time>2019-01-16T18:46:35Z</time>
      </trkpt>
      <trkpt lat="50.60637" lon="5.54767">
        <ele>73</ele>
        <time>2019-01-16T18:47:35Z</time>
      </trkpt>
      <trkpt lat="50.60641" lon="5.54928">
        <ele>66</ele>
        <time>2019-01-16T18:48:35Z</time>
      </trkpt>
      <trkpt lat="50.60638" lon="5.55074">
        <ele>64</ele>
        <time>2019-01-16T18:49:35Z</time>
      </trkpt>
      <trkpt lat="50.60635" lon="5.55098">
        <ele>66</ele>
        <time>2019-01-16T18:50:35Z</time>
      </trkpt>
      <trkpt lat="50.6063" lon="5.55234">
        <ele>71</ele>
        <time>2019-01-16T18:51:35Z</time>
      </trkpt>
      <trkpt lat="50.60625" lon="5.55325">
        <ele>72</ele>
        <time>2019-01-16T18:52:35Z</time>
      </trkpt>
      <trkpt lat="50.60611" lon="5.55485">
        <ele>72</ele>
        <time>2019-01-16T18:53:35Z</time>
      </trkpt>
      <trkpt lat="50.60599" lon="5.55609">
        <ele>74</ele>
        <time>2019-01-16T18:54:35Z</time>
      </trkpt>
      <trkpt lat="50.60592" lon="5.55667">
        <ele>72</ele>
        <time>2019-01-16T18:55:35Z</time>
      </trkpt>
      <trkpt lat="50.60586" lon="5.55689">
        <ele>71</ele>
        <time>2019-01-16T18:56:35Z</time>
      </trkpt>
      <trkpt lat="50.60578" lon="5.55714">
        <ele>70</ele>
        <time>2019-01-16T18:57:35Z</time>
      </trkpt>
      <trkpt lat="50.60572" lon="5.55732">
        <ele>70</ele>
        <time>2019-01-16T18:58:35Z</time>
      </trkpt>
      <trkpt lat="50.6056" lon="5.55756">
        <ele>70</ele>
        <time>2019-01-16T18:59:35Z</time>
      </trkpt>
      <trkpt lat="50.60554" lon="5.55784">
        <ele>70</ele>
        <time>2019-01-16T19:00:35Z</time>
      </trkpt>
      <trkpt lat="50.6055" lon="5.55811">
        <ele>70</ele>
        <time>2019-01-16T19:01:35Z</time>
      </trkpt>
      <trkpt lat="50.60547" lon="5.55851">
        <ele>71</ele>
        <time>2019-01-16T19:02:35Z</time>
      </trkpt>
      <trkpt lat="50.60544" lon="5.55867">
        <ele>71</ele>
        <time>2019-01-16T19:03:35Z</time>
      </trkpt>
      <trkpt lat="50.60539" lon="5.55889">
        <ele>71</ele>
        <time>2019-01-16T19:04:35Z</time>
      </trkpt>
      <trkpt lat="50.60531" lon="5.55909">
        <ele>71</ele>
        <time>2019-01-16T19:05:35Z</time>
      </trkpt>
      <trkpt lat="50.60518" lon="5.55939">
        <ele>72</ele>
        <time>2019-01-16T19:06:35Z</time>
      </trkpt>
      <trkpt lat="50.60504" lon="5.55961">
        <ele>73</ele>
        <time>2019-01-16T19:07:35Z</time>
      </trkpt>
      <trkpt lat="50.60481" lon="5.55998">
        <ele>75</ele>
        <time>2019-01-16T19:08:35Z</time>
      </trkpt>
      <trkpt lat="50.60465" lon="5.56029">
        <ele>75</ele>
        <time>2019-01-16T19:09:35Z</time>
      </trkpt>
      <trkpt lat="50.60451" lon="5.56055">
        <ele>76</ele>
        <time>2019-01-16T19:10:35Z</time>
      </trkpt>
      <trkpt lat="50.60437" lon="5.56082">
        <ele>76</ele>
        <time>2019-01-16T19:11:35Z</time>
      </trkpt>
      <trkpt lat="50.60418" lon="5.56123">
        <ele>76</ele>
        <time>2019-01-16T19:12:35Z</time>
      </trkpt>
      <trkpt lat="50.60411" lon="5.56143">
        <ele>76</ele>
        <time>2019-01-16T19:13:35Z</time>
      </trkpt>
      <trkpt lat="50.60398" lon="5.56182">
        <ele>78</ele>
        <time>2019-01-16T19:14:35Z</time>
      </trkpt>
      <trkpt lat="50.60391" lon="5.56207">
        <ele>79</ele>
        <time>2019-01-16T19:15:35Z</time>
      </trkpt>
      <trkpt lat="50.60382" lon="5.56247">
        <ele>82</ele>
        <time>2019-01-16T19:16:35Z</time>
      </trkpt>
      <trkpt lat="50.60367" lon="5.56314">
        <ele>85</ele>
        <time>2019-01-16T19:17:35Z</time>
      </trkpt>
      <trkpt lat="50.6036" lon="5.56458">
        <ele>89</ele>
        <time>2019-01-16T19:18:35Z</time>
      </trkpt>
      <trkpt lat="50.60371" lon="5.56555">
        <ele>89</ele>
        <time>2019-01-16T19:19:35Z</time>
      </trkpt>
      <trkpt lat="50.60377" lon="5.56607">
        <ele>89</ele>
        <time>2019-01-16T19:20:35Z</time>
      </trkpt>
      <trkpt lat="50.60421" lon="5.56864">
        <ele>92</ele>
        <time>2019-01-16T19:21:35Z</time>
      </trkpt>
      <trkpt lat="50.60458" lon="5.57079">
        <ele>90</ele>
        <time>2019-01-16T19:22:35Z</time>
      </trkpt>
      <trkpt lat="50.60492" lon="5.5728">
        <ele>90</ele>
        <time>2019-01-16T19:23:35Z</time>
      </trkpt>
      <trkpt lat="50.60547" lon="5.57608">
        <ele>89</ele>
        <time>2019-01-16T19:24:35Z</time>
      </trkpt>
      <trkpt lat="50.60559" lon="5.57646">
        <ele>87</ele>
        <time>2019-01-16T19:25:35Z</time>
      </trkpt>
      <trkpt lat="50.60581" lon="5.57719">
        <ele>85</ele>
        <time>2019-01-16T19:26:35Z</time>
      </trkpt>
      <trkpt lat="50.60612" lon="5.57825">
        <ele>89</ele>
        <time>2019-01-16T19:27:35Z</time>
      </trkpt>
      <trkpt lat="50.60615" lon="5.5784">
        <ele>89</ele>
        <time>2019-01-16T19:28:35Z</time>
      </trkpt>
      <trkpt lat="50.60638" lon="5.57908">
        <ele>88</ele>
        <time>2019-01-16T19:29:35Z</time>
      </trkpt>
      <trkpt lat="50.60675" lon="5.57992">
        <ele>88</ele>
        <time>2019-01-16T19:30:35Z</time>
      </trkpt>
      <trkpt lat="50.60719" lon="5.58079">
        <ele>85</ele>
        <time>2019-01-16T19:31:35Z</time>
      </trkpt>
      <trkpt lat="50.60845" lon="5.5832">
        <ele>87</ele>
        <time>2019-01-16T19:32:35Z</time>
      </trkpt>
      <trkpt lat="50.60861" lon="5.58348">
        <ele>88</ele>
        <time>2019-01-16T19:33:35Z</time>
      </trkpt>
      <trkpt lat="50.60876" lon="5.58367">
        <ele>86</ele>
        <time>2019-01-16T19:34:35Z</time>
      </trkpt>
      <trkpt lat="50.60889" lon="5.5838">
        <ele>84</ele>
        <time>2019-01-16T19:35:35Z</time>
      </trkpt>
      <trkpt lat="50.60903" lon="5.5839">
        <ele>80</ele>
        <time>2019-01-16T19:36:35Z</time>
      </trkpt>
      <trkpt lat="50.60924" lon="5.584">
        <ele>76</ele>
        <time>2019-01-16T19:37:35Z</time>
      </trkpt>
      <trkpt lat="50.60946" lon="5.58406">
        <ele>75</ele>
        <time>2019-01-16T19:38:35Z</time>
      </trkpt>
      <trkpt lat="50.60991" lon="5.58408">
        <ele>72</ele>
        <time>2019-01-16T19:39:35Z</time>
      </trkpt>
      <trkpt lat="50.61085" lon="5.5841">
        <ele>70</ele>
        <time>2019-01-16T19:40:35Z</time>
      </trkpt>
      <trkpt lat="50.61109" lon="5.58411">
        <ele>69</ele>
        <time>2019-01-16T19:41:35Z</time>
      </trkpt>
      <trkpt lat="50.61116" lon="5.58415">
        <ele>69</ele>
        <time>2019-01-16T19:42:35Z</time>
      </trkpt>
      <trkpt lat="50.61132" lon="5.58416">
        <ele>69</ele>
        <time>2019-01-16T19:43:35Z</time>
      </trkpt>
      <trkpt lat="50.61149" lon="5.58418">
        <ele>68</ele>
        <time>2019-01-16T19:44:35Z</time>
      </trkpt>
      <trkpt lat="50.61182" lon="5.58417">
        <ele>68</ele>
        <time>2019-01-16T19:45:35Z</time>
      </trkpt>
      <trkpt lat="50.6119" lon="5.58413">
        <ele>68</ele>
        <time>2019-01-16T19:46:35Z</time>
      </trkpt>
      <trkpt lat="50.61212" lon="5.58417">
        <ele>67</ele>
        <time>2019-01-16T19:47:35Z</time>
      </trkpt>
      <trkpt lat="50.61246" lon="5.5842">
        <ele>67</ele>
        <time>2019-01-16T19:48:35Z</time>
      </trkpt>
      <trkpt lat="50.6127" lon="5.58424">
        <ele>67</ele>
        <time>2019-01-16T19:49:35Z</time>
      </trkpt>
      <trkpt lat="50.61281" lon="5.58424">
        <ele>67</ele>
        <time>2019-01-16T19:50:35Z</time>
      </trkpt>
      <trkpt lat="50.61295" lon="5.58426">
        <ele>67</ele>
        <time>2019-01-16T19:51:35Z</time>
      </trkpt>
      <trkpt lat="50.61315" lon="5.5845">
        <ele>66</ele>
        <time>2019-01-16T19:52:35Z</time>
      </trkpt>
      <trkpt lat="50.61323" lon="5.58465">
        <ele>66</ele>
        <time>2019-01-16T19:53:35Z</time>
      </trkpt>
      <trkpt lat="50.61328" lon="5.58491">
        <ele>66</ele>
        <time>2019-01-16T19:54:35Z</time>
      </trkpt>
      <trkpt lat="50.61343" lon="5.58561">
        <ele>65</ele>
        <time>2019-01-16T19:55:35Z</time>
      </trkpt>
      <trkpt lat="50.6135" lon="5.58596">
        <ele>65</ele>
        <time>2019-01-16T19:56:35Z</time>
      </trkpt>
      <trkpt lat="50.61354" lon="5.58634">
        <ele>66</ele>
        <time>2019-01-16T19:57:35Z</time>
      </trkpt>
      <trkpt lat="50.61351" lon="5.5871">
        <ele>67</ele>
        <time>2019-01-16T19:58:35Z</time>
      </trkpt>
      <trkpt lat="50.6135" lon="5.58783">
        <ele>67</ele>
        <time>2019-01-16T19:59:35Z</time>
      </trkpt>
      <trkpt lat="50.61348" lon="5.588">
        <ele>67</ele>
        <time>2019-01-16T20:00:35Z</time>
      </trkpt>
      <trkpt lat="50.61347" lon="5.58858">
        <ele>67</ele>
        <time>2019-01-16T20:01:35Z</time>
      </trkpt>
      <trkpt lat="50.61348" lon="5.58876">
        <ele>67</ele>
        <time>2019-01-16T20:02:35Z</time>
      </trkpt>
      <trkpt lat="50.61347" lon="5.58926">
        <ele>67</ele>
        <time>2019-01-16T20:03:35Z</time>
      </trkpt>
      <trkpt lat="50.61346" lon="5.58939">
        <ele>66</ele>
        <time>2019-01-16T20:04:35Z</time>
      </trkpt>
      <trkpt lat="50.61348" lon="5.5895">
        <ele>66</ele>
        <time>2019-01-16T20:05:35Z</time>
      </trkpt>
      <trkpt lat="50.61345" lon="5.58998">
        <ele>65</ele>
        <time>2019-01-16T20:06:35Z</time>
      </trkpt>
      <trkpt lat="50.61341" lon="5.59011">
        <ele>65</ele>
        <time>2019-01-16T20:07:35Z</time>
      </trkpt>
      <trkpt lat="50.61337" lon="5.59067">
        <ele>66</ele>
        <time>2019-01-16T20:08:35Z</time>
      </trkpt>
      <trkpt lat="50.61331" lon="5.59104">
        <ele>66</ele>
        <time>2019-01-16T20:09:35Z</time>
      </trkpt>
      <trkpt lat="50.61254" lon="5.59458">
        <ele>65</ele>
        <time>2019-01-16T20:10:35Z</time>
      </trkpt>
      <trkpt lat="50.61252" lon="5.59468">
        <ele>65</ele>
        <time>2019-01-16T20:11:35Z</time>
      </trkpt>
      <trkpt lat="50.61259" lon="5.59551">
        <ele>65</ele>
        <time>2019-01-16T20:12:35Z</time>
      </trkpt>
      <trkpt lat="50.61265" lon="5.59631">
        <ele>65</ele>
        <time>2019-01-16T20:13:35Z</time>
      </trkpt>
      <trkpt lat="50.61269" lon="5.59697">
        <ele>64</ele>
        <time>2019-01-16T20:14:35Z</time>
      </trkpt>
      <trkpt lat="50.6127" lon="5.59715">
        <ele>65</ele>
        <time>2019-01-16T20:15:35Z</time>
      </trkpt>
      <trkpt lat="50.61268" lon="5.5973">
        <ele>65</ele>
        <time>2019-01-16T20:16:35Z</time>
      </trkpt>
      <trkpt lat="50.61263" lon="5.59753">
        <ele>65</ele>
        <time>2019-01-16T20:17:35Z</time>
      </trkpt>
      <trkpt lat="50.61201" lon="5.59834">
        <ele>64</ele>
        <time>2019-01-16T20:18:35Z</time>
      </trkpt>
      <trkpt lat="50.61197" lon="5.59843">
        <ele>64</ele>
        <time>2019-01-16T20:19:35Z</time>
      </trkpt>
      <trkpt lat="50.61139" lon="5.59917">
        <ele>65</ele>
        <time>2019-01-16T20:20:35Z</time>
      </trkpt>
      <trkpt lat="50.6113" lon="5.59935">
        <ele>65</ele>
        <time>2019-01-16T20:21:35Z</time>
      </trkpt>
      <trkpt lat="50.61129" lon="5.5995">
        <ele>65</ele>
        <time>2019-01-16T20:22:35Z</time>
      </trkpt>
      <trkpt lat="50.61144" lon="5.59951">
        <ele>65</ele>
        <time>2019-01-16T20:23:35Z</time>
      </trkpt>
      <trkpt lat="50.61157" lon="5.59967">
        <ele>65</ele>
        <time>2019-01-16T20:24:35Z</time>
      </trkpt>
      <trkpt lat="50.61172" lon="5.59989">
        <ele>66</ele>
        <time>2019-01-16T20:25:35Z</time>
      </trkpt>
      <trkpt lat="50.61214" lon="5.6008">
        <ele>67</ele>
        <time>2019-01-16T20:26:35Z</time>
      </trkpt>
      <trkpt lat="50.61226" lon="5.60102">
        <ele>67</ele>
        <time>2019-01-16T20:27:35Z</time>
      </trkpt>
      <trkpt lat="50.6126" lon="5.60127">
        <ele>67</ele>
        <time>2019-01-16T20:28:35Z</time>
      </trkpt>
      <trkpt lat="50.61204" lon="5.60335">
        <ele>66</ele>
        <time>2019-01-16T20:29:35Z</time>
      </trkpt>
      <trkpt lat="50.61167" lon="5.60446">
        <ele>69</ele>
        <time>2019-01-16T20:30:35Z</time>
      </trkpt>
      <trkpt lat="50.61127" lon="5.60568">
        <ele>67</ele>
        <time>2019-01-16T20:31:35Z</time>
      </trkpt>
      <trkpt lat="50.61096" lon="5.60661">
        <ele>67</ele>
        <time>2019-01-16T20:32:35Z</time>
      </trkpt>
      <trkpt lat="50.61081" lon="5.60699">
        <ele>67</ele>
        <time>2019-01-16T20:33:35Z</time>
      </trkpt>
      <trkpt lat="50.61068" lon="5.60738">
        <ele>65</ele>
        <time>2019-01-16T20:34:35Z</time>
      </trkpt>
      <trkpt lat="50.61041" lon="5.6083">
        <ele>66</ele>
        <time>2019-01-16T20:35:35Z</time>
      </trkpt>
      <trkpt lat="50.61013" lon="5.60936">
        <ele>69</ele>
        <time>2019-01-16T20:36:35Z</time>
      </trkpt>
      <trkpt lat="50.60936" lon="5.61222">
        <ele>67</ele>
        <time>2019-01-16T20:37:35Z</time>
      </trkpt>
      <trkpt lat="50.60917" lon="5.61292">
        <ele>67</ele>
        <time>2019-01-16T20:38:35Z</time>
      </trkpt>
      <trkpt lat="50.60914" lon="5.61304">
        <ele>67</ele>
        <time>2019-01-16T20:39:35Z</time>
      </trkpt>
      <trkpt lat="50.60912" lon="5.61317">
        <ele>67</ele>
        <time>2019-01-16T20:40:35Z</time>
      </trkpt>
      <trkpt lat="50.6091" lon="5.61337">
        <ele>67</ele>
        <time>2019-01-16T20:41:35Z</time>
      </trkpt>
      <trkpt lat="50.6091" lon="5.61364">
        <ele>67</ele>
        <time>2019-01-16T20:42:35Z</time>
      </trkpt>
      <trkpt lat="50.60911" lon="5.61389">
        <ele>68</ele>
        <time>2019-01-16T20:43:35Z</time>
      </trkpt>
      <trkpt lat="50.60911" lon="5.61408">
        <ele>68</ele>
        <time>2019-01-16T20:44:35Z</time>
      </trkpt>
      <trkpt lat="50.60906" lon="5.61421">
        <ele>68</ele>
        <time>2019-01-16T20:45:35Z</time>
      </trkpt>
      <trkpt lat="50.60894" lon="5.61419">
        <ele>68</ele>
        <time>2019-01-16T20:46:35Z</time>
      </trkpt>
      <trkpt lat="50.60876" lon="5.61413">
        <ele>67</ele>
        <time>2019-01-16T20:47:35Z</time>
      </trkpt>
      <trkpt lat="50.60854" lon="5.61401">
        <ele>67</ele>
        <time>2019-01-16T20:48:35Z</time>
      </trkpt>
      <trkpt lat="50.60834" lon="5.61389">
        <ele>67</ele>
        <time>2019-01-16T20:49:35Z</time>
      </trkpt>
      <trkpt lat="50.6081" lon="5.61369">
        <ele>68</ele>
        <time>2019-01-16T20:50:35Z</time>
      </trkpt>
      <trkpt lat="50.60771" lon="5.61341">
        <ele>68</ele>
        <time>2019-01-16T20:51:35Z</time>
      </trkpt>
      <trkpt lat="50.60765" lon="5.6136">
        <ele>68</ele>
        <time>2019-01-16T20:52:35Z</time>
      </trkpt>
      <trkpt lat="50.60756" lon="5.61396">
        <ele>69</ele>
        <time>2019-01-16T20:53:35Z</time>
      </trkpt>
      <trkpt lat="50.60746" lon="5.61436">
        <ele>70</ele>
        <time>2019-01-16T20:54:35Z</time>
      </trkpt>
      <trkpt lat="50.6073" lon="5.61495">
        <ele>72</ele>
        <time>2019-01-16T20:55:35Z</time>
      </trkpt>
      <trkpt lat="50.60658" lon="5.61767">
        <ele>71</ele>
        <time>2019-01-16T20:56:35Z</time>
      </trkpt>
      <trkpt lat="50.6061" lon="5.61951">
        <ele>70</ele>
        <time>2019-01-16T20:57:35Z</time>
      </trkpt>
      <trkpt lat="50.6055" lon="5.62169">
        <ele>70</ele>
        <time>2019-01-16T20:58:35Z</time>
      </trkpt>
      <trkpt lat="50.60516" lon="5.62298">
        <ele>72</ele>
        <time>2019-01-16T20:59:35Z</time>
      </trkpt>
      <trkpt lat="50.6046" lon="5.62488">
        <ele>74</ele>
        <time>2019-01-16T21:00:35Z</time>
      </trkpt>
      <trkpt lat="50.60461" lon="5.62523">
        <ele>73</ele>
        <time>2019-01-16T21:01:35Z</time>
      </trkpt>
      <trkpt lat="50.60463" lon="5.6255">
        <ele>73</ele>
        <time>2019-01-16T21:02:35Z</time>
      </trkpt>
      <trkpt lat="50.60456" lon="5.62577">
        <ele>73</ele>
        <time>2019-01-16T21:03:35Z</time>
      </trkpt>
      <trkpt lat="50.60436" lon="5.62624">
        <ele>72</ele>
        <time>2019-01-16T21:04:35Z</time>
      </trkpt>
      <trkpt lat="50.60417" lon="5.62664">
        <ele>71</ele>
        <time>2019-01-16T21:05:35Z</time>
      </trkpt>
      <trkpt lat="50.60407" lon="5.62682">
        <ele>72</ele>
        <time>2019-01-16T21:06:35Z</time>
      </trkpt>
      <trkpt lat="50.60387" lon="5.62697">
        <ele>73</ele>
        <time>2019-01-16T21:07:35Z</time>
      </trkpt>
      <trkpt lat="50.60279" lon="5.62785">
        <ele>78</ele>
        <time>2019-01-16T21:08:35Z</time>
      </trkpt>
      <trkpt lat="50.60183" lon="5.62859">
        <ele>78</ele>
        <time>2019-01-16T21:09:35Z</time>
      </trkpt>
      <trkpt lat="50.60178" lon="5.6286">
        <ele>78</ele>
        <time>2019-01-16T21:10:35Z</time>
      </trkpt>
      <trkpt lat="50.60172" lon="5.6286">
        <ele>79</ele>
        <time>2019-01-16T21:11:35Z</time>
      </trkpt>
      <trkpt lat="50.60163" lon="5.62852">
        <ele>81</ele>
        <time>2019-01-16T21:12:35Z</time>
      </trkpt>
      <trkpt lat="50.60151" lon="5.62848">
        <ele>82</ele>
        <time>2019-01-16T21:13:35Z</time>
      </trkpt>
      <trkpt lat="50.60139" lon="5.62846">
        <ele>83</ele>
        <time>2019-01-16T21:14:35Z</time>
      </trkpt>
      <trkpt lat="50.6013" lon="5.62848">
        <ele>83</ele>
        <time>2019-01-16T21:15:35Z</time>
      </trkpt>
      <trkpt lat="50.60121" lon="5.62853">
        <ele>82</ele>
        <time>2019-01-16T21:16:35Z</time>
      </trkpt>
      <trkpt lat="50.60111" lon="5.6286">
        <ele>82</ele>
        <time>2019-01-16T21:17:35Z</time>
      </trkpt>
      <trkpt lat="50.60095" lon="5.62872">
        <ele>80</ele>
        <time>2019-01-16T21:18:35Z</time>
      </trkpt>
      <trkpt lat="50.60039" lon="5.62919">
        <ele>74</ele>
        <time>2019-01-16T21:19:35Z</time>
      </trkpt>
      <trkpt lat="50.59943" lon="5.63005">
        <ele>74</ele>
        <time>2019-01-16T21:20:35Z</time>
      </trkpt>
      <trkpt lat="50.59844" lon="5.63092">
        <ele>74</ele>
        <time>2019-01-16T21:21:35Z</time>
      </trkpt>
      <trkpt lat="50.59779" lon="5.63151">
        <ele>74</ele>
        <time>2019-01-16T21:22:35Z</time>
      </trkpt>
      <trkpt lat="50.59752" lon="5.63169">
        <ele>74</ele>
        <time>2019-01-16T21:23:35Z</time>
      </trkpt>
      <trkpt lat="50.59739" lon="5.63176">
        <ele>74</ele>
        <time>2019-01-16T21:24:35Z</time>
      </trkpt>
      <trkpt lat="50.59681" lon="5.63197">
        <ele>74</ele>
        <time>2019-01-16T21:25:35Z</time>
      </trkpt>
      <trkpt lat="50.59644" lon="5.63207">
        <ele>75</ele>
        <time>2019-01-16T21:26:35Z</time>
      </trkpt>
      <trkpt lat="50.59613" lon="5.6321">
        <ele>75</ele>
        <time>2019-01-16T21:27:35Z</time>
      </trkpt>
      <trkpt lat="50.59521" lon="5.63219">
        <ele>75</ele>
        <time>2019-01-16T21:28:35Z</time>
      </trkpt>
      <trkpt lat="50.59425" lon="5.63211">
        <ele>75</ele>
        <time>2019-01-16T21:29:35Z</time>
      </trkpt>
      <trkpt lat="50.59381" lon="5.63204">
        <ele>76</ele>
        <time>2019-01-16T21:30:35Z</time>
      </trkpt>
      <trkpt lat="50.59353" lon="5.63199">
        <ele>76</ele>
        <time>2019-01-16T21:31:35Z</time>
      </trkpt>
      <trkpt lat="50.59319" lon="5.63174">
        <ele>75</ele>
        <time>2019-01-16T21:32:35Z</time>
      </trkpt>
      <trkpt lat="50.59218" lon="5.63096">
        <ele>76</ele>
        <time>2019-01-16T21:33:35Z</time>
      </trkpt>
      <trkpt lat="50.59071" lon="5.6298">
        <ele>80</ele>
        <time>2019-01-16T21:34:35Z</time>
      </trkpt>
      <trkpt lat="50.59007" lon="5.62901">
        <ele>91</ele>
        <time>2019-01-16T21:35:35Z</time>
      </trkpt>
      <trkpt lat="50.58995" lon="5.62896">
        <ele>94</ele>
        <time>2019-01-16T21:36:35Z</time>
      </trkpt>
      <trkpt lat="50.58978" lon="5.62897">
        <ele>98</ele>
        <time>2019-01-16T21:37:35Z</time>
      </trkpt>
      <trkpt lat="50.58963" lon="5.62904">
        <ele>100</ele>
        <time>2019-01-16T21:38:35Z</time>
      </trkpt>
      <trkpt lat="50.5895" lon="5.62911">
        <ele>101</ele>
        <time>2019-01-16T21:39:35Z</time>
      </trkpt>
      <trkpt lat="50.58945" lon="5.62917">
        <ele>100</ele>
        <time>2019-01-16T21:40:35Z</time>
      </trkpt>
      <trkpt lat="50.58938" lon="5.62924">
        <ele>101</ele>
        <time>2019-01-16T21:41:35Z</time>
      </trkpt>
      <trkpt lat="50.58922" lon="5.62948">
        <ele>99</ele>
        <time>2019-01-16T21:42:35Z</time>
      </trkpt>
      <trkpt lat="50.58911" lon="5.62967">
        <ele>96</ele>
        <time>2019-01-16T21:43:35Z</time>
      </trkpt>
      <trkpt lat="50.58888" lon="5.63014">
        <ele>89</ele>
        <time>2019-01-16T21:44:35Z</time>
      </trkpt>
      <trkpt lat="50.58869" lon="5.63054">
        <ele>86</ele>
        <time>2019-01-16T21:45:35Z</time>
      </trkpt>
      <trkpt lat="50.58852" lon="5.63093">
        <ele>83</ele>
        <time>2019-01-16T21:46:35Z</time>
      </trkpt>
      <trkpt lat="50.58841" lon="5.63123">
        <ele>82</ele>
        <time>2019-01-16T21:47:35Z</time>
      </trkpt>
      <trkpt lat="50.58824" lon="5.63172">
        <ele>80</ele>
        <time>2019-01-16T21:48:35Z</time>
      </trkpt>
      <trkpt lat="50.58796" lon="5.63299">
        <ele>77</ele>
        <time>2019-01-16T21:49:35Z</time>
      </trkpt>
      <trkpt lat="50.58754" lon="5.63493">
        <ele>80</ele>
        <time>2019-01-16T21:50:35Z</time>
      </trkpt>
      <trkpt lat="50.587" lon="5.63737">
        <ele>81</ele>
        <time>2019-01-16T21:51:35Z</time>
      </trkpt>
      <trkpt lat="50.58697" lon="5.63768">
        <ele>80</ele>
        <time>2019-01-16T21:52:35Z</time>
      </trkpt>
      <trkpt lat="50.58679" lon="5.63854">
        <ele>79</ele>
        <time>2019-01-16T21:53:35Z</time>
      </trkpt>
      <trkpt lat="50.58664" lon="5.63894">
        <ele>79</ele>
        <time>2019-01-16T21:54:35Z</time>
      </trkpt>
      <trkpt lat="50.58656" lon="5.63946">
        <ele>79</ele>
        <time>2019-01-16T21:55:35Z</time>
      </trkpt>
      <trkpt lat="50.58657" lon="5.63972">
        <ele>79</ele>
        <time>2019-01-16T21:56:35Z</time>
      </trkpt>
      <trkpt lat="50.5865" lon="5.64029">
        <ele>79</ele>
        <time>2019-01-16T21:57:35Z</time>
      </trkpt>
      <trkpt lat="50.58619" lon="5.64145">
        <ele>79</ele>
        <time>2019-01-16T21:58:35Z</time>
      </trkpt>
      <trkpt lat="50.5856" lon="5.64382">
        <ele>78</ele>
        <time>2019-01-16T21:59:35Z</time>
      </trkpt>
      <trkpt lat="50.58534" lon="5.64491">
        <ele>79</ele>
        <time>2019-01-16T22:00:35Z</time>
      </trkpt>
      <trkpt lat="50.58521" lon="5.64552">
        <ele>79</ele>
        <time>2019-01-16T22:01:35Z</time>
      </trkpt>
      <trkpt lat="50.58515" lon="5.64588">
        <ele>80</ele>
        <time>2019-01-16T22:02:35Z</time>
      </trkpt>
      <trkpt lat="50.5851" lon="5.64649">
        <ele>81</ele>
        <time>2019-01-16T22:03:35Z</time>
      </trkpt>
      <trkpt lat="50.5851" lon="5.64687">
        <ele>80</ele>
        <time>2019-01-16T22:04:35Z</time>
      </trkpt>
      <trkpt lat="50.58511" lon="5.64705">
        <ele>80</ele>
        <time>2019-01-16T22:05:35Z</time>
      </trkpt>
      <trkpt lat="50.58514" lon="5.6473">
        <ele>80</ele>
        <time>2019-01-16T22:06:35Z</time>
      </trkpt>
      <trkpt lat="50.58519" lon="5.64758">
        <ele>79</ele>
        <time>2019-01-16T22:07:35Z</time>
      </trkpt>
      <trkpt lat="50.58528" lon="5.64791">
        <ele>79</ele>
        <time>2019-01-16T22:08:35Z</time>
      </trkpt>
      <trkpt lat="50.58545" lon="5.64839">
        <ele>79</ele>
        <time>2019-01-16T22:09:35Z</time>
      </trkpt>
      <trkpt lat="50.5856" lon="5.64871">
        <ele>80</ele>
        <time>2019-01-16T22:10:35Z</time>
      </trkpt>
      <trkpt lat="50.58578" lon="5.649">
        <ele>80</ele>
        <time>2019-01-16T22:11:35Z</time>
      </trkpt>
      <trkpt lat="50.58614" lon="5.64942">
        <ele>81</ele>
        <time>2019-01-16T22:12:35Z</time>
      </trkpt>
      <trkpt lat="50.58687" lon="5.65025">
        <ele>82</ele>
        <time>2019-01-16T22:13:35Z</time>
      </trkpt>
      <trkpt lat="50.58752" lon="5.65094">
        <ele>81</ele>
        <time>2019-01-16T22:14:35Z</time>
      </trkpt>
      <trkpt lat="50.58808" lon="5.65153">
        <ele>82</ele>
        <time>2019-01-16T22:15:35Z</time>
      </trkpt>
      <trkpt lat="50.58819" lon="5.65179">
        <ele>82</ele>
        <time>2019-01-16T22:16:35Z</time>
      </trkpt>
      <trkpt lat="50.58825" lon="5.65195">
        <ele>82</ele>
        <time>2019-01-16T22:17:35Z</time>
      </trkpt>
      <trkpt lat="50.58831" lon="5.65218">
        <ele>82</ele>
        <time>2019-01-16T22:18:35Z</time>
      </trkpt>
      <trkpt lat="50.58834" lon="5.65241">
        <ele>82</ele>
        <time>2019-01-16T22:19:35Z</time>
      </trkpt>
      <trkpt lat="50.58835" lon="5.65278">
        <ele>82</ele>
        <time>2019-01-16T22:20:35Z</time>
      </trkpt>
      <trkpt lat="50.58829" lon="5.65338">
        <ele>82</ele>
        <time>2019-01-16T22:21:35Z</time>
      </trkpt>
      <trkpt lat="50.58826" lon="5.65369">
        <ele>83</ele>
        <time>2019-01-16T22:22:35Z</time>
      </trkpt>
      <trkpt lat="50.58821" lon="5.65392">
        <ele>83</ele>
        <time>2019-01-16T22:23:35Z</time>
      </trkpt>
      <trkpt lat="50.58816" lon="5.65418">
        <ele>83</ele>
        <time>2019-01-16T22:24:35Z</time>
      </trkpt>
      <trkpt lat="50.5881" lon="5.65439">
        <ele>84</ele>
        <time>2019-01-16T22:25:35Z</time>
      </trkpt>
      <trkpt lat="50.58801" lon="5.65459">
        <ele>85</ele>
        <time>2019-01-16T22:26:35Z</time>
      </trkpt>
      <trkpt lat="50.58788" lon="5.65477">
        <ele>86</ele>
        <time>2019-01-16T22:27:35Z</time>
      </trkpt>
      <trkpt lat="50.58772" lon="5.65492">
        <ele>87</ele>
        <time>2019-01-16T22:28:35Z</time>
      </trkpt>
      <trkpt lat="50.58759" lon="5.65497">
        <ele>88</ele>
        <time>2019-01-16T22:29:35Z</time>
      </trkpt>
      <trkpt lat="50.58731" lon="5.65502">
        <ele>88</ele>
        <time>2019-01-16T22:30:35Z</time>
      </trkpt>
      <trkpt lat="50.58619" lon="5.65524">
        <ele>90</ele>
        <time>2019-01-16T22:31:35Z</time>
      </trkpt>
      <trkpt lat="50.58475" lon="5.65551">
        <ele>86</ele>
        <time>2019-01-16T22:32:35Z</time>
      </trkpt>
      <trkpt lat="50.58464" lon="5.65554">
        <ele>86</ele>
        <time>2019-01-16T22:33:35Z</time>
      </trkpt>
      <trkpt lat="50.58429" lon="5.65561">
        <ele>84</ele>
        <time>2019-01-16T22:34:35Z</time>
      </trkpt>
      <trkpt lat="50.58417" lon="5.65568">
        <ele>84</ele>
        <time>2019-01-16T22:35:35Z</time>
      </trkpt>
      <trkpt lat="50.58402" lon="5.65577">
        <ele>84</ele>
        <time>2019-01-16T22:36:35Z</time>
      </trkpt>
      <trkpt lat="50.58384" lon="5.6559">
        <ele>84</ele>
        <time>2019-01-16T22:37:35Z</time>
      </trkpt>
      <trkpt lat="50.58374" lon="5.65601">
        <ele>85</ele>
        <time>2019-01-16T22:38:35Z</time>
      </trkpt>
      <trkpt lat="50.58363" lon="5.65613">
        <ele>85</ele>
        <time>2019-01-16T22:39:35Z</time>
      </trkpt>
      <trkpt lat="50.58349" lon="5.6563">
        <ele>86</ele>
        <time>2019-01-16T22:40:35Z</time>
      </trkpt>
      <trkpt lat="50.5833" lon="5.65663">
        <ele>87</ele>
        <time>2019-01-16T22:41:35Z</time>
      </trkpt>
      <trkpt lat="50.58271" lon="5.65767">
        <ele>88</ele>
        <time>2019-01-16T22:42:35Z</time>
      </trkpt>
      <trkpt lat="50.58259" lon="5.65798">
        <ele>87</ele>
        <time>2019-01-16T22:43:35Z</time>
      </trkpt>
      <trkpt lat="50.58248" lon="5.65841">
        <ele>87</ele>
        <time>2019-01-16T22:44:35Z</time>
      </trkpt>
      <trkpt lat="50.58234" lon="5.65946">
        <ele>87</ele>
        <time>2019-01-16T22:45:35Z</time>
      </trkpt>
      <trkpt lat="50.58192" lon="5.66263">
        <ele>93</ele>
        <time>2019-01-16T22:46:35Z</time>
      </trkpt>
      <trkpt lat="50.58181" lon="5.66324">
        <ele>93</ele>
        <time>2019-01-16T22:47:35Z</time>
      </trkpt>
      <trkpt lat="50.58172" lon="5.66368">
        <ele>92</ele>
        <time>2019-01-16T22:48:35Z</time>
      </trkpt>
      <trkpt lat="50.58147" lon="5.66446">
        <ele>90</ele>
        <time>2019-01-16T22:49:35Z</time>
      </trkpt>
      <trkpt lat="50.58125" lon="5.6651">
        <ele>90</ele>
        <time>2019-01-16T22:50:35Z</time>
      </trkpt>
      <trkpt lat="50.58097" lon="5.6658">
        <ele>90</ele>
        <time>2019-01-16T22:51:35Z</time>
      </trkpt>
      <trkpt lat="50.5806" lon="5.66666">
        <ele>87</ele>
        <time>2019-01-16T22:52:35Z</time>
      </trkpt>
      <trkpt lat="50.58008" lon="5.66784">
        <ele>86</ele>
        <time>2019-01-16T22:53:35Z</time>
      </trkpt>
      <trkpt lat="50.57963" lon="5.66902">
        <ele>87</ele>
        <time>2019-01-16T22:54:35Z</time>
      </trkpt>
      <trkpt lat="50.5794" lon="5.66969">
        <ele>88</ele>
        <time>2019-01-16T22:55:35Z</time>
      </trkpt>
      <trkpt lat="50.5792" lon="5.67049">
        <ele>87</ele>
        <time>2019-01-16T22:56:35Z</time>
      </trkpt>
      <trkpt lat="50.57869" lon="5.67266">
        <ele>89</ele>
        <time>2019-01-16T22:57:35Z</time>
      </trkpt>
      <trkpt lat="50.57824" lon="5.67472">
        <ele>89</ele>
        <time>2019-01-16T22:58:35Z</time>
      </trkpt>
      <trkpt lat="50.57782" lon="5.67664">
        <ele>94</ele>
        <time>2019-01-16T22:59:35Z</time>
      </trkpt>
      <trkpt lat="50.57741" lon="5.6785">
        <ele>97</ele>
        <time>2019-01-16T23:00:35Z</time>
      </trkpt>
      <trkpt lat="50.57703" lon="5.68025">
        <ele>98</ele>
        <time>2019-01-16T23:01:35Z</time>
      </trkpt>
      <trkpt lat="50.57654" lon="5.6825">
        <ele>90</ele>
        <time>2019-01-16T23:02:35Z</time>
      </trkpt>
      <trkpt lat="50.57629" lon="5.68358">
        <ele>92</ele>
        <time>2019-01-16T23:03:35Z</time>
      </trkpt>
      <trkpt lat="50.57597" lon="5.68508">
        <ele>93</ele>
        <time>2019-01-16T23:04:35Z</time>
      </trkpt>
      <trkpt lat="50.57584" lon="5.68567">
        <ele>93</ele>
        <time>2019-01-16T23:05:35Z</time>
      </trkpt>
      <trkpt lat="50.57577" lon="5.68593">
        <ele>93</ele>
        <time>2019-01-16T23:06:35Z</time>
      </trkpt>
      <trkpt lat="50.57568" lon="5.6862">
        <ele>93</ele>
        <time>2019-01-16T23:07:35Z</time>
      </trkpt>
      <trkpt lat="50.57556" lon="5.6865">
        <ele>93</ele>
        <time>2019-01-16T23:08:35Z</time>
      </trkpt>
      <trkpt lat="50.57545" lon="5.68674">
        <ele>92</ele>
        <time>2019-01-16T23:09:35Z</time>
      </trkpt>
      <trkpt lat="50.57526" lon="5.68705">
        <ele>92</ele>
        <time>2019-01-16T23:10:35Z</time>
      </trkpt>
      <trkpt lat="50.57512" lon="5.68725">
        <ele>92</ele>
        <time>2019-01-16T23:11:35Z</time>
      </trkpt>
      <trkpt lat="50.57449" lon="5.68801">
        <ele>93</ele>
        <time>2019-01-16T23:12:35Z</time>
      </trkpt>
      <trkpt lat="50.5744" lon="5.68813">
        <ele>93</ele>
        <time>2019-01-16T23:13:35Z</time>
      </trkpt>
      <trkpt lat="50.57394" lon="5.68871">
        <ele>95</ele>
        <time>2019-01-16T23:14:35Z</time>
      </trkpt>
      <trkpt lat="50.57362" lon="5.68915">
        <ele>95</ele>
        <time>2019-01-16T23:15:35Z</time>
      </trkpt>
      <trkpt lat="50.57336" lon="5.68934">
        <ele>96</ele>
        <time>2019-01-16T23:16:35Z</time>
      </trkpt>
      <trkpt lat="50.57312" lon="5.68939">
        <ele>97</ele>
        <time>2019-01-16T23:17:35Z</time>
      </trkpt>
      <trkpt lat="50.57281" lon="5.68938">
        <ele>98</ele>
        <time>2019-01-16T23:18:35Z</time>
      </trkpt>
      <trkpt lat="50.57282" lon="5.68929">
        <ele>98</ele>
        <time>2019-01-16T23:19:35Z</time>
      </trkpt>
      <trkpt lat="50.57278" lon="5.68919">
        <ele>99</ele>
        <time>2019-01-16T23:20:35Z</time>
      </trkpt>
      <trkpt lat="50.57272" lon="5.68917">
        <ele>99</ele>
        <time>2019-01-16T23:21:35Z</time>
      </trkpt>
      <trkpt lat="50.57266" lon="5.68922">
        <ele>99</ele>
        <time>2019-01-16T23:22:35Z</time>
      </trkpt>
      <trkpt lat="50.57262" lon="5.68929">
        <ele>99</ele>
        <time>2019-01-16T23:23:35Z</time>
      </trkpt>
      <trkpt lat="50.57247" lon="5.68936">
        <ele>99</ele>
        <time>2019-01-16T23:24:35Z</time>
      </trkpt>
      <trkpt lat="50.57226" lon="5.68945">
        <ele>100</ele>
        <time>2019-01-16T23:25:35Z</time>
      </trkpt>
      <trkpt lat="50.5718" lon="5.68959">
        <ele>101</ele>
        <time>2019-01-16T23:26:35Z</time>
      </trkpt>
      <trkpt lat="50.57165" lon="5.6896">
        <ele>102</ele>
        <time>2019-01-16T23:27:35Z</time>
      </trkpt>
      <trkpt lat="50.57152" lon="5.68959">
        <ele>102</ele>
        <time>2019-01-16T23:28:35Z</time>
      </trkpt>
      <trkpt lat="50.57145" lon="5.68959">
        <ele>102</ele>
        <time>2019-01-16T23:29:35Z</time>
      </trkpt>
      <trkpt lat="50.57136" lon="5.68957">
        <ele>102</ele>
        <time>2019-01-16T23:30:35Z</time>
      </trkpt>
      <trkpt lat="50.57123" lon="5.68955">
        <ele>102</ele>
        <time>2019-01-16T23:31:35Z</time>
      </trkpt>
      <trkpt lat="50.57029" lon="5.68913">
        <ele>113</ele>
        <time>2019-01-16T23:32:35Z</time>
      </trkpt>
      <trkpt lat="50.57003" lon="5.68916">
        <ele>115</ele>
        <time>2019-01-16T23:33:35Z</time>
      </trkpt>
      <trkpt lat="50.56988" lon="5.68923">
        <ele>117</ele>
        <time>2019-01-16T23:34:35Z</time>
      </trkpt>
      <trkpt lat="50.56975" lon="5.68936">
        <ele>117</ele>
        <time>2019-01-16T23:35:35Z</time>
      </trkpt>
      <trkpt lat="50.56968" lon="5.68946">
        <ele>117</ele>
        <time>2019-01-16T23:36:35Z</time>
      </trkpt>
      <trkpt lat="50.56959" lon="5.68964">
        <ele>115</ele>
        <time>2019-01-16T23:37:35Z</time>
      </trkpt>
      <trkpt lat="50.56956" lon="5.68972">
        <ele>114</ele>
        <time>2019-01-16T23:38:35Z</time>
      </trkpt>
      <trkpt lat="50.56953" lon="5.68991">
        <ele>111</ele>
        <time>2019-01-16T23:39:35Z</time>
      </trkpt>
      <trkpt lat="50.56952" lon="5.69017">
        <ele>107</ele>
        <time>2019-01-16T23:40:35Z</time>
      </trkpt>
      <trkpt lat="50.5696" lon="5.69148">
        <ele>94</ele>
        <time>2019-01-16T23:41:35Z</time>
      </trkpt>
      <trkpt lat="50.56952" lon="5.6915">
        <ele>95</ele>
        <time>2019-01-16T23:42:35Z</time>
      </trkpt>
      <trkpt lat="50.56945" lon="5.69146">
        <ele>95</ele>
        <time>2019-01-16T23:43:35Z</time>
      </trkpt>
      <trkpt lat="50.56903" lon="5.69097">
        <ele>99</ele>
        <time>2019-01-16T23:44:35Z</time>
      </trkpt>
      <trkpt lat="50.56886" lon="5.69082">
        <ele>101</ele>
        <time>2019-01-16T23:45:35Z</time>
      </trkpt>
      <trkpt lat="50.56864" lon="5.69064">
        <ele>104</ele>
        <time>2019-01-16T23:46:35Z</time>
      </trkpt>
      <trkpt lat="50.56826" lon="5.69045">
        <ele>107</ele>
        <time>2019-01-16T23:47:35Z</time>
      </trkpt>
      <trkpt lat="50.56745" lon="5.69015">
        <ele>107</ele>
        <time>2019-01-16T23:48:35Z</time>
      </trkpt>
      <trkpt lat="50.56709" lon="5.69003">
        <ele>106</ele>
        <time>2019-01-16T23:49:35Z</time>
      </trkpt>
      <trkpt lat="50.5666" lon="5.68995">
        <ele>108</ele>
        <time>2019-01-16T23:50:35Z</time>
      </trkpt>
      <trkpt lat="50.56627" lon="5.68994">
        <ele>109</ele>
        <time>2019-01-16T23:51:35Z</time>
      </trkpt>
      <trkpt lat="50.56605" lon="5.69">
        <ele>108</ele>
        <time>2019-01-16T23:52:35Z</time>
      </trkpt>
      <trkpt lat="50.5657" lon="5.69011">
        <ele>112</ele>
        <time>2019-01-16T23:53:35Z</time>
      </trkpt>
      <trkpt lat="50.56535" lon="5.69029">
        <ele>118</ele>
        <time>2019-01-16T23:54:35Z</time>
      </trkpt>
      <trkpt lat="50.56505" lon="5.69047">
        <ele>120</ele>
        <time>2019-01-16T23:55:35Z</time>
      </trkpt>
      <trkpt lat="50.56429" lon="5.69104">
        <ele>128</ele>
        <time>2019-01-16T23:56:35Z</time>
      </trkpt>
      <trkpt lat="50.56381" lon="5.69141">
        <ele>133</ele>
        <time>2019-01-16T23:57:35Z</time>
      </trkpt>
      <trkpt lat="50.56347" lon="5.69165">
        <ele>134</ele>
        <time>2019-01-16T23:58:35Z</time>
      </trkpt>
      <trkpt lat="50.5633" lon="5.69173">
        <ele>137</ele>
        <time>2019-01-16T23:59:35Z</time>
      </trkpt>
      <trkpt lat="50.56311" lon="5.6918">
        <ele>138</ele>
        <time>2019-01-17T00:00:35Z</time>
      </trkpt>
      <trkpt lat="50.56173" lon="5.69213">
        <ele>133</ele>
        <time>2019-01-17T00:01:35Z</time>
      </trkpt>
      <trkpt lat="50.56077" lon="5.69236">
        <ele>136</ele>
        <time>2019-01-17T00:02:35Z</time>
      </trkpt>
      <trkpt lat="50.55978" lon="5.69262">
        <ele>142</ele>
        <time>2019-01-17T00:03:35Z</time>
      </trkpt>
      <trkpt lat="50.5596" lon="5.69273">
        <ele>143</ele>
        <time>2019-01-17T00:04:35Z</time>
      </trkpt>
      <trkpt lat="50.55945" lon="5.69292">
        <ele>142</ele>
        <time>2019-01-17T00:05:35Z</time>
      </trkpt>
      <trkpt lat="50.55923" lon="5.69333">
        <ele>138</ele>
        <time>2019-01-17T00:06:35Z</time>
      </trkpt>
      <trkpt lat="50.55915" lon="5.69349">
        <ele>138</ele>
        <time>2019-01-17T00:07:35Z</time>
      </trkpt>
      <trkpt lat="50.55898" lon="5.69366">
        <ele>140</ele>
        <time>2019-01-17T00:08:35Z</time>
      </trkpt>
      <trkpt lat="50.55881" lon="5.69377">
        <ele>142</ele>
        <time>2019-01-17T00:09:35Z</time>
      </trkpt>
      <trkpt lat="50.55857" lon="5.69373">
        <ele>144</ele>
        <time>2019-01-17T00:10:35Z</time>
      </trkpt>
      <trkpt lat="50.55832" lon="5.69362">
        <ele>147</ele>
        <time>2019-01-17T00:11:35Z</time>
      </trkpt>
      <trkpt lat="50.55773" lon="5.69315">
        <ele>149</ele>
        <time>2019-01-17T00:12:35Z</time>
      </trkpt>
      <trkpt lat="50.55745" lon="5.69302">
        <ele>150</ele>
        <time>2019-01-17T00:13:35Z</time>
      </trkpt>
      <trkpt lat="50.55687" lon="5.69282">
        <ele>150</ele>
        <time>2019-01-17T00:14:35Z</time>
      </trkpt>
      <trkpt lat="50.55642" lon="5.69269">
        <ele>150</ele>
        <time>2019-01-17T00:15:35Z</time>
      </trkpt>
      <trkpt lat="50.55629" lon="5.69264">
        <ele>151</ele>
        <time>2019-01-17T00:16:35Z</time>
      </trkpt>
      <trkpt lat="50.55612" lon="5.69256">
        <ele>150</ele>
        <time>2019-01-17T00:17:35Z</time>
      </trkpt>
      <trkpt lat="50.55599" lon="5.69241">
        <ele>151</ele>
        <time>2019-01-17T00:18:35Z</time>
      </trkpt>
      <trkpt lat="50.55589" lon="5.69222">
        <ele>151</ele>
        <time>2019-01-17T00:19:35Z</time>
      </trkpt>
      <trkpt lat="50.55582" lon="5.692">
        <ele>152</ele>
        <time>2019-01-17T00:20:35Z</time>
      </trkpt>
      <trkpt lat="50.55576" lon="5.69176">
        <ele>155</ele>
        <time>2019-01-17T00:21:35Z</time>
      </trkpt>
      <trkpt lat="50.55568" lon="5.69135">
        <ele>158</ele>
        <time>2019-01-17T00:22:35Z</time>
      </trkpt>
      <trkpt lat="50.55564" lon="5.69107">
        <ele>159</ele>
        <time>2019-01-17T00:23:35Z</time>
      </trkpt>
      <trkpt lat="50.55558" lon="5.69044">
        <ele>160</ele>
        <time>2019-01-17T00:24:35Z</time>
      </trkpt>
      <trkpt lat="50.55555" lon="5.68989">
        <ele>161</ele>
        <time>2019-01-17T00:25:35Z</time>
      </trkpt>
      <trkpt lat="50.55551" lon="5.68966">
        <ele>163</ele>
        <time>2019-01-17T00:26:35Z</time>
      </trkpt>
      <trkpt lat="50.55538" lon="5.68925">
        <ele>164</ele>
        <time>2019-01-17T00:27:35Z</time>
      </trkpt>
      <trkpt lat="50.55525" lon="5.68899">
        <ele>165</ele>
        <time>2019-01-17T00:28:35Z</time>
      </trkpt>
      <trkpt lat="50.5551" lon="5.6888">
        <ele>165</ele>
        <time>2019-01-17T00:29:35Z</time>
      </trkpt>
      <trkpt lat="50.55486" lon="5.68868">
        <ele>165</ele>
        <time>2019-01-17T00:30:35Z</time>
      </trkpt>
      <trkpt lat="50.55466" lon="5.68868">
        <ele>167</ele>
        <time>2019-01-17T00:31:35Z</time>
      </trkpt>
      <trkpt lat="50.55364" lon="5.68892">
        <ele>170</ele>
        <time>2019-01-17T00:32:35Z</time>
      </trkpt>
      <trkpt lat="50.55345" lon="5.68899">
        <ele>169</ele>
        <time>2019-01-17T00:33:35Z</time>
      </trkpt>
      <trkpt lat="50.55292" lon="5.68919">
        <ele>169</ele>
        <time>2019-01-17T00:34:35Z</time>
      </trkpt>
      <trkpt lat="50.55231" lon="5.68944">
        <ele>174</ele>
        <time>2019-01-17T00:35:35Z</time>
      </trkpt>
      <trkpt lat="50.55217" lon="5.6895">
        <ele>175</ele>
        <time>2019-01-17T00:36:35Z</time>
      </trkpt>
      <trkpt lat="50.55175" lon="5.6896">
        <ele>176</ele>
        <time>2019-01-17T00:37:35Z</time>
      </trkpt>
      <trkpt lat="50.55149" lon="5.68961">
        <ele>176</ele>
        <time>2019-01-17T00:38:35Z</time>
      </trkpt>
      <trkpt lat="50.55122" lon="5.68955">
        <ele>176</ele>
        <time>2019-01-17T00:39:35Z</time>
      </trkpt>
      <trkpt lat="50.5509" lon="5.68934">
        <ele>175</ele>
        <time>2019-01-17T00:40:35Z</time>
      </trkpt>
      <trkpt lat="50.5506" lon="5.68917">
        <ele>173</ele>
        <time>2019-01-17T00:41:35Z</time>
      </trkpt>
      <trkpt lat="50.55033" lon="5.689">
        <ele>175</ele>
        <time>2019-01-17T00:42:35Z</time>
      </trkpt>
      <trkpt lat="50.54958" lon="5.68874">
        <ele>180</ele>
        <time>2019-01-17T00:43:35Z</time>
      </trkpt>
      <trkpt lat="50.54917" lon="5.68863">
        <ele>185</ele>
        <time>2019-01-17T00:44:35Z</time>
      </trkpt>
      <trkpt lat="50.54879" lon="5.68869">
        <ele>184</ele>
        <time>2019-01-17T00:45:35Z</time>
      </trkpt>
      <trkpt lat="50.54748" lon="5.68948">
        <ele>177</ele>
        <time>2019-01-17T00:46:35Z</time>
      </trkpt>
      <trkpt lat="50.54673" lon="5.69006">
        <ele>180</ele>
        <time>2019-01-17T00:47:35Z</time>
      </trkpt>
      <trkpt lat="50.5462" lon="5.69045">
        <ele>180</ele>
        <time>2019-01-17T00:48:35Z</time>
      </trkpt>
      <trkpt lat="50.54604" lon="5.69054">
        <ele>180</ele>
        <time>2019-01-17T00:49:35Z</time>
      </trkpt>
      <trkpt lat="50.5459" lon="5.69057">
        <ele>180</ele>
        <time>2019-01-17T00:50:35Z</time>
      </trkpt>
      <trkpt lat="50.54576" lon="5.69055">
        <ele>180</ele>
        <time>2019-01-17T00:51:35Z</time>
      </trkpt>
      <trkpt lat="50.54533" lon="5.69039">
        <ele>179</ele>
        <time>2019-01-17T00:52:35Z</time>
      </trkpt>
      <trkpt lat="50.54487" lon="5.69016">
        <ele>177</ele>
        <time>2019-01-17T00:53:35Z</time>
      </trkpt>
      <trkpt lat="50.54478" lon="5.69014">
        <ele>178</ele>
        <time>2019-01-17T00:54:35Z</time>
      </trkpt>
      <trkpt lat="50.54464" lon="5.69014">
        <ele>178</ele>
        <time>2019-01-17T00:55:35Z</time>
      </trkpt>
      <trkpt lat="50.54453" lon="5.69016">
        <ele>179</ele>
        <time>2019-01-17T00:56:35Z</time>
      </trkpt>
      <trkpt lat="50.54407" lon="5.6903">
        <ele>181</ele>
        <time>2019-01-17T00:57:35Z</time>
      </trkpt>
      <trkpt lat="50.54407" lon="5.69064">
        <ele>178</ele>
        <time>2019-01-17T00:58:35Z</time>
      </trkpt>
      <trkpt lat="50.54404" lon="5.69091">
        <ele>177</ele>
        <time>2019-01-17T00:59:35Z</time>
      </trkpt>
      <trkpt lat="50.54392" lon="5.69137">
        <ele>177</ele>
        <time>2019-01-17T01:00:35Z</time>
      </trkpt>
      <trkpt lat="50.54382" lon="5.69161">
        <ele>177</ele>
        <time>2019-01-17T01:01:35Z</time>
      </trkpt>
      <trkpt lat="50.54369" lon="5.69185">
        <ele>178</ele>
        <time>2019-01-17T01:02:35Z</time>
      </trkpt>
      <trkpt lat="50.54355" lon="5.69204">
        <ele>178</ele>
        <time>2019-01-17T01:03:35Z</time>
      </trkpt>
      <trkpt lat="50.5434" lon="5.69221">
        <ele>178</ele>
        <time>2019-01-17T01:04:35Z</time>
      </trkpt>
      <trkpt lat="50.54322" lon="5.69236">
        <ele>179</ele>
        <time>2019-01-17T01:05:35Z</time>
      </trkpt>
      <trkpt lat="50.54284" lon="5.69256">
        <ele>182</ele>
        <time>2019-01-17T01:06:35Z</time>
      </trkpt>
      <trkpt lat="50.54215" lon="5.69294">
        <ele>188</ele>
        <time>2019-01-17T01:07:35Z</time>
      </trkpt>
      <trkpt lat="50.54201" lon="5.69298">
        <ele>189</ele>
        <time>2019-01-17T01:08:35Z</time>
      </trkpt>
      <trkpt lat="50.54177" lon="5.69303">
        <ele>191</ele>
        <time>2019-01-17T01:09:35Z</time>
      </trkpt>
      <trkpt lat="50.54107" lon="5.69286">
        <ele>194</ele>
        <time>2019-01-17T01:10:35Z</time>
      </trkpt>
      <trkpt lat="50.54022" lon="5.6926">
        <ele>195</ele>
        <time>2019-01-17T01:11:35Z</time>
      </trkpt>
      <trkpt lat="50.53989" lon="5.69242">
        <ele>196</ele>
        <time>2019-01-17T01:12:35Z</time>
      </trkpt>
      <trkpt lat="50.53912" lon="5.69198">
        <ele>197</ele>
        <time>2019-01-17T01:13:35Z</time>
      </trkpt>
      <trkpt lat="50.53881" lon="5.69182">
        <ele>195</ele>
        <time>2019-01-17T01:14:35Z</time>
      </trkpt>
      <trkpt lat="50.53863" lon="5.69174">
        <ele>194</ele>
        <time>2019-01-17T01:15:35Z</time>
      </trkpt>
      <trkpt lat="50.53847" lon="5.69168">
        <ele>194</ele>
        <time>2019-01-17T01:16:35Z</time>
      </trkpt>
      <trkpt lat="50.53835" lon="5.69165">
        <ele>194</ele>
        <time>2019-01-17T01:17:35Z</time>
      </trkpt>
      <trkpt lat="50.53814" lon="5.69165">
        <ele>196</ele>
        <time>2019-01-17T01:18:35Z</time>
      </trkpt>
      <trkpt lat="50.53802" lon="5.69168">
        <ele>196</ele>
        <time>2019-01-17T01:19:35Z</time>
      </trkpt>
      <trkpt lat="50.53789" lon="5.69174">
        <ele>198</ele>
        <time>2019-01-17T01:20:35Z</time>
      </trkpt>
      <trkpt lat="50.53758" lon="5.69196">
        <ele>201</ele>
        <time>2019-01-17T01:21:35Z</time>
      </trkpt>
      <trkpt lat="50.53733" lon="5.69225">
        <ele>204</ele>
        <time>2019-01-17T01:22:35Z</time>
      </trkpt>
      <trkpt lat="50.53715" lon="5.69251">
        <ele>205</ele>
        <time>2019-01-17T01:23:35Z</time>
      </trkpt>
      <trkpt lat="50.53707" lon="5.69267">
        <ele>207</ele>
        <time>2019-01-17T01:24:35Z</time>
      </trkpt>
      <trkpt lat="50.53693" lon="5.693">
        <ele>207</ele>
        <time>2019-01-17T01:25:35Z</time>
      </trkpt>
      <trkpt lat="50.53682" lon="5.69331">
        <ele>206</ele>
        <time>2019-01-17T01:26:35Z</time>
      </trkpt>
      <trkpt lat="50.53671" lon="5.69369">
        <ele>206</ele>
        <time>2019-01-17T01:27:35Z</time>
      </trkpt>
      <trkpt lat="50.53634" lon="5.69537">
        <ele>209</ele>
        <time>2019-01-17T01:28:35Z</time>
      </trkpt>
      <trkpt lat="50.53626" lon="5.69578">
        <ele>210</ele>
        <time>2019-01-17T01:29:35Z</time>
      </trkpt>
      <trkpt lat="50.53622" lon="5.69605">
        <ele>210</ele>
        <time>2019-01-17T01:30:35Z</time>
      </trkpt>
      <trkpt lat="50.53619" lon="5.69627">
        <ele>210</ele>
        <time>2019-01-17T01:31:35Z</time>
      </trkpt>
      <trkpt lat="50.53617" lon="5.69648">
        <ele>211</ele>
        <time>2019-01-17T01:32:35Z</time>
      </trkpt>
      <trkpt lat="50.53616" lon="5.69663">
        <ele>211</ele>
        <time>2019-01-17T01:33:35Z</time>
      </trkpt>
      <trkpt lat="50.53616" lon="5.69686">
        <ele>211</ele>
        <time>2019-01-17T01:34:35Z</time>
      </trkpt>
      <trkpt lat="50.53618" lon="5.69749">
        <ele>211</ele>
        <time>2019-01-17T01:35:35Z</time>
      </trkpt>
      <trkpt lat="50.53617" lon="5.6978">
        <ele>211</ele>
        <time>2019-01-17T01:36:35Z</time>
      </trkpt>
      <trkpt lat="50.53612" lon="5.69868">
        <ele>209</ele>
        <time>2019-01-17T01:37:35Z</time>
      </trkpt>
      <trkpt lat="50.53608" lon="5.69932">
        <ele>209</ele>
        <time>2019-01-17T01:38:35Z</time>
      </trkpt>
      <trkpt lat="50.53604" lon="5.69975">
        <ele>210</ele>
        <time>2019-01-17T01:39:35Z</time>
      </trkpt>
      <trkpt lat="50.53598" lon="5.70058">
        <ele>211</ele>
        <time>2019-01-17T01:40:35Z</time>
      </trkpt>
      <trkpt lat="50.53578" lon="5.70311">
        <ele>208</ele>
        <time>2019-01-17T01:41:35Z</time>
      </trkpt>
      <trkpt lat="50.53566" lon="5.70445">
        <ele>208</ele>
        <time>2019-01-17T01:42:35Z</time>
      </trkpt>
      <trkpt lat="50.53554" lon="5.70591">
        <ele>211</ele>
        <time>2019-01-17T01:43:35Z</time>
      </trkpt>
      <trkpt lat="50.53552" lon="5.70619">
        <ele>211</ele>
        <time>2019-01-17T01:44:35Z</time>
      </trkpt>
      <trkpt lat="50.53545" lon="5.70692">
        <ele>212</ele>
        <time>2019-01-17T01:45:35Z</time>
      </trkpt>
      <trkpt lat="50.53542" lon="5.70749">
        <ele>213</ele>
        <time>2019-01-17T01:46:35Z</time>
      </trkpt>
      <trkpt lat="50.53542" lon="5.70764">
        <ele>214</ele>
        <time>2019-01-17T01:47:35Z</time>
      </trkpt>
      <trkpt lat="50.53543" lon="5.70778">
        <ele>214</ele>
        <time>2019-01-17T01:48:35Z</time>
      </trkpt>
      <trkpt lat="50.53545" lon="5.70793">
        <ele>214</ele>
        <time>2019-01-17T01:49:35Z</time>
      </trkpt>
      <trkpt lat="50.53554" lon="5.70836">
        <ele>214</ele>
        <time>2019-01-17T01:50:35Z</time>
      </trkpt>
      <trkpt lat="50.53558" lon="5.70859">
        <ele>214</ele>
        <time>2019-01-17T01:51:35Z</time>
      </trkpt>
      <trkpt lat="50.53559" lon="5.70883">
        <ele>214</ele>
        <time>2019-01-17T01:52:35Z</time>
      </trkpt>
      <trkpt lat="50.53553" lon="5.70903">
        <ele>214</ele>
        <time>2019-01-17T01:53:35Z</time>
      </trkpt>
      <trkpt lat="50.53546" lon="5.7091">
        <ele>215</ele>
        <time>2019-01-17T01:54:35Z</time>
      </trkpt>
      <trkpt lat="50.53539" lon="5.70913">
        <ele>215</ele>
        <time>2019-01-17T01:55:35Z</time>
      </trkpt>
      <trkpt lat="50.53531" lon="5.70914">
        <ele>216</ele>
        <time>2019-01-17T01:56:35Z</time>
      </trkpt>
      <trkpt lat="50.53522" lon="5.70913">
        <ele>216</ele>
        <time>2019-01-17T01:57:35Z</time>
      </trkpt>
      <trkpt lat="50.53503" lon="5.70894">
        <ele>217</ele>
        <time>2019-01-17T01:58:35Z</time>
      </trkpt>
      <trkpt lat="50.53454" lon="5.70844">
        <ele>219</ele>
        <time>2019-01-17T01:59:35Z</time>
      </trkpt>
      <trkpt lat="50.53294" lon="5.70679">
        <ele>228</ele>
        <time>2019-01-17T02:00:35Z</time>
      </trkpt>
      <trkpt lat="50.53258" lon="5.70644">
        <ele>229</ele>
        <time>2019-01-17T02:01:35Z</time>
      </trkpt>
      <trkpt lat="50.53236" lon="5.70632">
        <ele>229</ele>
        <time>2019-01-17T02:02:35Z</time>
      </trkpt>
      <trkpt lat="50.53217" lon="5.70634">
        <ele>229</ele>
        <time>2019-01-17T02:03:35Z</time>
      </trkpt>
      <trkpt lat="50.53203" lon="5.70647">
        <ele>228</ele>
        <time>2019-01-17T02:04:35Z</time>
      </trkpt>
      <trkpt lat="50.53193" lon="5.70665">
        <ele>227</ele>
        <time>2019-01-17T02:05:35Z</time>
      </trkpt>
      <trkpt lat="50.53187" lon="5.7069">
        <ele>228</ele>
        <time>2019-01-17T02:06:35Z</time>
      </trkpt>
      <trkpt lat="50.53186" lon="5.70708">
        <ele>229</ele>
        <time>2019-01-17T02:07:35Z</time>
      </trkpt>
      <trkpt lat="50.53189" lon="5.70732">
        <ele>230</ele>
        <time>2019-01-17T02:08:35Z</time>
      </trkpt>
      <trkpt lat="50.53205" lon="5.70828">
        <ele>234</ele>
        <time>2019-01-17T02:09:35Z</time>
      </trkpt>
      <trkpt lat="50.53208" lon="5.70849">
        <ele>234</ele>
        <time>2019-01-17T02:10:35Z</time>
      </trkpt>
      <trkpt lat="50.53209" lon="5.70876">
        <ele>235</ele>
        <time>2019-01-17T02:11:35Z</time>
      </trkpt>
      <trkpt lat="50.53206" lon="5.70903">
        <ele>236</ele>
        <time>2019-01-17T02:12:35Z</time>
      </trkpt>
      <trkpt lat="50.53202" lon="5.70923">
        <ele>237</ele>
        <time>2019-01-17T02:13:35Z</time>
      </trkpt>
      <trkpt lat="50.53192" lon="5.70948">
        <ele>239</ele>
        <time>2019-01-17T02:14:35Z</time>
      </trkpt>
      <trkpt lat="50.53173" lon="5.70981">
        <ele>241</ele>
        <time>2019-01-17T02:15:35Z</time>
      </trkpt>
      <trkpt lat="50.53145" lon="5.71007">
        <ele>242</ele>
        <time>2019-01-17T02:16:35Z</time>
      </trkpt>
      <trkpt lat="50.53117" lon="5.71028">
        <ele>243</ele>
        <time>2019-01-17T02:17:35Z</time>
      </trkpt>
      <trkpt lat="50.53088" lon="5.7105">
        <ele>244</ele>
        <time>2019-01-17T02:18:35Z</time>
      </trkpt>
      <trkpt lat="50.53062" lon="5.71068">
        <ele>243</ele>
        <time>2019-01-17T02:19:35Z</time>
      </trkpt>
      <trkpt lat="50.53052" lon="5.71087">
        <ele>243</ele>
        <time>2019-01-17T02:20:35Z</time>
      </trkpt>
      <trkpt lat="50.53046" lon="5.71105">
        <ele>242</ele>
        <time>2019-01-17T02:21:35Z</time>
      </trkpt>
      <trkpt lat="50.53043" lon="5.7112">
        <ele>242</ele>
        <time>2019-01-17T02:22:35Z</time>
      </trkpt>
      <trkpt lat="50.53042" lon="5.71135">
        <ele>243</ele>
        <time>2019-01-17T02:23:35Z</time>
      </trkpt>
      <trkpt lat="50.53035" lon="5.71272">
        <ele>245</ele>
        <time>2019-01-17T02:24:35Z</time>
      </trkpt>
      <trkpt lat="50.53035" lon="5.71322">
        <ele>246</ele>
        <time>2019-01-17T02:25:35Z</time>
      </trkpt>
      <trkpt lat="50.53037" lon="5.71337">
        <ele>246</ele>
        <time>2019-01-17T02:26:35Z</time>
      </trkpt>
      <trkpt lat="50.53038" lon="5.71353">
        <ele>247</ele>
        <time>2019-01-17T02:27:35Z</time>
      </trkpt>
      <trkpt lat="50.53043" lon="5.71377">
        <ele>248</ele>
        <time>2019-01-17T02:28:35Z</time>
      </trkpt>
      <trkpt lat="50.53043" lon="5.71426">
        <ele>249</ele>
        <time>2019-01-17T02:29:35Z</time>
      </trkpt>
      <trkpt lat="50.53043" lon="5.71446">
        <ele>250</ele>
        <time>2019-01-17T02:30:35Z</time>
      </trkpt>
      <trkpt lat="50.53037" lon="5.71479">
        <ele>251</ele>
        <time>2019-01-17T02:31:35Z</time>
      </trkpt>
      <trkpt lat="50.53024" lon="5.71575">
        <ele>253</ele>
        <time>2019-01-17T02:32:35Z</time>
      </trkpt>
      <trkpt lat="50.5302" lon="5.71618">
        <ele>254</ele>
        <time>2019-01-17T02:33:35Z</time>
      </trkpt>
      <trkpt lat="50.53015" lon="5.7165">
        <ele>255</ele>
        <time>2019-01-17T02:34:35Z</time>
      </trkpt>
      <trkpt lat="50.53005" lon="5.71728">
        <ele>258</ele>
        <time>2019-01-17T02:35:35Z</time>
      </trkpt>
      <trkpt lat="50.53001" lon="5.71747">
        <ele>259</ele>
        <time>2019-01-17T02:36:35Z</time>
      </trkpt>
      <trkpt lat="50.52961" lon="5.71888">
        <ele>264</ele>
        <time>2019-01-17T02:37:35Z</time>
      </trkpt>
      <trkpt lat="50.52951" lon="5.71923">
        <ele>265</ele>
        <time>2019-01-17T02:38:35Z</time>
      </trkpt>
      <trkpt lat="50.52944" lon="5.71932">
        <ele>265</ele>
        <time>2019-01-17T02:39:35Z</time>
      </trkpt>
      <trkpt lat="50.52937" lon="5.71937">
        <ele>265</ele>
        <time>2019-01-17T02:40:35Z</time>
      </trkpt>
      <trkpt lat="50.52931" lon="5.71947">
        <ele>265</ele>
        <time>2019-01-17T02:41:35Z</time>
      </trkpt>
      <trkpt lat="50.52929" lon="5.7196">
        <ele>265</ele>
        <time>2019-01-17T02:42:35Z</time>
      </trkpt>
      <trkpt lat="50.52933" lon="5.71973">
        <ele>265</ele>
        <time>2019-01-17T02:43:35Z</time>
      </trkpt>
      <trkpt lat="50.5294" lon="5.7198">
        <ele>265</ele>
        <time>2019-01-17T02:44:35Z</time>
      </trkpt>
      <trkpt lat="50.52946" lon="5.71979">
        <ele>265</ele>
        <time>2019-01-17T02:45:35Z</time>
      </trkpt>
      <trkpt lat="50.52953" lon="5.71977">
        <ele>265</ele>
        <time>2019-01-17T02:46:35Z</time>
      </trkpt>
      <trkpt lat="50.52957" lon="5.71972">
        <ele>265</ele>
        <time>2019-01-17T02:47:35Z</time>
      </trkpt>
      <trkpt lat="50.5296" lon="5.71966">
        <ele>265</ele>
        <time>2019-01-17T02:48:35Z</time>
      </trkpt>
      <trkpt lat="50.52977" lon="5.7197">
        <ele>266</ele>
        <time>2019-01-17T02:49:35Z</time>
      </trkpt>
      <trkpt lat="50.52989" lon="5.71971">
        <ele>266</ele>
        <time>2019-01-17T02:50:35Z</time>
      </trkpt>
      <trkpt lat="50.53021" lon="5.71991">
        <ele>266</ele>
        <time>2019-01-17T02:51:35Z</time>
      </trkpt>
      <trkpt lat="50.53063" lon="5.72021">
        <ele>266</ele>
        <time>2019-01-17T02:52:35Z</time>
      </trkpt>
      <trkpt lat="50.53071" lon="5.72031">
        <ele>266</ele>
        <time>2019-01-17T02:53:35Z</time>
      </trkpt>
      <trkpt lat="50.53068" lon="5.72051">
        <ele>266</ele>
        <time>2019-01-17T02:54:35Z</time>
      </trkpt>
      <trkpt lat="50.53068" lon="5.7208">
        <ele>267</ele>
        <time>2019-01-17T02:55:35Z</time>
      </trkpt>
      <trkpt lat="50.53102" lon="5.72338">
        <ele>272</ele>
        <time>2019-01-17T02:56:35Z</time>
      </trkpt>
      <trkpt lat="50.53141" lon="5.72535">
        <ele>274</ele>
        <time>2019-01-17T02:57:35Z</time>
      </trkpt>
      <trkpt lat="50.53177" lon="5.72704">
        <ele>278</ele>
        <time>2019-01-17T02:58:35Z</time>
      </trkpt>
      <trkpt lat="50.53193" lon="5.72771">
        <ele>279</ele>
        <time>2019-01-17T02:59:35Z</time>
      </trkpt>
      <trkpt lat="50.53206" lon="5.72814">
        <ele>279</ele>
        <time>2019-01-17T03:00:35Z</time>
      </trkpt>
      <trkpt lat="50.5322" lon="5.72852">
        <ele>279</ele>
        <time>2019-01-17T03:01:35Z</time>
      </trkpt>
      <trkpt lat="50.53262" lon="5.72944">
        <ele>280</ele>
        <time>2019-01-17T03:02:35Z</time>
      </trkpt>
      <trkpt lat="50.53318" lon="5.73069">
        <ele>283</ele>
        <time>2019-01-17T03:03:35Z</time>
      </trkpt>
      <trkpt lat="50.53367" lon="5.73171">
        <ele>287</ele>
        <time>2019-01-17T03:04:35Z</time>
      </trkpt>
      <trkpt lat="50.5338" lon="5.73201">
        <ele>288</ele>
        <time>2019-01-17T03:05:35Z</time>
      </trkpt>
      <trkpt lat="50.53397" lon="5.73231">
        <ele>289</ele>
        <time>2019-01-17T03:06:35Z</time>
      </trkpt>
      <trkpt lat="50.53417" lon="5.7326">
        <ele>289</ele>
        <time>2019-01-17T03:07:35Z</time>
      </trkpt>
      <trkpt lat="50.53468" lon="5.73327">
        <ele>290</ele>
        <time>2019-01-17T03:08:35Z</time>
      </trkpt>
      <trkpt lat="50.53607" lon="5.73527">
        <ele>293</ele>
        <time>2019-01-17T03:09:35Z</time>
      </trkpt>
      <trkpt lat="50.53665" lon="5.73609">
        <ele>293</ele>
        <time>2019-01-17T03:10:35Z</time>
      </trkpt>
      <trkpt lat="50.53674" lon="5.73622">
        <ele>292</ele>
        <time>2019-01-17T03:11:35Z</time>
      </trkpt>
      <trkpt lat="50.53685" lon="5.73633">
        <ele>292</ele>
        <time>2019-01-17T03:12:35Z</time>
      </trkpt>
      <trkpt lat="50.53694" lon="5.73637">
        <ele>292</ele>
        <time>2019-01-17T03:13:35Z</time>
      </trkpt>
      <trkpt lat="50.53703" lon="5.73644">
        <ele>292</ele>
        <time>2019-01-17T03:14:35Z</time>
      </trkpt>
      <trkpt lat="50.53711" lon="5.73655">
        <ele>292</ele>
        <time>2019-01-17T03:15:35Z</time>
      </trkpt>
      <trkpt lat="50.5371" lon="5.73675">
        <ele>292</ele>
        <time>2019-01-17T03:16:35Z</time>
      </trkpt>
      <trkpt lat="50.53713" lon="5.73697">
        <ele>293</ele>
        <time>2019-01-17T03:17:35Z</time>
      </trkpt>
      <trkpt lat="50.53716" lon="5.73712">
        <ele>293</ele>
        <time>2019-01-17T03:18:35Z</time>
      </trkpt>
      <trkpt lat="50.53722" lon="5.73737">
        <ele>294</ele>
        <time>2019-01-17T03:19:35Z</time>
      </trkpt>
      <trkpt lat="50.53743" lon="5.73809">
        <ele>297</ele>
        <time>2019-01-17T03:20:35Z</time>
      </trkpt>
      <trkpt lat="50.53795" lon="5.74007">
        <ele>301</ele>
        <time>2019-01-17T03:21:35Z</time>
      </trkpt>
      <trkpt lat="50.53805" lon="5.7405">
        <ele>301</ele>
        <time>2019-01-17T03:22:35Z</time>
      </trkpt>
      <trkpt lat="50.53817" lon="5.74096">
        <ele>301</ele>
        <time>2019-01-17T03:23:35Z</time>
      </trkpt>
      <trkpt lat="50.53821" lon="5.74113">
        <ele>301</ele>
        <time>2019-01-17T03:24:35Z</time>
      </trkpt>
      <trkpt lat="50.53835" lon="5.74172">
        <ele>302</ele>
        <time>2019-01-17T03:25:35Z</time>
      </trkpt>
      <trkpt lat="50.5384" lon="5.74194">
        <ele>303</ele>
        <time>2019-01-17T03:26:35Z</time>
      </trkpt>
      <trkpt lat="50.53844" lon="5.74217">
        <ele>303</ele>
        <time>2019-01-17T03:27:35Z</time>
      </trkpt>
      <trkpt lat="50.53848" lon="5.74241">
        <ele>303</ele>
        <time>2019-01-17T03:28:35Z</time>
      </trkpt>
      <trkpt lat="50.53849" lon="5.74255">
        <ele>303</ele>
        <time>2019-01-17T03:29:35Z</time>
      </trkpt>
      <trkpt lat="50.53844" lon="5.74263">
        <ele>303</ele>
        <time>2019-01-17T03:30:35Z</time>
      </trkpt>
      <trkpt lat="50.53809" lon="5.74299">
        <ele>301</ele>
        <time>2019-01-17T03:31:35Z</time>
      </trkpt>
      <trkpt lat="50.53783" lon="5.74331">
        <ele>300</ele>
        <time>2019-01-17T03:32:35Z</time>
      </trkpt>
      <trkpt lat="50.53732" lon="5.7439">
        <ele>298</ele>
        <time>2019-01-17T03:33:35Z</time>
      </trkpt>
      <trkpt lat="50.53704" lon="5.7442">
        <ele>297</ele>
        <time>2019-01-17T03:34:35Z</time>
      </trkpt>
      <trkpt lat="50.53676" lon="5.74443">
        <ele>296</ele>
        <time>2019-01-17T03:35:35Z</time>
      </trkpt>
      <trkpt lat="50.53645" lon="5.74467">
        <ele>295</ele>
        <time>2019-01-17T03:36:35Z</time>
      </trkpt>
      <trkpt lat="50.53632" lon="5.74475">
        <ele>295</ele>
        <time>2019-01-17T03:37:35Z</time>
      </trkpt>
      <trkpt lat="50.53596" lon="5.74505">
        <ele>296</ele>
        <time>2019-01-17T03:38:35Z</time>
      </trkpt>
      <trkpt lat="50.53586" lon="5.74517">
        <ele>296</ele>
        <time>2019-01-17T03:39:35Z</time>
      </trkpt>
      <trkpt lat="50.53568" lon="5.74551">
        <ele>297</ele>
        <time>2019-01-17T03:40:35Z</time>
      </trkpt>
      <trkpt lat="50.53544" lon="5.74608">
        <ele>299</ele>
        <time>2019-01-17T03:41:35Z</time>
      </trkpt>
      <trkpt lat="50.53486" lon="5.74751">
        <ele>306</ele>
        <time>2019-01-17T03:42:35Z</time>
      </trkpt>
      <trkpt lat="50.53476" lon="5.74767">
        <ele>307</ele>
        <time>2019-01-17T03:43:35Z</time>
      </trkpt>
      <trkpt lat="50.53456" lon="5.74795">
        <ele>310</ele>
        <time>2019-01-17T03:44:35Z</time>
      </trkpt>
      <trkpt lat="50.53442" lon="5.74809">
        <ele>311</ele>
        <time>2019-01-17T03:45:35Z</time>
      </trkpt>
      <trkpt lat="50.53407" lon="5.74852">
        <ele>314</ele>
        <time>2019-01-17T03:46:35Z</time>
      </trkpt>
      <trkpt lat="50.53312" lon="5.74964">
        <ele>318</ele>
        <time>2019-01-17T03:47:35Z</time>
      </trkpt>
      <trkpt lat="50.53302" lon="5.74977">
        <ele>319</ele>
        <time>2019-01-17T03:48:35Z</time>
      </trkpt>
      <trkpt lat="50.53284" lon="5.74999">
        <ele>319</ele>
        <time>2019-01-17T03:49:35Z</time>
      </trkpt>
      <trkpt lat="50.5322" lon="5.75084">
        <ele>319</ele>
        <time>2019-01-17T03:50:35Z</time>
      </trkpt>
      <trkpt lat="50.53194" lon="5.75122">
        <ele>317</ele>
        <time>2019-01-17T03:51:35Z</time>
      </trkpt>
      <trkpt lat="50.53183" lon="5.7513">
        <ele>317</ele>
        <time>2019-01-17T03:52:35Z</time>
      </trkpt>
      <trkpt lat="50.53175" lon="5.75132">
        <ele>316</ele>
        <time>2019-01-17T03:53:35Z</time>
      </trkpt>
      <trkpt lat="50.53187" lon="5.75415">
        <ele>311</ele>
        <time>2019-01-17T03:54:35Z</time>
      </trkpt>
      <trkpt lat="50.53199" lon="5.75678">
        <ele>314</ele>
        <time>2019-01-17T03:55:35Z</time>
      </trkpt>
      <trkpt lat="50.53225" lon="5.76179">
        <ele>322</ele>
        <time>2019-01-17T03:56:35Z</time>
      </trkpt>
      <trkpt lat="50.53229" lon="5.76269">
        <ele>323</ele>
        <time>2019-01-17T03:57:35Z</time>
      </trkpt>
      <trkpt lat="50.53142" lon="5.76296">
        <ele>330</ele>
        <time>2019-01-17T03:58:35Z</time>
      </trkpt>
      <trkpt lat="50.52962" lon="5.76364">
        <ele>331</ele>
        <time>2019-01-17T03:59:35Z</time>
      </trkpt>
      <trkpt lat="50.52696" lon="5.76456">
        <ele>347</ele>
        <time>2019-01-17T04:00:35Z</time>
      </trkpt>
      <trkpt lat="50.52654" lon="5.76472">
        <ele>348</ele>
        <time>2019-01-17T04:01:35Z</time>
      </trkpt>
      <trkpt lat="50.52591" lon="5.76498">
        <ele>346</ele>
        <time>2019-01-17T04:02:35Z</time>
      </trkpt>
      <trkpt lat="50.52557" lon="5.76514">
        <ele>346</ele>
        <time>2019-01-17T04:03:35Z</time>
      </trkpt>
      <trkpt lat="50.52372" lon="5.76607">
        <ele>343</ele>
        <time>2019-01-17T04:04:35Z</time>
      </trkpt>
      <trkpt lat="50.52201" lon="5.76697">
        <ele>343</ele>
        <time>2019-01-17T04:05:35Z</time>
      </trkpt>
      <trkpt lat="50.52156" lon="5.7672">
        <ele>343</ele>
        <time>2019-01-17T04:06:35Z</time>
      </trkpt>
      <trkpt lat="50.52016" lon="5.76781">
        <ele>340</ele>
        <time>2019-01-17T04:07:35Z</time>
      </trkpt>
      <trkpt lat="50.51833" lon="5.76857">
        <ele>342</ele>
        <time>2019-01-17T04:08:35Z</time>
      </trkpt>
      <trkpt lat="50.51642" lon="5.76937">
        <ele>338</ele>
        <time>2019-01-17T04:09:35Z</time>
      </trkpt>
      <trkpt lat="50.51526" lon="5.76984">
        <ele>339</ele>
        <time>2019-01-17T04:10:35Z</time>
      </trkpt>
      <trkpt lat="50.51507" lon="5.76985">
        <ele>339</ele>
        <time>2019-01-17T04:11:35Z</time>
      </trkpt>
      <trkpt lat="50.5147" lon="5.76972">
        <ele>340</ele>
        <time>2019-01-17T04:12:35Z</time>
      </trkpt>
      <trkpt lat="50.51321" lon="5.76912">
        <ele>341</ele>
        <time>2019-01-17T04:13:35Z</time>
      </trkpt>
      <trkpt lat="50.51148" lon="5.76839">
        <ele>348</ele>
        <time>2019-01-17T04:14:35Z</time>
      </trkpt>
      <trkpt lat="50.51012" lon="5.76785">
        <ele>350</ele>
        <time>2019-01-17T04:15:35Z</time>
      </trkpt>
      <trkpt lat="50.50997" lon="5.76777">
        <ele>349</ele>
        <time>2019-01-17T04:16:35Z</time>
      </trkpt>
      <trkpt lat="50.50982" lon="5.76767">
        <ele>349</ele>
        <time>2019-01-17T04:17:35Z</time>
      </trkpt>
      <trkpt lat="50.50958" lon="5.76732">
        <ele>350</ele>
        <time>2019-01-17T04:18:35Z</time>
      </trkpt>
      <trkpt lat="50.50836" lon="5.76555">
        <ele>354</ele>
        <time>2019-01-17T04:19:35Z</time>
      </trkpt>
      <trkpt lat="50.5077" lon="5.76461">
        <ele>352</ele>
        <time>2019-01-17T04:20:35Z</time>
      </trkpt>
      <trkpt lat="50.50756" lon="5.76445">
        <ele>352</ele>
        <time>2019-01-17T04:21:35Z</time>
      </trkpt>
      <trkpt lat="50.5074" lon="5.76431">
        <ele>352</ele>
        <time>2019-01-17T04:22:35Z</time>
      </trkpt>
      <trkpt lat="50.50721" lon="5.76422">
        <ele>350</ele>
        <time>2019-01-17T04:23:35Z</time>
      </trkpt>
      <trkpt lat="50.50691" lon="5.76418">
        <ele>348</ele>
        <time>2019-01-17T04:24:35Z</time>
      </trkpt>
      <trkpt lat="50.50628" lon="5.76419">
        <ele>345</ele>
        <time>2019-01-17T04:25:35Z</time>
      </trkpt>
      <trkpt lat="50.50463" lon="5.76425">
        <ele>343</ele>
        <time>2019-01-17T04:26:35Z</time>
      </trkpt>
      <trkpt lat="50.50433" lon="5.76425">
        <ele>343</ele>
        <time>2019-01-17T04:27:35Z</time>
      </trkpt>
      <trkpt lat="50.50413" lon="5.76428">
        <ele>343</ele>
        <time>2019-01-17T04:28:35Z</time>
      </trkpt>
      <trkpt lat="50.50377" lon="5.76442">
        <ele>343</ele>
        <time>2019-01-17T04:29:35Z</time>
      </trkpt>
      <trkpt lat="50.50274" lon="5.76514">
        <ele>344</ele>
        <time>2019-01-17T04:30:35Z</time>
      </trkpt>
      <trkpt lat="50.50195" lon="5.76572">
        <ele>344</ele>
        <time>2019-01-17T04:31:35Z</time>
      </trkpt>
      <trkpt lat="50.50112" lon="5.76634">
        <ele>344</ele>
        <time>2019-01-17T04:32:35Z</time>
      </trkpt>
      <trkpt lat="50.50072" lon="5.76664">
        <ele>344</ele>
        <time>2019-01-17T04:33:35Z</time>
      </trkpt>
      <trkpt lat="50.50055" lon="5.76675">
        <ele>344</ele>
        <time>2019-01-17T04:34:35Z</time>
      </trkpt>
      <trkpt lat="50.50045" lon="5.76684">
        <ele>344</ele>
        <time>2019-01-17T04:35:35Z</time>
      </trkpt>
      <trkpt lat="50.50013" lon="5.76721">
        <ele>345</ele>
        <time>2019-01-17T04:36:35Z</time>
      </trkpt>
      <trkpt lat="50.49836" lon="5.76945">
        <ele>354</ele>
        <time>2019-01-17T04:37:35Z</time>
      </trkpt>
      <trkpt lat="50.49818" lon="5.76963">
        <ele>356</ele>
        <time>2019-01-17T04:38:35Z</time>
      </trkpt>
      <trkpt lat="50.49802" lon="5.76975">
        <ele>357</ele>
        <time>2019-01-17T04:39:35Z</time>
      </trkpt>
      <trkpt lat="50.49793" lon="5.7698">
        <ele>358</ele>
        <time>2019-01-17T04:40:35Z</time>
      </trkpt>
      <trkpt lat="50.49775" lon="5.76987">
        <ele>358</ele>
        <time>2019-01-17T04:41:35Z</time>
      </trkpt>
      <trkpt lat="50.49585" lon="5.77035">
        <ele>360</ele>
        <time>2019-01-17T04:42:35Z</time>
      </trkpt>
      <trkpt lat="50.49563" lon="5.7704">
        <ele>360</ele>
        <time>2019-01-17T04:43:35Z</time>
      </trkpt>
      <trkpt lat="50.49537" lon="5.7704">
        <ele>360</ele>
        <time>2019-01-17T04:44:35Z</time>
      </trkpt>
      <trkpt lat="50.49491" lon="5.77038">
        <ele>361</ele>
        <time>2019-01-17T04:45:35Z</time>
      </trkpt>
      <trkpt lat="50.49447" lon="5.77034">
        <ele>363</ele>
        <time>2019-01-17T04:46:35Z</time>
      </trkpt>
      <trkpt lat="50.49425" lon="5.77028">
        <ele>364</ele>
        <time>2019-01-17T04:47:35Z</time>
      </trkpt>
      <trkpt lat="50.4943" lon="5.77039">
        <ele>364</ele>
        <time>2019-01-17T04:48:35Z</time>
      </trkpt>
      <trkpt lat="50.49434" lon="5.77049">
        <ele>363</ele>
        <time>2019-01-17T04:49:35Z</time>
      </trkpt>
      <trkpt lat="50.49441" lon="5.77062">
        <ele>363</ele>
        <time>2019-01-17T04:50:35Z</time>
      </trkpt>
      <trkpt lat="50.49461" lon="5.77095">
        <ele>362</ele>
        <time>2019-01-17T04:51:35Z</time>
      </trkpt>
      <trkpt lat="50.49483" lon="5.77136">
        <ele>360</ele>
        <time>2019-01-17T04:52:35Z</time>
      </trkpt>
      <trkpt lat="50.49518" lon="5.77202">
        <ele>356</ele>
        <time>2019-01-17T04:53:35Z</time>
      </trkpt>
      <trkpt lat="50.4955" lon="5.77277">
        <ele>352</ele>
        <time>2019-01-17T04:54:35Z</time>
      </trkpt>
      <trkpt lat="50.49573" lon="5.77348">
        <ele>348</ele>
        <time>2019-01-17T04:55:35Z</time>
      </trkpt>
      <trkpt lat="50.49643" lon="5.77617">
        <ele>338</ele>
        <time>2019-01-17T04:56:35Z</time>
      </trkpt>
      <trkpt lat="50.49685" lon="5.77788">
        <ele>340</ele>
        <time>2019-01-17T04:57:35Z</time>
      </trkpt>
      <trkpt lat="50.4975" lon="5.78051">
        <ele>337</ele>
        <time>2019-01-17T04:58:35Z</time>
      </trkpt>
      <trkpt lat="50.49765" lon="5.78098">
        <ele>336</ele>
        <time>2019-01-17T04:59:35Z</time>
      </trkpt>
      <trkpt lat="50.49778" lon="5.78135">
        <ele>336</ele>
        <time>2019-01-17T05:00:35Z</time>
      </trkpt>
      <trkpt lat="50.49794" lon="5.78172">
        <ele>336</ele>
        <time>2019-01-17T05:01:35Z</time>
      </trkpt>
      <trkpt lat="50.49827" lon="5.78237">
        <ele>335</ele>
        <time>2019-01-17T05:02:35Z</time>
      </trkpt>
      <trkpt lat="50.4994" lon="5.78439">
        <ele>334</ele>
        <time>2019-01-17T05:03:35Z</time>
      </trkpt>
      <trkpt lat="50.50035" lon="5.78612">
        <ele>328</ele>
        <time>2019-01-17T05:04:35Z</time>
      </trkpt>
      <trkpt lat="50.50067" lon="5.78651">
        <ele>324</ele>
        <time>2019-01-17T05:05:35Z</time>
      </trkpt>
      <trkpt lat="50.501" lon="5.7869">
        <ele>323</ele>
        <time>2019-01-17T05:06:35Z</time>
      </trkpt>
      <trkpt lat="50.50119" lon="5.78712">
        <ele>323</ele>
        <time>2019-01-17T05:07:35Z</time>
      </trkpt>
      <trkpt lat="50.50144" lon="5.78751">
        <ele>323</ele>
        <time>2019-01-17T05:08:35Z</time>
      </trkpt>
      <trkpt lat="50.50163" lon="5.78782">
        <ele>323</ele>
        <time>2019-01-17T05:09:35Z</time>
      </trkpt>
      <trkpt lat="50.50174" lon="5.78794">
        <ele>323</ele>
        <time>2019-01-17T05:10:35Z</time>
      </trkpt>
      <trkpt lat="50.50184" lon="5.78803">
        <ele>323</ele>
        <time>2019-01-17T05:11:35Z</time>
      </trkpt>
      <trkpt lat="50.50196" lon="5.78808">
        <ele>323</ele>
        <time>2019-01-17T05:12:35Z</time>
      </trkpt>
      <trkpt lat="50.50215" lon="5.78812">
        <ele>324</ele>
        <time>2019-01-17T05:13:35Z</time>
      </trkpt>
      <trkpt lat="50.50223" lon="5.78814">
        <ele>325</ele>
        <time>2019-01-17T05:14:35Z</time>
      </trkpt>
      <trkpt lat="50.50234" lon="5.78825">
        <ele>325</ele>
        <time>2019-01-17T05:15:35Z</time>
      </trkpt>
      <trkpt lat="50.50245" lon="5.78839">
        <ele>326</ele>
        <time>2019-01-17T05:16:35Z</time>
      </trkpt>
      <trkpt lat="50.50261" lon="5.78846">
        <ele>326</ele>
        <time>2019-01-17T05:17:35Z</time>
      </trkpt>
      <trkpt lat="50.50278" lon="5.78914">
        <ele>326</ele>
        <time>2019-01-17T05:18:35Z</time>
      </trkpt>
      <trkpt lat="50.50286" lon="5.79012">
        <ele>325</ele>
        <time>2019-01-17T05:19:35Z</time>
      </trkpt>
      <trkpt lat="50.50293" lon="5.791">
        <ele>325</ele>
        <time>2019-01-17T05:20:35Z</time>
      </trkpt>
      <trkpt lat="50.50305" lon="5.79152">
        <ele>327</ele>
        <time>2019-01-17T05:21:35Z</time>
      </trkpt>
      <trkpt lat="50.50348" lon="5.79241">
        <ele>332</ele>
        <time>2019-01-17T05:22:35Z</time>
      </trkpt>
      <trkpt lat="50.5038" lon="5.79311">
        <ele>333</ele>
        <time>2019-01-17T05:23:35Z</time>
      </trkpt>
      <trkpt lat="50.50387" lon="5.79322">
        <ele>333</ele>
        <time>2019-01-17T05:24:35Z</time>
      </trkpt>
      <trkpt lat="50.50413" lon="5.79405">
        <ele>335</ele>
        <time>2019-01-17T05:25:35Z</time>
      </trkpt>
      <trkpt lat="50.5042" lon="5.79427">
        <ele>335</ele>
        <time>2019-01-17T05:26:35Z</time>
      </trkpt>
      <trkpt lat="50.50454" lon="5.79526">
        <ele>333</ele>
        <time>2019-01-17T05:27:35Z</time>
      </trkpt>
      <trkpt lat="50.50473" lon="5.79588">
        <ele>331</ele>
        <time>2019-01-17T05:28:35Z</time>
      </trkpt>
      <trkpt lat="50.505" lon="5.79667">
        <ele>328</ele>
        <time>2019-01-17T05:29:35Z</time>
      </trkpt>
      <trkpt lat="50.50508" lon="5.79684">
        <ele>327</ele>
        <time>2019-01-17T05:30:35Z</time>
      </trkpt>
      <trkpt lat="50.50516" lon="5.797">
        <ele>326</ele>
        <time>2019-01-17T05:31:35Z</time>
      </trkpt>
      <trkpt lat="50.5053" lon="5.79715">
        <ele>324</ele>
        <time>2019-01-17T05:32:35Z</time>
      </trkpt>
      <trkpt lat="50.50545" lon="5.79728">
        <ele>323</ele>
        <time>2019-01-17T05:33:35Z</time>
      </trkpt>
      <trkpt lat="50.50577" lon="5.7975">
        <ele>321</ele>
        <time>2019-01-17T05:34:35Z</time>
      </trkpt>
      <trkpt lat="50.5064" lon="5.79786">
        <ele>317</ele>
        <time>2019-01-17T05:35:35Z</time>
      </trkpt>
      <trkpt lat="50.50664" lon="5.79801">
        <ele>315</ele>
        <time>2019-01-17T05:36:35Z</time>
      </trkpt>
      <trkpt lat="50.50681" lon="5.7981">
        <ele>314</ele>
        <time>2019-01-17T05:37:35Z</time>
      </trkpt>
      <trkpt lat="50.50714" lon="5.79848">
        <ele>311</ele>
        <time>2019-01-17T05:38:35Z</time>
      </trkpt>
      <trkpt lat="50.50757" lon="5.79892">
        <ele>309</ele>
        <time>2019-01-17T05:39:35Z</time>
      </trkpt>
      <trkpt lat="50.50823" lon="5.79958">
        <ele>307</ele>
        <time>2019-01-17T05:40:35Z</time>
      </trkpt>
      <trkpt lat="50.50833" lon="5.79967">
        <ele>307</ele>
        <time>2019-01-17T05:41:35Z</time>
      </trkpt>
      <trkpt lat="50.5084" lon="5.79976">
        <ele>306</ele>
        <time>2019-01-17T05:42:35Z</time>
      </trkpt>
      <trkpt lat="50.50844" lon="5.79989">
        <ele>306</ele>
        <time>2019-01-17T05:43:35Z</time>
      </trkpt>
      <trkpt lat="50.50848" lon="5.80004">
        <ele>306</ele>
        <time>2019-01-17T05:44:35Z</time>
      </trkpt>
      <trkpt lat="50.50848" lon="5.80021">
        <ele>304</ele>
        <time>2019-01-17T05:45:35Z</time>
      </trkpt>
      <trkpt lat="50.50846" lon="5.8004">
        <ele>303</ele>
        <time>2019-01-17T05:46:35Z</time>
      </trkpt>
      <trkpt lat="50.5084" lon="5.80057">
        <ele>302</ele>
        <time>2019-01-17T05:47:35Z</time>
      </trkpt>
      <trkpt lat="50.5082" lon="5.80132">
        <ele>296</ele>
        <time>2019-01-17T05:48:35Z</time>
      </trkpt>
      <trkpt lat="50.50797" lon="5.80218">
        <ele>289</ele>
        <time>2019-01-17T05:49:35Z</time>
      </trkpt>
      <trkpt lat="50.50793" lon="5.80236">
        <ele>288</ele>
        <time>2019-01-17T05:50:35Z</time>
      </trkpt>
      <trkpt lat="50.50792" lon="5.80254">
        <ele>286</ele>
        <time>2019-01-17T05:51:35Z</time>
      </trkpt>
      <trkpt lat="50.50794" lon="5.8027">
        <ele>285</ele>
        <time>2019-01-17T05:52:35Z</time>
      </trkpt>
      <trkpt lat="50.50801" lon="5.80288">
        <ele>284</ele>
        <time>2019-01-17T05:53:35Z</time>
      </trkpt>
      <trkpt lat="50.50811" lon="5.80303">
        <ele>282</ele>
        <time>2019-01-17T05:54:35Z</time>
      </trkpt>
      <trkpt lat="50.50828" lon="5.80327">
        <ele>280</ele>
        <time>2019-01-17T05:55:35Z</time>
      </trkpt>
      <trkpt lat="50.50856" lon="5.80361">
        <ele>279</ele>
        <time>2019-01-17T05:56:35Z</time>
      </trkpt>
      <trkpt lat="50.50923" lon="5.80444">
        <ele>275</ele>
        <time>2019-01-17T05:57:35Z</time>
      </trkpt>
      <trkpt lat="50.5099" lon="5.80525">
        <ele>272</ele>
        <time>2019-01-17T05:58:35Z</time>
      </trkpt>
      <trkpt lat="50.51072" lon="5.80604">
        <ele>268</ele>
        <time>2019-01-17T05:59:35Z</time>
      </trkpt>
      <trkpt lat="50.51142" lon="5.80672">
        <ele>266</ele>
        <time>2019-01-17T06:00:35Z</time>
      </trkpt>
      <trkpt lat="50.51159" lon="5.80689">
        <ele>265</ele>
        <time>2019-01-17T06:01:35Z</time>
      </trkpt>
      <trkpt lat="50.51171" lon="5.80703">
        <ele>265</ele>
        <time>2019-01-17T06:02:35Z</time>
      </trkpt>
      <trkpt lat="50.51215" lon="5.80764">
        <ele>262</ele>
        <time>2019-01-17T06:03:35Z</time>
      </trkpt>
      <trkpt lat="50.51255" lon="5.80821">
        <ele>259</ele>
        <time>2019-01-17T06:04:35Z</time>
      </trkpt>
      <trkpt lat="50.51304" lon="5.80891">
        <ele>257</ele>
        <time>2019-01-17T06:05:35Z</time>
      </trkpt>
      <trkpt lat="50.51349" lon="5.80947">
        <ele>253</ele>
        <time>2019-01-17T06:06:35Z</time>
      </trkpt>
      <trkpt lat="50.51374" lon="5.80975">
        <ele>249</ele>
        <time>2019-01-17T06:07:35Z</time>
      </trkpt>
      <trkpt lat="50.51406" lon="5.81002">
        <ele>247</ele>
        <time>2019-01-17T06:08:35Z</time>
      </trkpt>
      <trkpt lat="50.51455" lon="5.81036">
        <ele>245</ele>
        <time>2019-01-17T06:09:35Z</time>
      </trkpt>
      <trkpt lat="50.51526" lon="5.81086">
        <ele>241</ele>
        <time>2019-01-17T06:10:35Z</time>
      </trkpt>
      <trkpt lat="50.51601" lon="5.8114">
        <ele>235</ele>
        <time>2019-01-17T06:11:35Z</time>
      </trkpt>
      <trkpt lat="50.51626" lon="5.8116">
        <ele>233</ele>
        <time>2019-01-17T06:12:35Z</time>
      </trkpt>
      <trkpt lat="50.51639" lon="5.81176">
        <ele>232</ele>
        <time>2019-01-17T06:13:35Z</time>
      </trkpt>
      <trkpt lat="50.51645" lon="5.81189">
        <ele>231</ele>
        <time>2019-01-17T06:14:35Z</time>
      </trkpt>
      <trkpt lat="50.51647" lon="5.81197">
        <ele>231</ele>
        <time>2019-01-17T06:15:35Z</time>
      </trkpt>
      <trkpt lat="50.51648" lon="5.81208">
        <ele>231</ele>
        <time>2019-01-17T06:16:35Z</time>
      </trkpt>
      <trkpt lat="50.51648" lon="5.81233">
        <ele>231</ele>
        <time>2019-01-17T06:17:35Z</time>
      </trkpt>
      <trkpt lat="50.51644" lon="5.81247">
        <ele>231</ele>
        <time>2019-01-17T06:18:35Z</time>
      </trkpt>
      <trkpt lat="50.51639" lon="5.81258">
        <ele>230</ele>
        <time>2019-01-17T06:19:35Z</time>
      </trkpt>
      <trkpt lat="50.51631" lon="5.81271">
        <ele>229</ele>
        <time>2019-01-17T06:20:35Z</time>
      </trkpt>
      <trkpt lat="50.51563" lon="5.81335">
        <ele>225</ele>
        <time>2019-01-17T06:21:35Z</time>
      </trkpt>
      <trkpt lat="50.51556" lon="5.81342">
        <ele>224</ele>
        <time>2019-01-17T06:22:35Z</time>
      </trkpt>
      <trkpt lat="50.51551" lon="5.81351">
        <ele>223</ele>
        <time>2019-01-17T06:23:35Z</time>
      </trkpt>
      <trkpt lat="50.5155" lon="5.81359">
        <ele>223</ele>
        <time>2019-01-17T06:24:35Z</time>
      </trkpt>
      <trkpt lat="50.5155" lon="5.81367">
        <ele>222</ele>
        <time>2019-01-17T06:25:35Z</time>
      </trkpt>
      <trkpt lat="50.51553" lon="5.81377">
        <ele>221</ele>
        <time>2019-01-17T06:26:35Z</time>
      </trkpt>
      <trkpt lat="50.5156" lon="5.81386">
        <ele>220</ele>
        <time>2019-01-17T06:27:35Z</time>
      </trkpt>
      <trkpt lat="50.51567" lon="5.81391">
        <ele>219</ele>
        <time>2019-01-17T06:28:35Z</time>
      </trkpt>
      <trkpt lat="50.51609" lon="5.81408">
        <ele>218</ele>
        <time>2019-01-17T06:29:35Z</time>
      </trkpt>
      <trkpt lat="50.51659" lon="5.81433">
        <ele>216</ele>
        <time>2019-01-17T06:30:35Z</time>
      </trkpt>
      <trkpt lat="50.51693" lon="5.81452">
        <ele>214</ele>
        <time>2019-01-17T06:31:35Z</time>
      </trkpt>
      <trkpt lat="50.51744" lon="5.81479">
        <ele>211</ele>
        <time>2019-01-17T06:32:35Z</time>
      </trkpt>
      <trkpt lat="50.51788" lon="5.81503">
        <ele>212</ele>
        <time>2019-01-17T06:33:35Z</time>
      </trkpt>
      <trkpt lat="50.51826" lon="5.81523">
        <ele>212</ele>
        <time>2019-01-17T06:34:35Z</time>
      </trkpt>
      <trkpt lat="50.51862" lon="5.81541">
        <ele>211</ele>
        <time>2019-01-17T06:35:35Z</time>
      </trkpt>
      <trkpt lat="50.51901" lon="5.81564">
        <ele>209</ele>
        <time>2019-01-17T06:36:35Z</time>
      </trkpt>
      <trkpt lat="50.51946" lon="5.81588">
        <ele>207</ele>
        <time>2019-01-17T06:37:35Z</time>
      </trkpt>
      <trkpt lat="50.51982" lon="5.81625">
        <ele>204</ele>
        <time>2019-01-17T06:38:35Z</time>
      </trkpt>
      <trkpt lat="50.51994" lon="5.81638">
        <ele>202</ele>
        <time>2019-01-17T06:39:35Z</time>
      </trkpt>
      <trkpt lat="50.52032" lon="5.81662">
        <ele>199</ele>
        <time>2019-01-17T06:40:35Z</time>
      </trkpt>
      <trkpt lat="50.52048" lon="5.81686">
        <ele>196</ele>
        <time>2019-01-17T06:41:35Z</time>
      </trkpt>
      <trkpt lat="50.52053" lon="5.81703">
        <ele>194</ele>
        <time>2019-01-17T06:42:35Z</time>
      </trkpt>
      <trkpt lat="50.52" lon="5.81684">
        <ele>196</ele>
        <time>2019-01-17T06:43:35Z</time>
      </trkpt>
      <trkpt lat="50.51934" lon="5.81658">
        <ele>194</ele>
        <time>2019-01-17T06:44:35Z</time>
      </trkpt>
      <trkpt lat="50.5188" lon="5.81636">
        <ele>195</ele>
        <time>2019-01-17T06:45:35Z</time>
      </trkpt>
      <trkpt lat="50.51821" lon="5.8161">
        <ele>196</ele>
        <time>2019-01-17T06:46:35Z</time>
      </trkpt>
      <trkpt lat="50.51775" lon="5.81593">
        <ele>198</ele>
        <time>2019-01-17T06:47:35Z</time>
      </trkpt>
      <trkpt lat="50.51751" lon="5.81588">
        <ele>198</ele>
        <time>2019-01-17T06:48:35Z</time>
      </trkpt>
      <trkpt lat="50.5171" lon="5.81587">
        <ele>199</ele>
        <time>2019-01-17T06:49:35Z</time>
      </trkpt>
      <trkpt lat="50.51679" lon="5.8159">
        <ele>198</ele>
        <time>2019-01-17T06:50:35Z</time>
      </trkpt>
      <trkpt lat="50.51628" lon="5.81609">
        <ele>198</ele>
        <time>2019-01-17T06:51:35Z</time>
      </trkpt>
      <trkpt lat="50.51601" lon="5.81623">
        <ele>197</ele>
        <time>2019-01-17T06:52:35Z</time>
      </trkpt>
      <trkpt lat="50.51573" lon="5.81641">
        <ele>197</ele>
        <time>2019-01-17T06:53:35Z</time>
      </trkpt>
      <trkpt lat="50.5155" lon="5.81661">
        <ele>197</ele>
        <time>2019-01-17T06:54:35Z</time>
      </trkpt>
      <trkpt lat="50.51505" lon="5.81701">
        <ele>198</ele>
        <time>2019-01-17T06:55:35Z</time>
      </trkpt>
      <trkpt lat="50.51489" lon="5.81718">
        <ele>198</ele>
        <time>2019-01-17T06:56:35Z</time>
      </trkpt>
      <trkpt lat="50.51473" lon="5.81742">
        <ele>197</ele>
        <time>2019-01-17T06:57:35Z</time>
      </trkpt>
      <trkpt lat="50.51431" lon="5.81798">
        <ele>197</ele>
        <time>2019-01-17T06:58:35Z</time>
      </trkpt>
      <trkpt lat="50.51417" lon="5.81816">
        <ele>196</ele>
        <time>2019-01-17T06:59:35Z</time>
      </trkpt>
      <trkpt lat="50.514" lon="5.81839">
        <ele>195</ele>
        <time>2019-01-17T07:00:35Z</time>
      </trkpt>
      <trkpt lat="50.51343" lon="5.81907">
        <ele>190</ele>
        <time>2019-01-17T07:01:35Z</time>
      </trkpt>
      <trkpt lat="50.51317" lon="5.8194">
        <ele>193</ele>
        <time>2019-01-17T07:02:35Z</time>
      </trkpt>
      <trkpt lat="50.51266" lon="5.82002">
        <ele>204</ele>
        <time>2019-01-17T07:03:35Z</time>
      </trkpt>
      <trkpt lat="50.51249" lon="5.82043">
        <ele>204</ele>
        <time>2019-01-17T07:04:35Z</time>
      </trkpt>
      <trkpt lat="50.51237" lon="5.82073">
        <ele>206</ele>
        <time>2019-01-17T07:05:35Z</time>
      </trkpt>
      <trkpt lat="50.51217" lon="5.82139">
        <ele>209</ele>
        <time>2019-01-17T07:06:35Z</time>
      </trkpt>
      <trkpt lat="50.51199" lon="5.82206">
        <ele>211</ele>
        <time>2019-01-17T07:07:35Z</time>
      </trkpt>
      <trkpt lat="50.5118" lon="5.8229">
        <ele>211</ele>
        <time>2019-01-17T07:08:35Z</time>
      </trkpt>
      <trkpt lat="50.51171" lon="5.82347">
        <ele>208</ele>
        <time>2019-01-17T07:09:35Z</time>
      </trkpt>
      <trkpt lat="50.51166" lon="5.82382">
        <ele>206</ele>
        <time>2019-01-17T07:10:35Z</time>
      </trkpt>
      <trkpt lat="50.5116" lon="5.82405">
        <ele>205</ele>
        <time>2019-01-17T07:11:35Z</time>
      </trkpt>
      <trkpt lat="50.51156" lon="5.82419">
        <ele>204</ele>
        <time>2019-01-17T07:12:35Z</time>
      </trkpt>
      <trkpt lat="50.51148" lon="5.82435">
        <ele>203</ele>
        <time>2019-01-17T07:13:35Z</time>
      </trkpt>
      <trkpt lat="50.51141" lon="5.82448">
        <ele>203</ele>
        <time>2019-01-17T07:14:35Z</time>
      </trkpt>
      <trkpt lat="50.51133" lon="5.82459">
        <ele>202</ele>
        <time>2019-01-17T07:15:35Z</time>
      </trkpt>
      <trkpt lat="50.5112" lon="5.82471">
        <ele>202</ele>
        <time>2019-01-17T07:16:35Z</time>
      </trkpt>
      <trkpt lat="50.51105" lon="5.82481">
        <ele>202</ele>
        <time>2019-01-17T07:17:35Z</time>
      </trkpt>
      <trkpt lat="50.51084" lon="5.82484">
        <ele>203</ele>
        <time>2019-01-17T07:18:35Z</time>
      </trkpt>
      <trkpt lat="50.51066" lon="5.82482">
        <ele>203</ele>
        <time>2019-01-17T07:19:35Z</time>
      </trkpt>
      <trkpt lat="50.51052" lon="5.82478">
        <ele>204</ele>
        <time>2019-01-17T07:20:35Z</time>
      </trkpt>
      <trkpt lat="50.50966" lon="5.82433">
        <ele>212</ele>
        <time>2019-01-17T07:21:35Z</time>
      </trkpt>
      <trkpt lat="50.50925" lon="5.8243">
        <ele>209</ele>
        <time>2019-01-17T07:22:35Z</time>
      </trkpt>
      <trkpt lat="50.50866" lon="5.82447">
        <ele>208</ele>
        <time>2019-01-17T07:23:35Z</time>
      </trkpt>
      <trkpt lat="50.50797" lon="5.82475">
        <ele>206</ele>
        <time>2019-01-17T07:24:35Z</time>
      </trkpt>
      <trkpt lat="50.50763" lon="5.82489">
        <ele>205</ele>
        <time>2019-01-17T07:25:35Z</time>
      </trkpt>
      <trkpt lat="50.50718" lon="5.82501">
        <ele>208</ele>
        <time>2019-01-17T07:26:35Z</time>
      </trkpt>
      <trkpt lat="50.50665" lon="5.82509">
        <ele>214</ele>
        <time>2019-01-17T07:27:35Z</time>
      </trkpt>
      <trkpt lat="50.50613" lon="5.82536">
        <ele>215</ele>
        <time>2019-01-17T07:28:35Z</time>
      </trkpt>
      <trkpt lat="50.50576" lon="5.82556">
        <ele>216</ele>
        <time>2019-01-17T07:29:35Z</time>
      </trkpt>
      <trkpt lat="50.50564" lon="5.82564">
        <ele>216</ele>
        <time>2019-01-17T07:30:35Z</time>
      </trkpt>
      <trkpt lat="50.5054" lon="5.82586">
        <ele>214</ele>
        <time>2019-01-17T07:31:35Z</time>
      </trkpt>
      <trkpt lat="50.50522" lon="5.82604">
        <ele>214</ele>
        <time>2019-01-17T07:32:35Z</time>
      </trkpt>
      <trkpt lat="50.50488" lon="5.82641">
        <ele>212</ele>
        <time>2019-01-17T07:33:35Z</time>
      </trkpt>
      <trkpt lat="50.5048" lon="5.82651">
        <ele>212</ele>
        <time>2019-01-17T07:34:35Z</time>
      </trkpt>
      <trkpt lat="50.50423" lon="5.82715">
        <ele>212</ele>
        <time>2019-01-17T07:35:35Z</time>
      </trkpt>
      <trkpt lat="50.50399" lon="5.82748">
        <ele>212</ele>
        <time>2019-01-17T07:36:35Z</time>
      </trkpt>
      <trkpt lat="50.50385" lon="5.82769">
        <ele>215</ele>
        <time>2019-01-17T07:37:35Z</time>
      </trkpt>
      <trkpt lat="50.50357" lon="5.82821">
        <ele>218</ele>
        <time>2019-01-17T07:38:35Z</time>
      </trkpt>
      <trkpt lat="50.50328" lon="5.82881">
        <ele>218</ele>
        <time>2019-01-17T07:39:35Z</time>
      </trkpt>
      <trkpt lat="50.50309" lon="5.82918">
        <ele>221</ele>
        <time>2019-01-17T07:40:35Z</time>
      </trkpt>
      <trkpt lat="50.50297" lon="5.82945">
        <ele>222</ele>
        <time>2019-01-17T07:41:35Z</time>
      </trkpt>
      <trkpt lat="50.50283" lon="5.82967">
        <ele>223</ele>
        <time>2019-01-17T07:42:35Z</time>
      </trkpt>
      <trkpt lat="50.50269" lon="5.82989">
        <ele>222</ele>
        <time>2019-01-17T07:43:35Z</time>
      </trkpt>
      <trkpt lat="50.50255" lon="5.83008">
        <ele>221</ele>
        <time>2019-01-17T07:44:35Z</time>
      </trkpt>
      <trkpt lat="50.50235" lon="5.83034">
        <ele>220</ele>
        <time>2019-01-17T07:45:35Z</time>
      </trkpt>
      <trkpt lat="50.50225" lon="5.83045">
        <ele>220</ele>
        <time>2019-01-17T07:46:35Z</time>
      </trkpt>
      <trkpt lat="50.50217" lon="5.83052">
        <ele>219</ele>
        <time>2019-01-17T07:47:35Z</time>
      </trkpt>
      <trkpt lat="50.50204" lon="5.83064">
        <ele>219</ele>
        <time>2019-01-17T07:48:35Z</time>
      </trkpt>
      <trkpt lat="50.50194" lon="5.83072">
        <ele>218</ele>
        <time>2019-01-17T07:49:35Z</time>
      </trkpt>
      <trkpt lat="50.50177" lon="5.83084">
        <ele>217</ele>
        <time>2019-01-17T07:50:35Z</time>
      </trkpt>
      <trkpt lat="50.50153" lon="5.83098">
        <ele>219</ele>
        <time>2019-01-17T07:51:35Z</time>
      </trkpt>
      <trkpt lat="50.50137" lon="5.83102">
        <ele>220</ele>
        <time>2019-01-17T07:52:35Z</time>
      </trkpt>
      <trkpt lat="50.50115" lon="5.83109">
        <ele>221</ele>
        <time>2019-01-17T07:53:35Z</time>
      </trkpt>
      <trkpt lat="50.50102" lon="5.83111">
        <ele>221</ele>
        <time>2019-01-17T07:54:35Z</time>
      </trkpt>
      <trkpt lat="50.5008" lon="5.83106">
        <ele>222</ele>
        <time>2019-01-17T07:55:35Z</time>
      </trkpt>
      <trkpt lat="50.50062" lon="5.83098">
        <ele>221</ele>
        <time>2019-01-17T07:56:35Z</time>
      </trkpt>
      <trkpt lat="50.50036" lon="5.83084">
        <ele>219</ele>
        <time>2019-01-17T07:57:35Z</time>
      </trkpt>
      <trkpt lat="50.49981" lon="5.83051">
        <ele>223</ele>
        <time>2019-01-17T07:58:35Z</time>
      </trkpt>
      <trkpt lat="50.4994" lon="5.83027">
        <ele>225</ele>
        <time>2019-01-17T07:59:35Z</time>
      </trkpt>
      <trkpt lat="50.49934" lon="5.83024">
        <ele>225</ele>
        <time>2019-01-17T08:00:35Z</time>
      </trkpt>
      <trkpt lat="50.49906" lon="5.83012">
        <ele>224</ele>
        <time>2019-01-17T08:01:35Z</time>
      </trkpt>
      <trkpt lat="50.49889" lon="5.83005">
        <ele>223</ele>
        <time>2019-01-17T08:02:35Z</time>
      </trkpt>
      <trkpt lat="50.49806" lon="5.82971">
        <ele>224</ele>
        <time>2019-01-17T08:03:35Z</time>
      </trkpt>
      <trkpt lat="50.49771" lon="5.82952">
        <ele>228</ele>
        <time>2019-01-17T08:04:35Z</time>
      </trkpt>
      <trkpt lat="50.49738" lon="5.82934">
        <ele>229</ele>
        <time>2019-01-17T08:05:35Z</time>
      </trkpt>
      <trkpt lat="50.4969" lon="5.82902">
        <ele>229</ele>
        <time>2019-01-17T08:06:35Z</time>
      </trkpt>
      <trkpt lat="50.4962" lon="5.82858">
        <ele>233</ele>
        <time>2019-01-17T08:07:35Z</time>
      </trkpt>
      <trkpt lat="50.49584" lon="5.82843">
        <ele>232</ele>
        <time>2019-01-17T08:08:35Z</time>
      </trkpt>
      <trkpt lat="50.4956" lon="5.82838">
        <ele>232</ele>
        <time>2019-01-17T08:09:35Z</time>
      </trkpt>
      <trkpt lat="50.49524" lon="5.82834">
        <ele>233</ele>
        <time>2019-01-17T08:10:35Z</time>
      </trkpt>
      <trkpt lat="50.49486" lon="5.82841">
        <ele>234</ele>
        <time>2019-01-17T08:11:35Z</time>
      </trkpt>
      <trkpt lat="50.49461" lon="5.82855">
        <ele>235</ele>
        <time>2019-01-17T08:12:35Z</time>
      </trkpt>
      <trkpt lat="50.4945" lon="5.82865">
        <ele>235</ele>
        <time>2019-01-17T08:13:35Z</time>
      </trkpt>
      <trkpt lat="50.49427" lon="5.8289">
        <ele>231</ele>
        <time>2019-01-17T08:14:35Z</time>
      </trkpt>
      <trkpt lat="50.49383" lon="5.82944">
        <ele>229</ele>
        <time>2019-01-17T08:15:35Z</time>
      </trkpt>
      <trkpt lat="50.49346" lon="5.8299">
        <ele>226</ele>
        <time>2019-01-17T08:16:35Z</time>
      </trkpt>
      <trkpt lat="50.49327" lon="5.83003">
        <ele>225</ele>
        <time>2019-01-17T08:17:35Z</time>
      </trkpt>
      <trkpt lat="50.49301" lon="5.83019">
        <ele>229</ele>
        <time>2019-01-17T08:18:35Z</time>
      </trkpt>
      <trkpt lat="50.49231" lon="5.83061">
        <ele>229</ele>
        <time>2019-01-17T08:19:35Z</time>
      </trkpt>
      <trkpt lat="50.49191" lon="5.8308">
        <ele>226</ele>
        <time>2019-01-17T08:20:35Z</time>
      </trkpt>
      <trkpt lat="50.49161" lon="5.83091">
        <ele>227</ele>
        <time>2019-01-17T08:21:35Z</time>
      </trkpt>
      <trkpt lat="50.49141" lon="5.83094">
        <ele>226</ele>
        <time>2019-01-17T08:22:35Z</time>
      </trkpt>
      <trkpt lat="50.4909" lon="5.83085">
        <ele>223</ele>
        <time>2019-01-17T08:23:35Z</time>
      </trkpt>
      <trkpt lat="50.49064" lon="5.8308">
        <ele>222</ele>
        <time>2019-01-17T08:24:35Z</time>
      </trkpt>
      <trkpt lat="50.49036" lon="5.83076">
        <ele>221</ele>
        <time>2019-01-17T08:25:35Z</time>
      </trkpt>
      <trkpt lat="50.49034" lon="5.83053">
        <ele>223</ele>
        <time>2019-01-17T08:26:35Z</time>
      </trkpt>
      <trkpt lat="50.49029" lon="5.83042">
        <ele>224</ele>
        <time>2019-01-17T08:27:35Z</time>
      </trkpt>
      <trkpt lat="50.49012" lon="5.83019">
        <ele>224</ele>
        <time>2019-01-17T08:28:35Z</time>
      </trkpt>
      <trkpt lat="50.48999" lon="5.83001">
        <ele>224</ele>
        <time>2019-01-17T08:29:35Z</time>
      </trkpt>
      <trkpt lat="50.48989" lon="5.82981">
        <ele>227</ele>
        <time>2019-01-17T08:30:35Z</time>
      </trkpt>
      <trkpt lat="50.48979" lon="5.82968">
        <ele>228</ele>
        <time>2019-01-17T08:31:35Z</time>
      </trkpt>
      <trkpt lat="50.48951" lon="5.82939">
        <ele>229</ele>
        <time>2019-01-17T08:32:35Z</time>
      </trkpt>
      <trkpt lat="50.48929" lon="5.82921">
        <ele>227</ele>
        <time>2019-01-17T08:33:35Z</time>
      </trkpt>
      <trkpt lat="50.48894" lon="5.82897">
        <ele>228</ele>
        <time>2019-01-17T08:34:35Z</time>
      </trkpt>
      <trkpt lat="50.48868" lon="5.82877">
        <ele>231</ele>
        <time>2019-01-17T08:35:35Z</time>
      </trkpt>
      <trkpt lat="50.48836" lon="5.82857">
        <ele>232</ele>
        <time>2019-01-17T08:36:35Z</time>
      </trkpt>
      <trkpt lat="50.48816" lon="5.8285">
        <ele>233</ele>
        <time>2019-01-17T08:37:35Z</time>
      </trkpt>
      <trkpt lat="50.48805" lon="5.82848">
        <ele>234</ele>
        <time>2019-01-17T08:38:35Z</time>
      </trkpt>
      <trkpt lat="50.48793" lon="5.82847">
        <ele>234</ele>
        <time>2019-01-17T08:39:35Z</time>
      </trkpt>
      <trkpt lat="50.48779" lon="5.82848">
        <ele>235</ele>
        <time>2019-01-17T08:40:35Z</time>
      </trkpt>
      <trkpt lat="50.48744" lon="5.82854">
        <ele>236</ele>
        <time>2019-01-17T08:41:35Z</time>
      </trkpt>
      <trkpt lat="50.48729" lon="5.82857">
        <ele>236</ele>
        <time>2019-01-17T08:42:35Z</time>
      </trkpt>
      <trkpt lat="50.48647" lon="5.82876">
        <ele>239</ele>
        <time>2019-01-17T08:43:35Z</time>
      </trkpt>
      <trkpt lat="50.48647" lon="5.82867">
        <ele>239</ele>
        <time>2019-01-17T08:44:35Z</time>
      </trkpt>
      <trkpt lat="50.48651" lon="5.82857">
        <ele>240</ele>
        <time>2019-01-17T08:45:35Z</time>
      </trkpt>
      <trkpt lat="50.48665" lon="5.82847">
        <ele>239</ele>
        <time>2019-01-17T08:46:35Z</time>
      </trkpt>
      <trkpt lat="50.48681" lon="5.82835">
        <ele>239</ele>
        <time>2019-01-17T08:47:35Z</time>
      </trkpt>
      <trkpt lat="50.4878" lon="5.8277">
        <ele>250</ele>
        <time>2019-01-17T08:48:35Z</time>
      </trkpt>
      <trkpt lat="50.48799" lon="5.82765">
        <ele>250</ele>
        <time>2019-01-17T08:49:35Z</time>
      </trkpt>
      <trkpt lat="50.48814" lon="5.82764">
        <ele>250</ele>
        <time>2019-01-17T08:50:35Z</time>
      </trkpt>
      <trkpt lat="50.48831" lon="5.82767">
        <ele>248</ele>
        <time>2019-01-17T08:51:35Z</time>
      </trkpt>
      <trkpt lat="50.48848" lon="5.82773">
        <ele>247</ele>
        <time>2019-01-17T08:52:35Z</time>
      </trkpt>
      <trkpt lat="50.48861" lon="5.82778">
        <ele>246</ele>
        <time>2019-01-17T08:53:35Z</time>
      </trkpt>
      <trkpt lat="50.48875" lon="5.8278">
        <ele>246</ele>
        <time>2019-01-17T08:54:35Z</time>
      </trkpt>
      <trkpt lat="50.48884" lon="5.82771">
        <ele>248</ele>
        <time>2019-01-17T08:55:35Z</time>
      </trkpt>
      <trkpt lat="50.48889" lon="5.82758">
        <ele>251</ele>
        <time>2019-01-17T08:56:35Z</time>
      </trkpt>
      <trkpt lat="50.48892" lon="5.82741">
        <ele>253</ele>
        <time>2019-01-17T08:57:35Z</time>
      </trkpt>
      <trkpt lat="50.48896" lon="5.82725">
        <ele>254</ele>
        <time>2019-01-17T08:58:35Z</time>
      </trkpt>
      <trkpt lat="50.48919" lon="5.82716">
        <ele>254</ele>
        <time>2019-01-17T08:59:35Z</time>
      </trkpt>
      <trkpt lat="50.48932" lon="5.82725">
        <ele>254</ele>
        <time>2019-01-17T09:00:35Z</time>
      </trkpt>
      <trkpt lat="50.48942" lon="5.82741">
        <ele>254</ele>
        <time>2019-01-17T09:01:35Z</time>
      </trkpt>
      <trkpt lat="50.48954" lon="5.82748">
        <ele>254</ele>
        <time>2019-01-17T09:02:35Z</time>
      </trkpt>
      <trkpt lat="50.4897" lon="5.82744">
        <ele>254</ele>
        <time>2019-01-17T09:03:35Z</time>
      </trkpt>
      <trkpt lat="50.48975" lon="5.82738">
        <ele>255</ele>
        <time>2019-01-17T09:04:35Z</time>
      </trkpt>
      <trkpt lat="50.48984" lon="5.82717">
        <ele>255</ele>
        <time>2019-01-17T09:05:35Z</time>
      </trkpt>
      <trkpt lat="50.48985" lon="5.82693">
        <ele>256</ele>
        <time>2019-01-17T09:06:35Z</time>
      </trkpt>
      <trkpt lat="50.48965" lon="5.82535">
        <ele>262</ele>
        <time>2019-01-17T09:07:35Z</time>
      </trkpt>
      <trkpt lat="50.48962" lon="5.82514">
        <ele>264</ele>
        <time>2019-01-17T09:08:35Z</time>
      </trkpt>
      <trkpt lat="50.48956" lon="5.82491">
        <ele>266</ele>
        <time>2019-01-17T09:09:35Z</time>
      </trkpt>
      <trkpt lat="50.48951" lon="5.82477">
        <ele>266</ele>
        <time>2019-01-17T09:10:35Z</time>
      </trkpt>
      <trkpt lat="50.48942" lon="5.82461">
        <ele>267</ele>
        <time>2019-01-17T09:11:35Z</time>
      </trkpt>
      <trkpt lat="50.48933" lon="5.82449">
        <ele>268</ele>
        <time>2019-01-17T09:12:35Z</time>
      </trkpt>
      <trkpt lat="50.48923" lon="5.8244">
        <ele>269</ele>
        <time>2019-01-17T09:13:35Z</time>
      </trkpt>
      <trkpt lat="50.4886" lon="5.82404">
        <ele>272</ele>
        <time>2019-01-17T09:14:35Z</time>
      </trkpt>
      <trkpt lat="50.48806" lon="5.82367">
        <ele>276</ele>
        <time>2019-01-17T09:15:35Z</time>
      </trkpt>
      <trkpt lat="50.48786" lon="5.82352">
        <ele>278</ele>
        <time>2019-01-17T09:16:35Z</time>
      </trkpt>
      <trkpt lat="50.48774" lon="5.82337">
        <ele>279</ele>
        <time>2019-01-17T09:17:35Z</time>
      </trkpt>
      <trkpt lat="50.4877" lon="5.82327">
        <ele>279</ele>
        <time>2019-01-17T09:18:35Z</time>
      </trkpt>
      <trkpt lat="50.48767" lon="5.82309">
        <ele>279</ele>
        <time>2019-01-17T09:19:35Z</time>
      </trkpt>
      <trkpt lat="50.48766" lon="5.8218">
        <ele>282</ele>
        <time>2019-01-17T09:20:35Z</time>
      </trkpt>
      <trkpt lat="50.48766" lon="5.82105">
        <ele>286</ele>
        <time>2019-01-17T09:21:35Z</time>
      </trkpt>
      <trkpt lat="50.48766" lon="5.82078">
        <ele>287</ele>
        <time>2019-01-17T09:22:35Z</time>
      </trkpt>
      <trkpt lat="50.48769" lon="5.82058">
        <ele>289</ele>
        <time>2019-01-17T09:23:35Z</time>
      </trkpt>
      <trkpt lat="50.48772" lon="5.82047">
        <ele>289</ele>
        <time>2019-01-17T09:24:35Z</time>
      </trkpt>
      <trkpt lat="50.48778" lon="5.82031">
        <ele>291</ele>
        <time>2019-01-17T09:25:35Z</time>
      </trkpt>
      <trkpt lat="50.4879" lon="5.82013">
        <ele>292</ele>
        <time>2019-01-17T09:26:35Z</time>
      </trkpt>
      <trkpt lat="50.48876" lon="5.81931">
        <ele>298</ele>
        <time>2019-01-17T09:27:35Z</time>
      </trkpt>
      <trkpt lat="50.48949" lon="5.81858">
        <ele>307</ele>
        <time>2019-01-17T09:28:35Z</time>
      </trkpt>
      <trkpt lat="50.48972" lon="5.81837">
        <ele>310</ele>
        <time>2019-01-17T09:29:35Z</time>
      </trkpt>
      <trkpt lat="50.48992" lon="5.81821">
        <ele>313</ele>
        <time>2019-01-17T09:30:35Z</time>
      </trkpt>
      <trkpt lat="50.49008" lon="5.81818">
        <ele>315</ele>
        <time>2019-01-17T09:31:35Z</time>
      </trkpt>
      <trkpt lat="50.49019" lon="5.81818">
        <ele>316</ele>
        <time>2019-01-17T09:32:35Z</time>
      </trkpt>
      <trkpt lat="50.49033" lon="5.81821">
        <ele>317</ele>
        <time>2019-01-17T09:33:35Z</time>
      </trkpt>
      <trkpt lat="50.49047" lon="5.81829">
        <ele>318</ele>
        <time>2019-01-17T09:34:35Z</time>
      </trkpt>
      <trkpt lat="50.49067" lon="5.81846">
        <ele>318</ele>
        <time>2019-01-17T09:35:35Z</time>
      </trkpt>
      <trkpt lat="50.49095" lon="5.81877">
        <ele>318</ele>
        <time>2019-01-17T09:36:35Z</time>
      </trkpt>
      <trkpt lat="50.49126" lon="5.81906">
        <ele>318</ele>
        <time>2019-01-17T09:37:35Z</time>
      </trkpt>
      <trkpt lat="50.49149" lon="5.8193">
        <ele>319</ele>
        <time>2019-01-17T09:38:35Z</time>
      </trkpt>
      <trkpt lat="50.49155" lon="5.81935">
        <ele>320</ele>
        <time>2019-01-17T09:39:35Z</time>
      </trkpt>
      <trkpt lat="50.49163" lon="5.81931">
        <ele>321</ele>
        <time>2019-01-17T09:40:35Z</time>
      </trkpt>
      <trkpt lat="50.49162" lon="5.81923">
        <ele>321</ele>
        <time>2019-01-17T09:41:35Z</time>
      </trkpt>
      <trkpt lat="50.4916" lon="5.81915">
        <ele>321</ele>
        <time>2019-01-17T09:42:35Z</time>
      </trkpt>
      <trkpt lat="50.49157" lon="5.81907">
        <ele>322</ele>
        <time>2019-01-17T09:43:35Z</time>
      </trkpt>
      <trkpt lat="50.49148" lon="5.81889">
        <ele>322</ele>
        <time>2019-01-17T09:44:35Z</time>
      </trkpt>
      <trkpt lat="50.49138" lon="5.81866">
        <ele>324</ele>
        <time>2019-01-17T09:45:35Z</time>
      </trkpt>
      <trkpt lat="50.49128" lon="5.8184">
        <ele>325</ele>
        <time>2019-01-17T09:46:35Z</time>
      </trkpt>
      <trkpt lat="50.4912" lon="5.81807">
        <ele>328</ele>
        <time>2019-01-17T09:47:35Z</time>
      </trkpt>
      <trkpt lat="50.49106" lon="5.81761">
        <ele>332</ele>
        <time>2019-01-17T09:48:35Z</time>
      </trkpt>
      <trkpt lat="50.49087" lon="5.81719">
        <ele>335</ele>
        <time>2019-01-17T09:49:35Z</time>
      </trkpt>
      <trkpt lat="50.49067" lon="5.81684">
        <ele>337</ele>
        <time>2019-01-17T09:50:35Z</time>
      </trkpt>
      <trkpt lat="50.49058" lon="5.81668">
        <ele>338</ele>
        <time>2019-01-17T09:51:35Z</time>
      </trkpt>
      <trkpt lat="50.49041" lon="5.81646">
        <ele>339</ele>
        <time>2019-01-17T09:52:35Z</time>
      </trkpt>
      <trkpt lat="50.49008" lon="5.81601">
        <ele>342</ele>
        <time>2019-01-17T09:53:35Z</time>
      </trkpt>
      <trkpt lat="50.48981" lon="5.81571">
        <ele>344</ele>
        <time>2019-01-17T09:54:35Z</time>
      </trkpt>
      <trkpt lat="50.48976" lon="5.81567">
        <ele>344</ele>
        <time>2019-01-17T09:55:35Z</time>
      </trkpt>
      <trkpt lat="50.48954" lon="5.81545">
        <ele>346</ele>
        <time>2019-01-17T09:56:35Z</time>
      </trkpt>
      <trkpt lat="50.48939" lon="5.81524">
        <ele>347</ele>
        <time>2019-01-17T09:57:35Z</time>
      </trkpt>
      <trkpt lat="50.48926" lon="5.81504">
        <ele>348</ele>
        <time>2019-01-17T09:58:35Z</time>
      </trkpt>
      <trkpt lat="50.48909" lon="5.81463">
        <ele>350</ele>
        <time>2019-01-17T09:59:35Z</time>
      </trkpt>
      <trkpt lat="50.48875" lon="5.81352">
        <ele>356</ele>
        <time>2019-01-17T10:00:35Z</time>
      </trkpt>
      <trkpt lat="50.48852" lon="5.81277">
        <ele>358</ele>
        <time>2019-01-17T10:01:35Z</time>
      </trkpt>
      <trkpt lat="50.48829" lon="5.81205">
        <ele>358</ele>
        <time>2019-01-17T10:02:35Z</time>
      </trkpt>
      <trkpt lat="50.48823" lon="5.81183">
        <ele>359</ele>
        <time>2019-01-17T10:03:35Z</time>
      </trkpt>
      <trkpt lat="50.48818" lon="5.81156">
        <ele>359</ele>
        <time>2019-01-17T10:04:35Z</time>
      </trkpt>
      <trkpt lat="50.48816" lon="5.81122">
        <ele>361</ele>
        <time>2019-01-17T10:05:35Z</time>
      </trkpt>
      <trkpt lat="50.48818" lon="5.81081">
        <ele>363</ele>
        <time>2019-01-17T10:06:35Z</time>
      </trkpt>
      <trkpt lat="50.48824" lon="5.81054">
        <ele>365</ele>
        <time>2019-01-17T10:07:35Z</time>
      </trkpt>
      <trkpt lat="50.48833" lon="5.81028">
        <ele>368</ele>
        <time>2019-01-17T10:08:35Z</time>
      </trkpt>
      <trkpt lat="50.4885" lon="5.80981">
        <ele>372</ele>
        <time>2019-01-17T10:09:35Z</time>
      </trkpt>
      <trkpt lat="50.4888" lon="5.80908">
        <ele>372</ele>
        <time>2019-01-17T10:10:35Z</time>
      </trkpt>
      <trkpt lat="50.48892" lon="5.80882">
        <ele>370</ele>
        <time>2019-01-17T10:11:35Z</time>
      </trkpt>
      <trkpt lat="50.48901" lon="5.80873">
        <ele>368</ele>
        <time>2019-01-17T10:12:35Z</time>
      </trkpt>
      <trkpt lat="50.48888" lon="5.80855">
        <ele>369</ele>
        <time>2019-01-17T10:13:35Z</time>
      </trkpt>
      <trkpt lat="50.48806" lon="5.80752">
        <ele>369</ele>
        <time>2019-01-17T10:14:35Z</time>
      </trkpt>
      <trkpt lat="50.48765" lon="5.80699">
        <ele>369</ele>
        <time>2019-01-17T10:15:35Z</time>
      </trkpt>
      <trkpt lat="50.48648" lon="5.80538">
        <ele>369</ele>
        <time>2019-01-17T10:16:35Z</time>
      </trkpt>
      <trkpt lat="50.48596" lon="5.80466">
        <ele>370</ele>
        <time>2019-01-17T10:17:35Z</time>
      </trkpt>
      <trkpt lat="50.48446" lon="5.80263">
        <ele>372</ele>
        <time>2019-01-17T10:18:35Z</time>
      </trkpt>
      <trkpt lat="50.48421" lon="5.80226">
        <ele>374</ele>
        <time>2019-01-17T10:19:35Z</time>
      </trkpt>
      <trkpt lat="50.48383" lon="5.8018">
        <ele>374</ele>
        <time>2019-01-17T10:20:35Z</time>
      </trkpt>
      <trkpt lat="50.48364" lon="5.80157">
        <ele>373</ele>
        <time>2019-01-17T10:21:35Z</time>
      </trkpt>
      <trkpt lat="50.48354" lon="5.8015">
        <ele>373</ele>
        <time>2019-01-17T10:22:35Z</time>
      </trkpt>
      <trkpt lat="50.48326" lon="5.80131">
        <ele>373</ele>
        <time>2019-01-17T10:23:35Z</time>
      </trkpt>
      <trkpt lat="50.48299" lon="5.80116">
        <ele>373</ele>
        <time>2019-01-17T10:24:35Z</time>
      </trkpt>
      <trkpt lat="50.48271" lon="5.80107">
        <ele>375</ele>
        <time>2019-01-17T10:25:35Z</time>
      </trkpt>
      <trkpt lat="50.48188" lon="5.80086">
        <ele>378</ele>
        <time>2019-01-17T10:26:35Z</time>
      </trkpt>
      <trkpt lat="50.48144" lon="5.80078">
        <ele>379</ele>
        <time>2019-01-17T10:27:35Z</time>
      </trkpt>
      <trkpt lat="50.4812" lon="5.8007">
        <ele>379</ele>
        <time>2019-01-17T10:28:35Z</time>
      </trkpt>
      <trkpt lat="50.48111" lon="5.80063">
        <ele>379</ele>
        <time>2019-01-17T10:29:35Z</time>
      </trkpt>
      <trkpt lat="50.48095" lon="5.80049">
        <ele>379</ele>
        <time>2019-01-17T10:30:35Z</time>
      </trkpt>
      <trkpt lat="50.48085" lon="5.80039">
        <ele>379</ele>
        <time>2019-01-17T10:31:35Z</time>
      </trkpt>
      <trkpt lat="50.48012" lon="5.79929">
        <ele>380</ele>
        <time>2019-01-17T10:32:35Z</time>
      </trkpt>
      <trkpt lat="50.48004" lon="5.7992">
        <ele>380</ele>
        <time>2019-01-17T10:33:35Z</time>
      </trkpt>
      <trkpt lat="50.47987" lon="5.79906">
        <ele>379</ele>
        <time>2019-01-17T10:34:35Z</time>
      </trkpt>
      <trkpt lat="50.47943" lon="5.79876">
        <ele>379</ele>
        <time>2019-01-17T10:35:35Z</time>
      </trkpt>
      <trkpt lat="50.47892" lon="5.79844">
        <ele>378</ele>
        <time>2019-01-17T10:36:35Z</time>
      </trkpt>
      <trkpt lat="50.47865" lon="5.79831">
        <ele>378</ele>
        <time>2019-01-17T10:37:35Z</time>
      </trkpt>
      <trkpt lat="50.47852" lon="5.79822">
        <ele>378</ele>
        <time>2019-01-17T10:38:35Z</time>
      </trkpt>
      <trkpt lat="50.47808" lon="5.79814">
        <ele>378</ele>
        <time>2019-01-17T10:39:35Z</time>
      </trkpt>
      <trkpt lat="50.4778" lon="5.79821">
        <ele>378</ele>
        <time>2019-01-17T10:40:35Z</time>
      </trkpt>
      <trkpt lat="50.47764" lon="5.7982">
        <ele>378</ele>
        <time>2019-01-17T10:41:35Z</time>
      </trkpt>
      <trkpt lat="50.47755" lon="5.79817">
        <ele>378</ele>
        <time>2019-01-17T10:42:35Z</time>
      </trkpt>
      <trkpt lat="50.47687" lon="5.79776">
        <ele>378</ele>
        <time>2019-01-17T10:43:35Z</time>
      </trkpt>
      <trkpt lat="50.47665" lon="5.7976">
        <ele>378</ele>
        <time>2019-01-17T10:44:35Z</time>
      </trkpt>
      <trkpt lat="50.47646" lon="5.79738">
        <ele>377</ele>
        <time>2019-01-17T10:45:35Z</time>
      </trkpt>
      <trkpt lat="50.47628" lon="5.79712">
        <ele>376</ele>
        <time>2019-01-17T10:46:35Z</time>
      </trkpt>
      <trkpt lat="50.47614" lon="5.79687">
        <ele>376</ele>
        <time>2019-01-17T10:47:35Z</time>
      </trkpt>
      <trkpt lat="50.47595" lon="5.79647">
        <ele>376</ele>
        <time>2019-01-17T10:48:35Z</time>
      </trkpt>
      <trkpt lat="50.47577" lon="5.79616">
        <ele>377</ele>
        <time>2019-01-17T10:49:35Z</time>
      </trkpt>
      <trkpt lat="50.47545" lon="5.79572">
        <ele>377</ele>
        <time>2019-01-17T10:50:35Z</time>
      </trkpt>
      <trkpt lat="50.47539" lon="5.7956">
        <ele>378</ele>
        <time>2019-01-17T10:51:35Z</time>
      </trkpt>
      <trkpt lat="50.47533" lon="5.79545">
        <ele>378</ele>
        <time>2019-01-17T10:52:35Z</time>
      </trkpt>
      <trkpt lat="50.47507" lon="5.7949">
        <ele>381</ele>
        <time>2019-01-17T10:53:35Z</time>
      </trkpt>
      <trkpt lat="50.47499" lon="5.79467">
        <ele>383</ele>
        <time>2019-01-17T10:54:35Z</time>
      </trkpt>
      <trkpt lat="50.47495" lon="5.79451">
        <ele>384</ele>
        <time>2019-01-17T10:55:35Z</time>
      </trkpt>
      <trkpt lat="50.47495" lon="5.79434">
        <ele>385</ele>
        <time>2019-01-17T10:56:35Z</time>
      </trkpt>
      <trkpt lat="50.47498" lon="5.79408">
        <ele>386</ele>
        <time>2019-01-17T10:57:35Z</time>
      </trkpt>
      <trkpt lat="50.47507" lon="5.79353">
        <ele>388</ele>
        <time>2019-01-17T10:58:35Z</time>
      </trkpt>
      <trkpt lat="50.47523" lon="5.79292">
        <ele>389</ele>
        <time>2019-01-17T10:59:35Z</time>
      </trkpt>
      <trkpt lat="50.47576" lon="5.791">
        <ele>390</ele>
        <time>2019-01-17T11:00:35Z</time>
      </trkpt>
      <trkpt lat="50.47587" lon="5.79057">
        <ele>390</ele>
        <time>2019-01-17T11:01:35Z</time>
      </trkpt>
      <trkpt lat="50.47593" lon="5.79029">
        <ele>389</ele>
        <time>2019-01-17T11:02:35Z</time>
      </trkpt>
      <trkpt lat="50.47609" lon="5.78935">
        <ele>387</ele>
        <time>2019-01-17T11:03:35Z</time>
      </trkpt>
      <trkpt lat="50.47618" lon="5.78881">
        <ele>385</ele>
        <time>2019-01-17T11:04:35Z</time>
      </trkpt>
      <trkpt lat="50.47623" lon="5.78861">
        <ele>385</ele>
        <time>2019-01-17T11:05:35Z</time>
      </trkpt>
      <trkpt lat="50.47635" lon="5.78827">
        <ele>384</ele>
        <time>2019-01-17T11:06:35Z</time>
      </trkpt>
      <trkpt lat="50.47643" lon="5.78803">
        <ele>383</ele>
        <time>2019-01-17T11:07:35Z</time>
      </trkpt>
      <trkpt lat="50.47666" lon="5.78688">
        <ele>382</ele>
        <time>2019-01-17T11:08:35Z</time>
      </trkpt>
      <trkpt lat="50.47682" lon="5.78622">
        <ele>380</ele>
        <time>2019-01-17T11:09:35Z</time>
      </trkpt>
      <trkpt lat="50.47703" lon="5.78546">
        <ele>379</ele>
        <time>2019-01-17T11:10:35Z</time>
      </trkpt>
      <trkpt lat="50.47714" lon="5.78503">
        <ele>379</ele>
        <time>2019-01-17T11:11:35Z</time>
      </trkpt>
      <trkpt lat="50.47719" lon="5.78472">
        <ele>379</ele>
        <time>2019-01-17T11:12:35Z</time>
      </trkpt>
      <trkpt lat="50.47733" lon="5.78386">
        <ele>379</ele>
        <time>2019-01-17T11:13:35Z</time>
      </trkpt>
      <trkpt lat="50.4775" lon="5.78286">
        <ele>378</ele>
        <time>2019-01-17T11:14:35Z</time>
      </trkpt>
      <trkpt lat="50.47761" lon="5.78226">
        <ele>379</ele>
        <time>2019-01-17T11:15:35Z</time>
      </trkpt>
      <trkpt lat="50.47771" lon="5.782">
        <ele>380</ele>
        <time>2019-01-17T11:16:35Z</time>
      </trkpt>
      <trkpt lat="50.47821" lon="5.78115">
        <ele>377</ele>
        <time>2019-01-17T11:17:35Z</time>
      </trkpt>
      <trkpt lat="50.47853" lon="5.78056">
        <ele>378</ele>
        <time>2019-01-17T11:18:35Z</time>
      </trkpt>
      <trkpt lat="50.47873" lon="5.78018">
        <ele>378</ele>
        <time>2019-01-17T11:19:35Z</time>
      </trkpt>
      <trkpt lat="50.47891" lon="5.77995">
        <ele>377</ele>
        <time>2019-01-17T11:20:35Z</time>
      </trkpt>
      <trkpt lat="50.47912" lon="5.77958">
        <ele>377</ele>
        <time>2019-01-17T11:21:35Z</time>
      </trkpt>
      <trkpt lat="50.47923" lon="5.77936">
        <ele>377</ele>
        <time>2019-01-17T11:22:35Z</time>
      </trkpt>
      <trkpt lat="50.47931" lon="5.77914">
        <ele>378</ele>
        <time>2019-01-17T11:23:35Z</time>
      </trkpt>
      <trkpt lat="50.47937" lon="5.77888">
        <ele>379</ele>
        <time>2019-01-17T11:24:35Z</time>
      </trkpt>
      <trkpt lat="50.47949" lon="5.77823">
        <ele>381</ele>
        <time>2019-01-17T11:25:35Z</time>
      </trkpt>
      <trkpt lat="50.47953" lon="5.77805">
        <ele>381</ele>
        <time>2019-01-17T11:26:35Z</time>
      </trkpt>
      <trkpt lat="50.47978" lon="5.77767">
        <ele>380</ele>
        <time>2019-01-17T11:27:35Z</time>
      </trkpt>
      <trkpt lat="50.4801" lon="5.77724">
        <ele>378</ele>
        <time>2019-01-17T11:28:35Z</time>
      </trkpt>
      <trkpt lat="50.48031" lon="5.777">
        <ele>377</ele>
        <time>2019-01-17T11:29:35Z</time>
      </trkpt>
      <trkpt lat="50.48084" lon="5.77653">
        <ele>376</ele>
        <time>2019-01-17T11:30:35Z</time>
      </trkpt>
      <trkpt lat="50.48127" lon="5.77613">
        <ele>376</ele>
        <time>2019-01-17T11:31:35Z</time>
      </trkpt>
      <trkpt lat="50.48136" lon="5.77604">
        <ele>376</ele>
        <time>2019-01-17T11:32:35Z</time>
      </trkpt>
      <trkpt lat="50.48148" lon="5.77585">
        <ele>376</ele>
        <time>2019-01-17T11:33:35Z</time>
      </trkpt>
      <trkpt lat="50.48155" lon="5.77569">
        <ele>377</ele>
        <time>2019-01-17T11:34:35Z</time>
      </trkpt>
      <trkpt lat="50.48165" lon="5.77545">
        <ele>378</ele>
        <time>2019-01-17T11:35:35Z</time>
      </trkpt>
      <trkpt lat="50.48181" lon="5.775">
        <ele>378</ele>
        <time>2019-01-17T11:36:35Z</time>
      </trkpt>
      <trkpt lat="50.4819" lon="5.77477">
        <ele>378</ele>
        <time>2019-01-17T11:37:35Z</time>
      </trkpt>
      <trkpt lat="50.4822" lon="5.77437">
        <ele>375</ele>
        <time>2019-01-17T11:38:35Z</time>
      </trkpt>
      <trkpt lat="50.48259" lon="5.77387">
        <ele>372</ele>
        <time>2019-01-17T11:39:35Z</time>
      </trkpt>
      <trkpt lat="50.4831" lon="5.7732">
        <ele>371</ele>
        <time>2019-01-17T11:40:35Z</time>
      </trkpt>
      <trkpt lat="50.48517" lon="5.76965">
        <ele>364</ele>
        <time>2019-01-17T11:41:35Z</time>
      </trkpt>
      <trkpt lat="50.48528" lon="5.76943">
        <ele>363</ele>
        <time>2019-01-17T11:42:35Z</time>
      </trkpt>
      <trkpt lat="50.48537" lon="5.76919">
        <ele>363</ele>
        <time>2019-01-17T11:43:35Z</time>
      </trkpt>
      <trkpt lat="50.48543" lon="5.76902">
        <ele>363</ele>
        <time>2019-01-17T11:44:35Z</time>
      </trkpt>
      <trkpt lat="50.48546" lon="5.76884">
        <ele>363</ele>
        <time>2019-01-17T11:45:35Z</time>
      </trkpt>
      <trkpt lat="50.48551" lon="5.76842">
        <ele>365</ele>
        <time>2019-01-17T11:46:35Z</time>
      </trkpt>
      <trkpt lat="50.48556" lon="5.76811">
        <ele>365</ele>
        <time>2019-01-17T11:47:35Z</time>
      </trkpt>
      <trkpt lat="50.48562" lon="5.76793">
        <ele>365</ele>
        <time>2019-01-17T11:48:35Z</time>
      </trkpt>
      <trkpt lat="50.48573" lon="5.76772">
        <ele>365</ele>
        <time>2019-01-17T11:49:35Z</time>
      </trkpt>
      <trkpt lat="50.48594" lon="5.76739">
        <ele>364</ele>
        <time>2019-01-17T11:50:35Z</time>
      </trkpt>
      <trkpt lat="50.48633" lon="5.76685">
        <ele>362</ele>
        <time>2019-01-17T11:51:35Z</time>
      </trkpt>
      <trkpt lat="50.48676" lon="5.76641">
        <ele>361</ele>
        <time>2019-01-17T11:52:35Z</time>
      </trkpt>
      <trkpt lat="50.48707" lon="5.76611">
        <ele>360</ele>
        <time>2019-01-17T11:53:35Z</time>
      </trkpt>
      <trkpt lat="50.48732" lon="5.7659">
        <ele>360</ele>
        <time>2019-01-17T11:54:35Z</time>
      </trkpt>
      <trkpt lat="50.48744" lon="5.76586">
        <ele>359</ele>
        <time>2019-01-17T11:55:35Z</time>
      </trkpt>
      <trkpt lat="50.48755" lon="5.76584">
        <ele>359</ele>
        <time>2019-01-17T11:56:35Z</time>
      </trkpt>
      <trkpt lat="50.48766" lon="5.76586">
        <ele>358</ele>
        <time>2019-01-17T11:57:35Z</time>
      </trkpt>
      <trkpt lat="50.48797" lon="5.76599">
        <ele>357</ele>
        <time>2019-01-17T11:58:35Z</time>
      </trkpt>
      <trkpt lat="50.48805" lon="5.76602">
        <ele>357</ele>
        <time>2019-01-17T11:59:35Z</time>
      </trkpt>
      <trkpt lat="50.48808" lon="5.76584">
        <ele>357</ele>
        <time>2019-01-17T12:00:35Z</time>
      </trkpt>
      <trkpt lat="50.48809" lon="5.7657">
        <ele>357</ele>
        <time>2019-01-17T12:01:35Z</time>
      </trkpt>
      <trkpt lat="50.48809" lon="5.76555">
        <ele>357</ele>
        <time>2019-01-17T12:02:35Z</time>
      </trkpt>
      <trkpt lat="50.48807" lon="5.76538">
        <ele>357</ele>
        <time>2019-01-17T12:03:35Z</time>
      </trkpt>
      <trkpt lat="50.48802" lon="5.76513">
        <ele>357</ele>
        <time>2019-01-17T12:04:35Z</time>
      </trkpt>
      <trkpt lat="50.48783" lon="5.76429">
        <ele>356</ele>
        <time>2019-01-17T12:05:35Z</time>
      </trkpt>
      <trkpt lat="50.4875" lon="5.76287">
        <ele>352</ele>
        <time>2019-01-17T12:06:35Z</time>
      </trkpt>
      <trkpt lat="50.48699" lon="5.76068">
        <ele>345</ele>
        <time>2019-01-17T12:07:35Z</time>
      </trkpt>
      <trkpt lat="50.4864" lon="5.75816">
        <ele>340</ele>
        <time>2019-01-17T12:08:35Z</time>
      </trkpt>
      <trkpt lat="50.486" lon="5.75643">
        <ele>335</ele>
        <time>2019-01-17T12:09:35Z</time>
      </trkpt>
      <trkpt lat="50.48593" lon="5.75601">
        <ele>334</ele>
        <time>2019-01-17T12:10:35Z</time>
      </trkpt>
      <trkpt lat="50.48592" lon="5.75566">
        <ele>334</ele>
        <time>2019-01-17T12:11:35Z</time>
      </trkpt>
      <trkpt lat="50.48594" lon="5.75537">
        <ele>335</ele>
        <time>2019-01-17T12:12:35Z</time>
      </trkpt>
      <trkpt lat="50.48608" lon="5.75468">
        <ele>337</ele>
        <time>2019-01-17T12:13:35Z</time>
      </trkpt>
      <trkpt lat="50.48619" lon="5.75428">
        <ele>339</ele>
        <time>2019-01-17T12:14:35Z</time>
      </trkpt>
      <trkpt lat="50.48625" lon="5.75398">
        <ele>340</ele>
        <time>2019-01-17T12:15:35Z</time>
      </trkpt>
      <trkpt lat="50.48628" lon="5.75368">
        <ele>341</ele>
        <time>2019-01-17T12:16:35Z</time>
      </trkpt>
      <trkpt lat="50.48629" lon="5.75343">
        <ele>342</ele>
        <time>2019-01-17T12:17:35Z</time>
      </trkpt>
      <trkpt lat="50.48628" lon="5.75314">
        <ele>342</ele>
        <time>2019-01-17T12:18:35Z</time>
      </trkpt>
      <trkpt lat="50.48627" lon="5.7529">
        <ele>342</ele>
        <time>2019-01-17T12:19:35Z</time>
      </trkpt>
      <trkpt lat="50.48623" lon="5.75258">
        <ele>343</ele>
        <time>2019-01-17T12:20:35Z</time>
      </trkpt>
      <trkpt lat="50.48616" lon="5.7522">
        <ele>341</ele>
        <time>2019-01-17T12:21:35Z</time>
      </trkpt>
      <trkpt lat="50.48604" lon="5.75168">
        <ele>339</ele>
        <time>2019-01-17T12:22:35Z</time>
      </trkpt>
      <trkpt lat="50.48577" lon="5.75051">
        <ele>332</ele>
        <time>2019-01-17T12:23:35Z</time>
      </trkpt>
      <trkpt lat="50.48542" lon="5.74915">
        <ele>330</ele>
        <time>2019-01-17T12:24:35Z</time>
      </trkpt>
      <trkpt lat="50.48506" lon="5.74765">
        <ele>328</ele>
        <time>2019-01-17T12:25:35Z</time>
      </trkpt>
      <trkpt lat="50.48492" lon="5.74717">
        <ele>325</ele>
        <time>2019-01-17T12:26:35Z</time>
      </trkpt>
      <trkpt lat="50.4848" lon="5.74685">
        <ele>323</ele>
        <time>2019-01-17T12:27:35Z</time>
      </trkpt>
      <trkpt lat="50.48364" lon="5.74457">
        <ele>307</ele>
        <time>2019-01-17T12:28:35Z</time>
      </trkpt>
      <trkpt lat="50.48232" lon="5.7418">
        <ele>293</ele>
        <time>2019-01-17T12:29:35Z</time>
      </trkpt>
      <trkpt lat="50.4822" lon="5.74161">
        <ele>291</ele>
        <time>2019-01-17T12:30:35Z</time>
      </trkpt>
      <trkpt lat="50.48208" lon="5.74147">
        <ele>291</ele>
        <time>2019-01-17T12:31:35Z</time>
      </trkpt>
      <trkpt lat="50.48198" lon="5.74139">
        <ele>290</ele>
        <time>2019-01-17T12:32:35Z</time>
      </trkpt>
      <trkpt lat="50.48176" lon="5.74129">
        <ele>290</ele>
        <time>2019-01-17T12:33:35Z</time>
      </trkpt>
      <trkpt lat="50.48167" lon="5.74128">
        <ele>290</ele>
        <time>2019-01-17T12:34:35Z</time>
      </trkpt>
      <trkpt lat="50.48154" lon="5.74129">
        <ele>289</ele>
        <time>2019-01-17T12:35:35Z</time>
      </trkpt>
      <trkpt lat="50.48131" lon="5.74134">
        <ele>287</ele>
        <time>2019-01-17T12:36:35Z</time>
      </trkpt>
      <trkpt lat="50.48073" lon="5.7415">
        <ele>284</ele>
        <time>2019-01-17T12:37:35Z</time>
      </trkpt>
      <trkpt lat="50.48054" lon="5.74157">
        <ele>284</ele>
        <time>2019-01-17T12:38:35Z</time>
      </trkpt>
      <trkpt lat="50.48034" lon="5.74156">
        <ele>283</ele>
        <time>2019-01-17T12:39:35Z</time>
      </trkpt>
      <trkpt lat="50.4802" lon="5.74152">
        <ele>282</ele>
        <time>2019-01-17T12:40:35Z</time>
      </trkpt>
      <trkpt lat="50.48009" lon="5.74148">
        <ele>281</ele>
        <time>2019-01-17T12:41:35Z</time>
      </trkpt>
      <trkpt lat="50.47993" lon="5.74142">
        <ele>280</ele>
        <time>2019-01-17T12:42:35Z</time>
      </trkpt>
      <trkpt lat="50.47931" lon="5.74117">
        <ele>276</ele>
        <time>2019-01-17T12:43:35Z</time>
      </trkpt>
      <trkpt lat="50.47896" lon="5.74104">
        <ele>272</ele>
        <time>2019-01-17T12:44:35Z</time>
      </trkpt>
      <trkpt lat="50.47868" lon="5.74109">
        <ele>271</ele>
        <time>2019-01-17T12:45:35Z</time>
      </trkpt>
      <trkpt lat="50.47779" lon="5.74122">
        <ele>267</ele>
        <time>2019-01-17T12:46:35Z</time>
      </trkpt>
      <trkpt lat="50.47637" lon="5.74105">
        <ele>260</ele>
        <time>2019-01-17T12:47:35Z</time>
      </trkpt>
      <trkpt lat="50.47601" lon="5.74093">
        <ele>257</ele>
        <time>2019-01-17T12:48:35Z</time>
      </trkpt>
      <trkpt lat="50.47589" lon="5.7409">
        <ele>256</ele>
        <time>2019-01-17T12:49:35Z</time>
      </trkpt>
      <trkpt lat="50.47554" lon="5.74081">
        <ele>254</ele>
        <time>2019-01-17T12:50:35Z</time>
      </trkpt>
      <trkpt lat="50.47497" lon="5.74045">
        <ele>251</ele>
        <time>2019-01-17T12:51:35Z</time>
      </trkpt>
      <trkpt lat="50.4748" lon="5.74031">
        <ele>250</ele>
        <time>2019-01-17T12:52:35Z</time>
      </trkpt>
      <trkpt lat="50.47464" lon="5.74022">
        <ele>250</ele>
        <time>2019-01-17T12:53:35Z</time>
      </trkpt>
      <trkpt lat="50.47452" lon="5.74013">
        <ele>249</ele>
        <time>2019-01-17T12:54:35Z</time>
      </trkpt>
      <trkpt lat="50.47439" lon="5.73999">
        <ele>248</ele>
        <time>2019-01-17T12:55:35Z</time>
      </trkpt>
      <trkpt lat="50.47433" lon="5.7399">
        <ele>248</ele>
        <time>2019-01-17T12:56:35Z</time>
      </trkpt>
      <trkpt lat="50.47424" lon="5.73974">
        <ele>247</ele>
        <time>2019-01-17T12:57:35Z</time>
      </trkpt>
      <trkpt lat="50.47414" lon="5.73948">
        <ele>245</ele>
        <time>2019-01-17T12:58:35Z</time>
      </trkpt>
      <trkpt lat="50.47408" lon="5.73925">
        <ele>243</ele>
        <time>2019-01-17T12:59:35Z</time>
      </trkpt>
      <trkpt lat="50.47406" lon="5.73907">
        <ele>242</ele>
        <time>2019-01-17T13:00:35Z</time>
      </trkpt>
      <trkpt lat="50.47405" lon="5.73887">
        <ele>242</ele>
        <time>2019-01-17T13:01:35Z</time>
      </trkpt>
      <trkpt lat="50.47405" lon="5.73872">
        <ele>241</ele>
        <time>2019-01-17T13:02:35Z</time>
      </trkpt>
      <trkpt lat="50.4741" lon="5.73838">
        <ele>240</ele>
        <time>2019-01-17T13:03:35Z</time>
      </trkpt>
      <trkpt lat="50.47413" lon="5.73825">
        <ele>239</ele>
        <time>2019-01-17T13:04:35Z</time>
      </trkpt>
      <trkpt lat="50.47481" lon="5.73603">
        <ele>229</ele>
        <time>2019-01-17T13:05:35Z</time>
      </trkpt>
      <trkpt lat="50.47542" lon="5.73403">
        <ele>221</ele>
        <time>2019-01-17T13:06:35Z</time>
      </trkpt>
      <trkpt lat="50.47552" lon="5.73365">
        <ele>221</ele>
        <time>2019-01-17T13:07:35Z</time>
      </trkpt>
      <trkpt lat="50.4756" lon="5.73325">
        <ele>220</ele>
        <time>2019-01-17T13:08:35Z</time>
      </trkpt>
      <trkpt lat="50.47568" lon="5.73279">
        <ele>219</ele>
        <time>2019-01-17T13:09:35Z</time>
      </trkpt>
      <trkpt lat="50.47574" lon="5.73206">
        <ele>216</ele>
        <time>2019-01-17T13:10:35Z</time>
      </trkpt>
      <trkpt lat="50.47577" lon="5.72782">
        <ele>202</ele>
        <time>2019-01-17T13:11:35Z</time>
      </trkpt>
      <trkpt lat="50.47579" lon="5.72664">
        <ele>195</ele>
        <time>2019-01-17T13:12:35Z</time>
      </trkpt>
      <trkpt lat="50.47581" lon="5.72648">
        <ele>194</ele>
        <time>2019-01-17T13:13:35Z</time>
      </trkpt>
      <trkpt lat="50.47584" lon="5.72629">
        <ele>194</ele>
        <time>2019-01-17T13:14:35Z</time>
      </trkpt>
      <trkpt lat="50.47609" lon="5.72529">
        <ele>195</ele>
        <time>2019-01-17T13:15:35Z</time>
      </trkpt>
      <trkpt lat="50.47612" lon="5.72513">
        <ele>195</ele>
        <time>2019-01-17T13:16:35Z</time>
      </trkpt>
      <trkpt lat="50.47642" lon="5.72223">
        <ele>189</ele>
        <time>2019-01-17T13:17:35Z</time>
      </trkpt>
      <trkpt lat="50.47645" lon="5.72154">
        <ele>185</ele>
        <time>2019-01-17T13:18:35Z</time>
      </trkpt>
      <trkpt lat="50.47642" lon="5.72044">
        <ele>179</ele>
        <time>2019-01-17T13:19:35Z</time>
      </trkpt>
      <trkpt lat="50.47639" lon="5.72002">
        <ele>177</ele>
        <time>2019-01-17T13:20:35Z</time>
      </trkpt>
      <trkpt lat="50.47635" lon="5.71953">
        <ele>174</ele>
        <time>2019-01-17T13:21:35Z</time>
      </trkpt>
      <trkpt lat="50.47615" lon="5.71849">
        <ele>169</ele>
        <time>2019-01-17T13:22:35Z</time>
      </trkpt>
      <trkpt lat="50.47608" lon="5.71792">
        <ele>167</ele>
        <time>2019-01-17T13:23:35Z</time>
      </trkpt>
      <trkpt lat="50.47601" lon="5.71692">
        <ele>164</ele>
        <time>2019-01-17T13:24:35Z</time>
      </trkpt>
      <trkpt lat="50.47599" lon="5.71666">
        <ele>163</ele>
        <time>2019-01-17T13:25:35Z</time>
      </trkpt>
      <trkpt lat="50.47598" lon="5.71638">
        <ele>160</ele>
        <time>2019-01-17T13:26:35Z</time>
      </trkpt>
      <trkpt lat="50.47597" lon="5.71622">
        <ele>159</ele>
        <time>2019-01-17T13:27:35Z</time>
      </trkpt>
      <trkpt lat="50.47597" lon="5.71605">
        <ele>157</ele>
        <time>2019-01-17T13:28:35Z</time>
      </trkpt>
      <trkpt lat="50.47601" lon="5.71573">
        <ele>155</ele>
        <time>2019-01-17T13:29:35Z</time>
      </trkpt>
      <trkpt lat="50.47606" lon="5.7155">
        <ele>153</ele>
        <time>2019-01-17T13:30:35Z</time>
      </trkpt>
      <trkpt lat="50.47615" lon="5.71517">
        <ele>151</ele>
        <time>2019-01-17T13:31:35Z</time>
      </trkpt>
      <trkpt lat="50.47622" lon="5.71496">
        <ele>149</ele>
        <time>2019-01-17T13:32:35Z</time>
      </trkpt>
      <trkpt lat="50.4763" lon="5.71474">
        <ele>148</ele>
        <time>2019-01-17T13:33:35Z</time>
      </trkpt>
      <trkpt lat="50.47636" lon="5.71464">
        <ele>148</ele>
        <time>2019-01-17T13:34:35Z</time>
      </trkpt>
      <trkpt lat="50.47645" lon="5.71452">
        <ele>147</ele>
        <time>2019-01-17T13:35:35Z</time>
      </trkpt>
      <trkpt lat="50.47656" lon="5.71439">
        <ele>147</ele>
        <time>2019-01-17T13:36:35Z</time>
      </trkpt>
      <trkpt lat="50.47728" lon="5.71361">
        <ele>145</ele>
        <time>2019-01-17T13:37:35Z</time>
      </trkpt>
      <trkpt lat="50.47764" lon="5.71323">
        <ele>142</ele>
        <time>2019-01-17T13:38:35Z</time>
      </trkpt>
      <trkpt lat="50.4779" lon="5.71299">
        <ele>142</ele>
        <time>2019-01-17T13:39:35Z</time>
      </trkpt>
      <trkpt lat="50.47816" lon="5.71278">
        <ele>140</ele>
        <time>2019-01-17T13:40:35Z</time>
      </trkpt>
      <trkpt lat="50.4784" lon="5.71265">
        <ele>139</ele>
        <time>2019-01-17T13:41:35Z</time>
      </trkpt>
      <trkpt lat="50.47855" lon="5.7126">
        <ele>139</ele>
        <time>2019-01-17T13:42:35Z</time>
      </trkpt>
      <trkpt lat="50.47895" lon="5.7124">
        <ele>140</ele>
        <time>2019-01-17T13:43:35Z</time>
      </trkpt>
      <trkpt lat="50.47919" lon="5.71227">
        <ele>140</ele>
        <time>2019-01-17T13:44:35Z</time>
      </trkpt>
      <trkpt lat="50.47973" lon="5.71191">
        <ele>135</ele>
        <time>2019-01-17T13:45:35Z</time>
      </trkpt>
      <trkpt lat="50.47987" lon="5.7118">
        <ele>135</ele>
        <time>2019-01-17T13:46:35Z</time>
      </trkpt>
      <trkpt lat="50.47986" lon="5.71166">
        <ele>133</ele>
        <time>2019-01-17T13:47:35Z</time>
      </trkpt>
      <trkpt lat="50.47979" lon="5.71125">
        <ele>132</ele>
        <time>2019-01-17T13:48:35Z</time>
      </trkpt>
      <trkpt lat="50.47967" lon="5.7101">
        <ele>129</ele>
        <time>2019-01-17T13:49:35Z</time>
      </trkpt>
      <trkpt lat="50.47965" lon="5.70977">
        <ele>129</ele>
        <time>2019-01-17T13:50:35Z</time>
      </trkpt>
      <trkpt lat="50.47965" lon="5.7094">
        <ele>130</ele>
        <time>2019-01-17T13:51:35Z</time>
      </trkpt>
      <trkpt lat="50.47983" lon="5.70814">
        <ele>128</ele>
        <time>2019-01-17T13:52:35Z</time>
      </trkpt>
      <trkpt lat="50.47996" lon="5.70713">
        <ele>128</ele>
        <time>2019-01-17T13:53:35Z</time>
      </trkpt>
      <trkpt lat="50.48004" lon="5.70687">
        <ele>128</ele>
        <time>2019-01-17T13:54:35Z</time>
      </trkpt>
      <trkpt lat="50.48014" lon="5.70659">
        <ele>129</ele>
        <time>2019-01-17T13:55:35Z</time>
      </trkpt>
      <trkpt lat="50.48022" lon="5.70638">
        <ele>129</ele>
        <time>2019-01-17T13:56:35Z</time>
      </trkpt>
      <trkpt lat="50.4801" lon="5.70619">
        <ele>130</ele>
        <time>2019-01-17T13:57:35Z</time>
      </trkpt>
      <trkpt lat="50.4801" lon="5.70587">
        <ele>130</ele>
        <time>2019-01-17T13:58:35Z</time>
      </trkpt>
      <trkpt lat="50.48003" lon="5.70522">
        <ele>131</ele>
        <time>2019-01-17T13:59:35Z</time>
      </trkpt>
      <trkpt lat="50.47986" lon="5.70289">
        <ele>135</ele>
        <time>2019-01-17T14:00:35Z</time>
      </trkpt>
      <trkpt lat="50.47971" lon="5.70125">
        <ele>137</ele>
        <time>2019-01-17T14:01:35Z</time>
      </trkpt>
      <trkpt lat="50.47963" lon="5.70076">
        <ele>138</ele>
        <time>2019-01-17T14:02:35Z</time>
      </trkpt>
      <trkpt lat="50.47945" lon="5.69997">
        <ele>136</ele>
        <time>2019-01-17T14:03:35Z</time>
      </trkpt>
      <trkpt lat="50.47928" lon="5.69905">
        <ele>133</ele>
        <time>2019-01-17T14:04:35Z</time>
      </trkpt>
      <trkpt lat="50.47908" lon="5.69827">
        <ele>132</ele>
        <time>2019-01-17T14:05:35Z</time>
      </trkpt>
      <trkpt lat="50.47896" lon="5.6977">
        <ele>130</ele>
        <time>2019-01-17T14:06:35Z</time>
      </trkpt>
      <trkpt lat="50.47885" lon="5.69727">
        <ele>130</ele>
        <time>2019-01-17T14:07:35Z</time>
      </trkpt>
      <trkpt lat="50.47873" lon="5.69662">
        <ele>129</ele>
        <time>2019-01-17T14:08:35Z</time>
      </trkpt>
      <trkpt lat="50.47866" lon="5.69639">
        <ele>129</ele>
        <time>2019-01-17T14:09:35Z</time>
      </trkpt>
      <trkpt lat="50.47847" lon="5.69586">
        <ele>128</ele>
        <time>2019-01-17T14:10:35Z</time>
      </trkpt>
      <trkpt lat="50.47801" lon="5.69484">
        <ele>129</ele>
        <time>2019-01-17T14:11:35Z</time>
      </trkpt>
      <trkpt lat="50.47752" lon="5.69371">
        <ele>129</ele>
        <time>2019-01-17T14:12:35Z</time>
      </trkpt>
      <trkpt lat="50.47574" lon="5.68969">
        <ele>137</ele>
        <time>2019-01-17T14:13:35Z</time>
      </trkpt>
      <trkpt lat="50.47552" lon="5.68919">
        <ele>145</ele>
        <time>2019-01-17T14:14:35Z</time>
      </trkpt>
      <trkpt lat="50.47536" lon="5.68866">
        <ele>147</ele>
        <time>2019-01-17T14:15:35Z</time>
      </trkpt>
      <trkpt lat="50.47527" lon="5.68825">
        <ele>146</ele>
        <time>2019-01-17T14:16:35Z</time>
      </trkpt>
      <trkpt lat="50.47518" lon="5.68759">
        <ele>140</ele>
        <time>2019-01-17T14:17:35Z</time>
      </trkpt>
      <trkpt lat="50.47449" lon="5.6827">
        <ele>149</ele>
        <time>2019-01-17T14:18:35Z</time>
      </trkpt>
      <trkpt lat="50.47436" lon="5.68186">
        <ele>147</ele>
        <time>2019-01-17T14:19:35Z</time>
      </trkpt>
      <trkpt lat="50.47418" lon="5.68076">
        <ele>139</ele>
        <time>2019-01-17T14:20:35Z</time>
      </trkpt>
      <trkpt lat="50.47402" lon="5.67957">
        <ele>136</ele>
        <time>2019-01-17T14:21:35Z</time>
      </trkpt>
      <trkpt lat="50.4738" lon="5.67811">
        <ele>135</ele>
        <time>2019-01-17T14:22:35Z</time>
      </trkpt>
      <trkpt lat="50.47364" lon="5.67692">
        <ele>129</ele>
        <time>2019-01-17T14:23:35Z</time>
      </trkpt>
      <trkpt lat="50.47357" lon="5.67625">
        <ele>128</ele>
        <time>2019-01-17T14:24:35Z</time>
      </trkpt>
      <trkpt lat="50.47354" lon="5.67581">
        <ele>127</ele>
        <time>2019-01-17T14:25:35Z</time>
      </trkpt>
      <trkpt lat="50.47353" lon="5.67543">
        <ele>127</ele>
        <time>2019-01-17T14:26:35Z</time>
      </trkpt>
      <trkpt lat="50.47358" lon="5.67525">
        <ele>127</ele>
        <time>2019-01-17T14:27:35Z</time>
      </trkpt>
      <trkpt lat="50.47373" lon="5.67522">
        <ele>126</ele>
        <time>2019-01-17T14:28:35Z</time>
      </trkpt>
      <trkpt lat="50.47456" lon="5.67531">
        <ele>123</ele>
        <time>2019-01-17T14:29:35Z</time>
      </trkpt>
      <trkpt lat="50.4746" lon="5.67493">
        <ele>123</ele>
        <time>2019-01-17T14:30:35Z</time>
      </trkpt>
      <trkpt lat="50.47461" lon="5.67455">
        <ele>123</ele>
        <time>2019-01-17T14:31:35Z</time>
      </trkpt>
      <trkpt lat="50.4746" lon="5.67396">
        <ele>123</ele>
        <time>2019-01-17T14:32:35Z</time>
      </trkpt>
      <trkpt lat="50.47458" lon="5.67371">
        <ele>123</ele>
        <time>2019-01-17T14:33:35Z</time>
      </trkpt>
      <trkpt lat="50.47445" lon="5.67275">
        <ele>123</ele>
        <time>2019-01-17T14:34:35Z</time>
      </trkpt>
      <trkpt lat="50.47423" lon="5.67138">
        <ele>123</ele>
        <time>2019-01-17T14:35:35Z</time>
      </trkpt>
      <trkpt lat="50.47411" lon="5.67053">
        <ele>124</ele>
        <time>2019-01-17T14:36:35Z</time>
      </trkpt>
      <trkpt lat="50.47385" lon="5.66899">
        <ele>120</ele>
        <time>2019-01-17T14:37:35Z</time>
      </trkpt>
      <trkpt lat="50.47356" lon="5.66713">
        <ele>120</ele>
        <time>2019-01-17T14:38:35Z</time>
      </trkpt>
      <trkpt lat="50.47338" lon="5.66609">
        <ele>121</ele>
        <time>2019-01-17T14:39:35Z</time>
      </trkpt>
      <trkpt lat="50.4733" lon="5.66544">
        <ele>122</ele>
        <time>2019-01-17T14:40:35Z</time>
      </trkpt>
      <trkpt lat="50.47327" lon="5.66502">
        <ele>122</ele>
        <time>2019-01-17T14:41:35Z</time>
      </trkpt>
      <trkpt lat="50.47328" lon="5.66453">
        <ele>122</ele>
        <time>2019-01-17T14:42:35Z</time>
      </trkpt>
      <trkpt lat="50.47332" lon="5.66418">
        <ele>122</ele>
        <time>2019-01-17T14:43:35Z</time>
      </trkpt>
      <trkpt lat="50.4734" lon="5.66379">
        <ele>122</ele>
        <time>2019-01-17T14:44:35Z</time>
      </trkpt>
      <trkpt lat="50.47361" lon="5.6631">
        <ele>121</ele>
        <time>2019-01-17T14:45:35Z</time>
      </trkpt>
      <trkpt lat="50.47377" lon="5.66267">
        <ele>120</ele>
        <time>2019-01-17T14:46:35Z</time>
      </trkpt>
      <trkpt lat="50.47392" lon="5.6623">
        <ele>119</ele>
        <time>2019-01-17T14:47:35Z</time>
      </trkpt>
      <trkpt lat="50.47512" lon="5.65933">
        <ele>130</ele>
        <time>2019-01-17T14:48:35Z</time>
      </trkpt>
      <trkpt lat="50.47673" lon="5.65547">
        <ele>134</ele>
        <time>2019-01-17T14:49:35Z</time>
      </trkpt>
      <trkpt lat="50.47851" lon="5.65123">
        <ele>133</ele>
        <time>2019-01-17T14:50:35Z</time>
      </trkpt>
      <trkpt lat="50.47906" lon="5.6501">
        <ele>128</ele>
        <time>2019-01-17T14:51:35Z</time>
      </trkpt>
      <trkpt lat="50.47915" lon="5.64971">
        <ele>128</ele>
        <time>2019-01-17T14:52:35Z</time>
      </trkpt>
      <trkpt lat="50.47917" lon="5.64931">
        <ele>128</ele>
        <time>2019-01-17T14:53:35Z</time>
      </trkpt>
      <trkpt lat="50.47906" lon="5.64848">
        <ele>123</ele>
        <time>2019-01-17T14:54:35Z</time>
      </trkpt>
      <trkpt lat="50.47902" lon="5.64802">
        <ele>121</ele>
        <time>2019-01-17T14:55:35Z</time>
      </trkpt>
      <trkpt lat="50.47901" lon="5.6476">
        <ele>119</ele>
        <time>2019-01-17T14:56:35Z</time>
      </trkpt>
      <trkpt lat="50.47899" lon="5.64727">
        <ele>119</ele>
        <time>2019-01-17T14:57:35Z</time>
      </trkpt>
      <trkpt lat="50.47889" lon="5.64709">
        <ele>119</ele>
        <time>2019-01-17T14:58:35Z</time>
      </trkpt>
      <trkpt lat="50.47875" lon="5.64689">
        <ele>121</ele>
        <time>2019-01-17T14:59:35Z</time>
      </trkpt>
      <trkpt lat="50.4785" lon="5.64647">
        <ele>122</ele>
        <time>2019-01-17T15:00:35Z</time>
      </trkpt>
      <trkpt lat="50.47819" lon="5.6458">
        <ele>120</ele>
        <time>2019-01-17T15:01:35Z</time>
      </trkpt>
      <trkpt lat="50.47794" lon="5.64533">
        <ele>121</ele>
        <time>2019-01-17T15:02:35Z</time>
      </trkpt>
      <trkpt lat="50.47725" lon="5.64392">
        <ele>126</ele>
        <time>2019-01-17T15:03:35Z</time>
      </trkpt>
      <trkpt lat="50.47719" lon="5.64378">
        <ele>127</ele>
        <time>2019-01-17T15:04:35Z</time>
      </trkpt>
      <trkpt lat="50.47708" lon="5.64351">
        <ele>129</ele>
        <time>2019-01-17T15:05:35Z</time>
      </trkpt>
      <trkpt lat="50.47702" lon="5.64332">
        <ele>129</ele>
        <time>2019-01-17T15:06:35Z</time>
      </trkpt>
      <trkpt lat="50.47697" lon="5.64315">
        <ele>130</ele>
        <time>2019-01-17T15:07:35Z</time>
      </trkpt>
      <trkpt lat="50.47694" lon="5.643">
        <ele>131</ele>
        <time>2019-01-17T15:08:35Z</time>
      </trkpt>
      <trkpt lat="50.47689" lon="5.64282">
        <ele>132</ele>
        <time>2019-01-17T15:09:35Z</time>
      </trkpt>
      <trkpt lat="50.47683" lon="5.64241">
        <ele>133</ele>
        <time>2019-01-17T15:10:35Z</time>
      </trkpt>
      <trkpt lat="50.47681" lon="5.64213">
        <ele>133</ele>
        <time>2019-01-17T15:11:35Z</time>
      </trkpt>
      <trkpt lat="50.47681" lon="5.64149">
        <ele>134</ele>
        <time>2019-01-17T15:12:35Z</time>
      </trkpt>
      <trkpt lat="50.47684" lon="5.64113">
        <ele>135</ele>
        <time>2019-01-17T15:13:35Z</time>
      </trkpt>
      <trkpt lat="50.4769" lon="5.64072">
        <ele>137</ele>
        <time>2019-01-17T15:14:35Z</time>
      </trkpt>
      <trkpt lat="50.47694" lon="5.64053">
        <ele>138</ele>
        <time>2019-01-17T15:15:35Z</time>
      </trkpt>
      <trkpt lat="50.47705" lon="5.6402">
        <ele>139</ele>
        <time>2019-01-17T15:16:35Z</time>
      </trkpt>
      <trkpt lat="50.47715" lon="5.63986">
        <ele>139</ele>
        <time>2019-01-17T15:17:35Z</time>
      </trkpt>
      <trkpt lat="50.47723" lon="5.63964">
        <ele>138</ele>
        <time>2019-01-17T15:18:35Z</time>
      </trkpt>
      <trkpt lat="50.4773" lon="5.63947">
        <ele>136</ele>
        <time>2019-01-17T15:19:35Z</time>
      </trkpt>
      <trkpt lat="50.47784" lon="5.63834">
        <ele>137</ele>
        <time>2019-01-17T15:20:35Z</time>
      </trkpt>
      <trkpt lat="50.47788" lon="5.63825">
        <ele>137</ele>
        <time>2019-01-17T15:21:35Z</time>
      </trkpt>
      <trkpt lat="50.47801" lon="5.63807">
        <ele>135</ele>
        <time>2019-01-17T15:22:35Z</time>
      </trkpt>
      <trkpt lat="50.47809" lon="5.63796">
        <ele>133</ele>
        <time>2019-01-17T15:23:35Z</time>
      </trkpt>
      <trkpt lat="50.47824" lon="5.6378">
        <ele>130</ele>
        <time>2019-01-17T15:24:35Z</time>
      </trkpt>
      <trkpt lat="50.47845" lon="5.63755">
        <ele>129</ele>
        <time>2019-01-17T15:25:35Z</time>
      </trkpt>
      <trkpt lat="50.47866" lon="5.63728">
        <ele>128</ele>
        <time>2019-01-17T15:26:35Z</time>
      </trkpt>
      <trkpt lat="50.47876" lon="5.63717">
        <ele>127</ele>
        <time>2019-01-17T15:27:35Z</time>
      </trkpt>
      <trkpt lat="50.47909" lon="5.63679">
        <ele>126</ele>
        <time>2019-01-17T15:28:35Z</time>
      </trkpt>
      <trkpt lat="50.47962" lon="5.63602">
        <ele>130</ele>
        <time>2019-01-17T15:29:35Z</time>
      </trkpt>
      <trkpt lat="50.47995" lon="5.63553">
        <ele>124</ele>
        <time>2019-01-17T15:30:35Z</time>
      </trkpt>
      <trkpt lat="50.48005" lon="5.63541">
        <ele>124</ele>
        <time>2019-01-17T15:31:35Z</time>
      </trkpt>
      <trkpt lat="50.48222" lon="5.63321">
        <ele>131</ele>
        <time>2019-01-17T15:32:35Z</time>
      </trkpt>
      <trkpt lat="50.48246" lon="5.63297">
        <ele>130</ele>
        <time>2019-01-17T15:33:35Z</time>
      </trkpt>
      <trkpt lat="50.48259" lon="5.63286">
        <ele>131</ele>
        <time>2019-01-17T15:34:35Z</time>
      </trkpt>
      <trkpt lat="50.48281" lon="5.63272">
        <ele>130</ele>
        <time>2019-01-17T15:35:35Z</time>
      </trkpt>
      <trkpt lat="50.48309" lon="5.63257">
        <ele>127</ele>
        <time>2019-01-17T15:36:35Z</time>
      </trkpt>
      <trkpt lat="50.48332" lon="5.63248">
        <ele>124</ele>
        <time>2019-01-17T15:37:35Z</time>
      </trkpt>
      <trkpt lat="50.48355" lon="5.63238">
        <ele>126</ele>
        <time>2019-01-17T15:38:35Z</time>
      </trkpt>
      <trkpt lat="50.48418" lon="5.63218">
        <ele>126</ele>
        <time>2019-01-17T15:39:35Z</time>
      </trkpt>
      <trkpt lat="50.48537" lon="5.63175">
        <ele>121</ele>
        <time>2019-01-17T15:40:35Z</time>
      </trkpt>
      <trkpt lat="50.48571" lon="5.63158">
        <ele>119</ele>
        <time>2019-01-17T15:41:35Z</time>
      </trkpt>
      <trkpt lat="50.48593" lon="5.63142">
        <ele>119</ele>
        <time>2019-01-17T15:42:35Z</time>
      </trkpt>
      <trkpt lat="50.48616" lon="5.63119">
        <ele>121</ele>
        <time>2019-01-17T15:43:35Z</time>
      </trkpt>
      <trkpt lat="50.48649" lon="5.63087">
        <ele>121</ele>
        <time>2019-01-17T15:44:35Z</time>
      </trkpt>
      <trkpt lat="50.48702" lon="5.6303">
        <ele>123</ele>
        <time>2019-01-17T15:45:35Z</time>
      </trkpt>
      <trkpt lat="50.48724" lon="5.62991">
        <ele>122</ele>
        <time>2019-01-17T15:46:35Z</time>
      </trkpt>
      <trkpt lat="50.48765" lon="5.62914">
        <ele>123</ele>
        <time>2019-01-17T15:47:35Z</time>
      </trkpt>
      <trkpt lat="50.48795" lon="5.62844">
        <ele>125</ele>
        <time>2019-01-17T15:48:35Z</time>
      </trkpt>
      <trkpt lat="50.48812" lon="5.62788">
        <ele>121</ele>
        <time>2019-01-17T15:49:35Z</time>
      </trkpt>
      <trkpt lat="50.48819" lon="5.62754">
        <ele>118</ele>
        <time>2019-01-17T15:50:35Z</time>
      </trkpt>
      <trkpt lat="50.48822" lon="5.62722">
        <ele>117</ele>
        <time>2019-01-17T15:51:35Z</time>
      </trkpt>
      <trkpt lat="50.4882" lon="5.62682">
        <ele>117</ele>
        <time>2019-01-17T15:52:35Z</time>
      </trkpt>
      <trkpt lat="50.48815" lon="5.62627">
        <ele>116</ele>
        <time>2019-01-17T15:53:35Z</time>
      </trkpt>
      <trkpt lat="50.48806" lon="5.62588">
        <ele>116</ele>
        <time>2019-01-17T15:54:35Z</time>
      </trkpt>
      <trkpt lat="50.48776" lon="5.62452">
        <ele>114</ele>
        <time>2019-01-17T15:55:35Z</time>
      </trkpt>
      <trkpt lat="50.48747" lon="5.62378">
        <ele>112</ele>
        <time>2019-01-17T15:56:35Z</time>
      </trkpt>
      <trkpt lat="50.48728" lon="5.62349">
        <ele>112</ele>
        <time>2019-01-17T15:57:35Z</time>
      </trkpt>
      <trkpt lat="50.48712" lon="5.62328">
        <ele>111</ele>
        <time>2019-01-17T15:58:35Z</time>
      </trkpt>
      <trkpt lat="50.48694" lon="5.62312">
        <ele>112</ele>
        <time>2019-01-17T15:59:35Z</time>
      </trkpt>
      <trkpt lat="50.48666" lon="5.62293">
        <ele>111</ele>
        <time>2019-01-17T16:00:35Z</time>
      </trkpt>
      <trkpt lat="50.48633" lon="5.6227">
        <ele>113</ele>
        <time>2019-01-17T16:01:35Z</time>
      </trkpt>
      <trkpt lat="50.48616" lon="5.62262">
        <ele>114</ele>
        <time>2019-01-17T16:02:35Z</time>
      </trkpt>
      <trkpt lat="50.48497" lon="5.62185">
        <ele>114</ele>
        <time>2019-01-17T16:03:35Z</time>
      </trkpt>
      <trkpt lat="50.48421" lon="5.62138">
        <ele>111</ele>
        <time>2019-01-17T16:04:35Z</time>
      </trkpt>
      <trkpt lat="50.48388" lon="5.62123">
        <ele>110</ele>
        <time>2019-01-17T16:05:35Z</time>
      </trkpt>
      <trkpt lat="50.48367" lon="5.62117">
        <ele>110</ele>
        <time>2019-01-17T16:06:35Z</time>
      </trkpt>
      <trkpt lat="50.48342" lon="5.62113">
        <ele>110</ele>
        <time>2019-01-17T16:07:35Z</time>
      </trkpt>
      <trkpt lat="50.48318" lon="5.62111">
        <ele>110</ele>
        <time>2019-01-17T16:08:35Z</time>
      </trkpt>
      <trkpt lat="50.4829" lon="5.62112">
        <ele>110</ele>
        <time>2019-01-17T16:09:35Z</time>
      </trkpt>
      <trkpt lat="50.48256" lon="5.62114">
        <ele>110</ele>
        <time>2019-01-17T16:10:35Z</time>
      </trkpt>
      <trkpt lat="50.48135" lon="5.62124">
        <ele>115</ele>
        <time>2019-01-17T16:11:35Z</time>
      </trkpt>
      <trkpt lat="50.48119" lon="5.62124">
        <ele>116</ele>
        <time>2019-01-17T16:12:35Z</time>
      </trkpt>
      <trkpt lat="50.48045" lon="5.6213">
        <ele>121</ele>
        <time>2019-01-17T16:13:35Z</time>
      </trkpt>
      <trkpt lat="50.4801" lon="5.62128">
        <ele>122</ele>
        <time>2019-01-17T16:14:35Z</time>
      </trkpt>
      <trkpt lat="50.47995" lon="5.62126">
        <ele>122</ele>
        <time>2019-01-17T16:15:35Z</time>
      </trkpt>
      <trkpt lat="50.47942" lon="5.62107">
        <ele>122</ele>
        <time>2019-01-17T16:16:35Z</time>
      </trkpt>
      <trkpt lat="50.47879" lon="5.62065">
        <ele>124</ele>
        <time>2019-01-17T16:17:35Z</time>
      </trkpt>
      <trkpt lat="50.47826" lon="5.62026">
        <ele>127</ele>
        <time>2019-01-17T16:18:35Z</time>
      </trkpt>
      <trkpt lat="50.4779" lon="5.61983">
        <ele>128</ele>
        <time>2019-01-17T16:19:35Z</time>
      </trkpt>
      <trkpt lat="50.47769" lon="5.61951">
        <ele>126</ele>
        <time>2019-01-17T16:20:35Z</time>
      </trkpt>
      <trkpt lat="50.47751" lon="5.61925">
        <ele>122</ele>
        <time>2019-01-17T16:21:35Z</time>
      </trkpt>
      <trkpt lat="50.47729" lon="5.61886">
        <ele>130</ele>
        <time>2019-01-17T16:22:35Z</time>
      </trkpt>
      <trkpt lat="50.47712" lon="5.61843">
        <ele>135</ele>
        <time>2019-01-17T16:23:35Z</time>
      </trkpt>
      <trkpt lat="50.4769" lon="5.61793">
        <ele>139</ele>
        <time>2019-01-17T16:24:35Z</time>
      </trkpt>
      <trkpt lat="50.47686" lon="5.61769">
        <ele>135</ele>
        <time>2019-01-17T16:25:35Z</time>
      </trkpt>
      <trkpt lat="50.47679" lon="5.61732">
        <ele>131</ele>
        <time>2019-01-17T16:26:35Z</time>
      </trkpt>
      <trkpt lat="50.47674" lon="5.61694">
        <ele>126</ele>
        <time>2019-01-17T16:27:35Z</time>
      </trkpt>
      <trkpt lat="50.47668" lon="5.61626">
        <ele>120</ele>
        <time>2019-01-17T16:28:35Z</time>
      </trkpt>
      <trkpt lat="50.4765" lon="5.61434">
        <ele>123</ele>
        <time>2019-01-17T16:29:35Z</time>
      </trkpt>
      <trkpt lat="50.47649" lon="5.61394">
        <ele>122</ele>
        <time>2019-01-17T16:30:35Z</time>
      </trkpt>
      <trkpt lat="50.4765" lon="5.61367">
        <ele>122</ele>
        <time>2019-01-17T16:31:35Z</time>
      </trkpt>
      <trkpt lat="50.47653" lon="5.61325">
        <ele>122</ele>
        <time>2019-01-17T16:32:35Z</time>
      </trkpt>
      <trkpt lat="50.47658" lon="5.61296">
        <ele>124</ele>
        <time>2019-01-17T16:33:35Z</time>
      </trkpt>
      <trkpt lat="50.47666" lon="5.61261">
        <ele>126</ele>
        <time>2019-01-17T16:34:35Z</time>
      </trkpt>
      <trkpt lat="50.47677" lon="5.61234">
        <ele>128</ele>
        <time>2019-01-17T16:35:35Z</time>
      </trkpt>
      <trkpt lat="50.47686" lon="5.61211">
        <ele>130</ele>
        <time>2019-01-17T16:36:35Z</time>
      </trkpt>
      <trkpt lat="50.47723" lon="5.61134">
        <ele>132</ele>
        <time>2019-01-17T16:37:35Z</time>
      </trkpt>
      <trkpt lat="50.47739" lon="5.61108">
        <ele>132</ele>
        <time>2019-01-17T16:38:35Z</time>
      </trkpt>
      <trkpt lat="50.47766" lon="5.61062">
        <ele>136</ele>
        <time>2019-01-17T16:39:35Z</time>
      </trkpt>
      <trkpt lat="50.47784" lon="5.61044">
        <ele>136</ele>
        <time>2019-01-17T16:40:35Z</time>
      </trkpt>
      <trkpt lat="50.47929" lon="5.60914">
        <ele>119</ele>
        <time>2019-01-17T16:41:35Z</time>
      </trkpt>
      <trkpt lat="50.47999" lon="5.60851">
        <ele>116</ele>
        <time>2019-01-17T16:42:35Z</time>
      </trkpt>
      <trkpt lat="50.48024" lon="5.60827">
        <ele>117</ele>
        <time>2019-01-17T16:43:35Z</time>
      </trkpt>
      <trkpt lat="50.48052" lon="5.60797">
        <ele>119</ele>
        <time>2019-01-17T16:44:35Z</time>
      </trkpt>
      <trkpt lat="50.48077" lon="5.60757">
        <ele>121</ele>
        <time>2019-01-17T16:45:35Z</time>
      </trkpt>
      <trkpt lat="50.48105" lon="5.60709">
        <ele>121</ele>
        <time>2019-01-17T16:46:35Z</time>
      </trkpt>
      <trkpt lat="50.48133" lon="5.60607">
        <ele>118</ele>
        <time>2019-01-17T16:47:35Z</time>
      </trkpt>
      <trkpt lat="50.4815" lon="5.60534">
        <ele>114</ele>
        <time>2019-01-17T16:48:35Z</time>
      </trkpt>
      <trkpt lat="50.48155" lon="5.60499">
        <ele>112</ele>
        <time>2019-01-17T16:49:35Z</time>
      </trkpt>
      <trkpt lat="50.48155" lon="5.60421">
        <ele>112</ele>
        <time>2019-01-17T16:50:35Z</time>
      </trkpt>
      <trkpt lat="50.4814" lon="5.60301">
        <ele>117</ele>
        <time>2019-01-17T16:51:35Z</time>
      </trkpt>
      <trkpt lat="50.48122" lon="5.60161">
        <ele>122</ele>
        <time>2019-01-17T16:52:35Z</time>
      </trkpt>
      <trkpt lat="50.48083" lon="5.59849">
        <ele>114</ele>
        <time>2019-01-17T16:53:35Z</time>
      </trkpt>
      <trkpt lat="50.48027" lon="5.59414">
        <ele>116</ele>
        <time>2019-01-17T16:54:35Z</time>
      </trkpt>
      <trkpt lat="50.47988" lon="5.591">
        <ele>103</ele>
        <time>2019-01-17T16:55:35Z</time>
      </trkpt>
      <trkpt lat="50.47982" lon="5.59067">
        <ele>102</ele>
        <time>2019-01-17T16:56:35Z</time>
      </trkpt>
      <trkpt lat="50.48055" lon="5.59083">
        <ele>100</ele>
        <time>2019-01-17T16:57:35Z</time>
      </trkpt>
      <trkpt lat="50.48153" lon="5.59106">
        <ele>99</ele>
        <time>2019-01-17T16:58:35Z</time>
      </trkpt>
      <trkpt lat="50.48212" lon="5.5912">
        <ele>104</ele>
        <time>2019-01-17T16:59:35Z</time>
      </trkpt>
      <trkpt lat="50.48225" lon="5.59123">
        <ele>105</ele>
        <time>2019-01-17T17:00:35Z</time>
      </trkpt>
      <trkpt lat="50.48231" lon="5.59118">
        <ele>106</ele>
        <time>2019-01-17T17:01:35Z</time>
      </trkpt>
      <trkpt lat="50.48236" lon="5.5911">
        <ele>106</ele>
        <time>2019-01-17T17:02:35Z</time>
      </trkpt>
      <trkpt lat="50.4824" lon="5.59096">
        <ele>106</ele>
        <time>2019-01-17T17:03:35Z</time>
      </trkpt>
      <trkpt lat="50.48245" lon="5.5905">
        <ele>107</ele>
        <time>2019-01-17T17:04:35Z</time>
      </trkpt>
      <trkpt lat="50.48248" lon="5.59009">
        <ele>109</ele>
        <time>2019-01-17T17:05:35Z</time>
      </trkpt>
      <trkpt lat="50.48251" lon="5.5897">
        <ele>109</ele>
        <time>2019-01-17T17:06:35Z</time>
      </trkpt>
      <trkpt lat="50.48256" lon="5.58942">
        <ele>110</ele>
        <time>2019-01-17T17:07:35Z</time>
      </trkpt>
      <trkpt lat="50.48265" lon="5.5891">
        <ele>112</ele>
        <time>2019-01-17T17:08:35Z</time>
      </trkpt>
      <trkpt lat="50.48283" lon="5.5886">
        <ele>114</ele>
        <time>2019-01-17T17:09:35Z</time>
      </trkpt>
      <trkpt lat="50.483" lon="5.58819">
        <ele>114</ele>
        <time>2019-01-17T17:10:35Z</time>
      </trkpt>
      <trkpt lat="50.48311" lon="5.58809">
        <ele>115</ele>
        <time>2019-01-17T17:11:35Z</time>
      </trkpt>
      <trkpt lat="50.48338" lon="5.58797">
        <ele>119</ele>
        <time>2019-01-17T17:12:35Z</time>
      </trkpt>
      <trkpt lat="50.48374" lon="5.58742">
        <ele>117</ele>
        <time>2019-01-17T17:13:35Z</time>
      </trkpt>
      <trkpt lat="50.48379" lon="5.5873">
        <ele>116</ele>
        <time>2019-01-17T17:14:35Z</time>
      </trkpt>
      <trkpt lat="50.48375" lon="5.58705">
        <ele>111</ele>
        <time>2019-01-17T17:15:35Z</time>
      </trkpt>
      <trkpt lat="50.48373" lon="5.58684">
        <ele>106</ele>
        <time>2019-01-17T17:16:35Z</time>
      </trkpt>
      <trkpt lat="50.48402" lon="5.58658">
        <ele>106</ele>
        <time>2019-01-17T17:17:35Z</time>
      </trkpt>
      <trkpt lat="50.48429" lon="5.58639">
        <ele>107</ele>
        <time>2019-01-17T17:18:35Z</time>
      </trkpt>
      <trkpt lat="50.48475" lon="5.586">
        <ele>108</ele>
        <time>2019-01-17T17:19:35Z</time>
      </trkpt>
      <trkpt lat="50.48515" lon="5.58568">
        <ele>107</ele>
        <time>2019-01-17T17:20:35Z</time>
      </trkpt>
      <trkpt lat="50.48558" lon="5.58534">
        <ele>107</ele>
        <time>2019-01-17T17:21:35Z</time>
      </trkpt>
      <trkpt lat="50.4858" lon="5.58522">
        <ele>106</ele>
        <time>2019-01-17T17:22:35Z</time>
      </trkpt>
      <trkpt lat="50.48599" lon="5.58515">
        <ele>105</ele>
        <time>2019-01-17T17:23:35Z</time>
      </trkpt>
      <trkpt lat="50.48653" lon="5.58496">
        <ele>102</ele>
        <time>2019-01-17T17:24:35Z</time>
      </trkpt>
      <trkpt lat="50.48703" lon="5.58476">
        <ele>100</ele>
        <time>2019-01-17T17:25:35Z</time>
      </trkpt>
      <trkpt lat="50.48727" lon="5.58472">
        <ele>100</ele>
        <time>2019-01-17T17:26:35Z</time>
      </trkpt>
      <trkpt lat="50.48749" lon="5.58466">
        <ele>99</ele>
        <time>2019-01-17T17:27:35Z</time>
      </trkpt>
      <trkpt lat="50.48773" lon="5.58467">
        <ele>99</ele>
        <time>2019-01-17T17:28:35Z</time>
      </trkpt>
      <trkpt lat="50.4882" lon="5.58471">
        <ele>100</ele>
        <time>2019-01-17T17:29:35Z</time>
      </trkpt>
      <trkpt lat="50.48847" lon="5.58473">
        <ele>100</ele>
        <time>2019-01-17T17:30:35Z</time>
      </trkpt>
      <trkpt lat="50.48882" lon="5.58482">
        <ele>100</ele>
        <time>2019-01-17T17:31:35Z</time>
      </trkpt>
      <trkpt lat="50.48899" lon="5.58488">
        <ele>99</ele>
        <time>2019-01-17T17:32:35Z</time>
      </trkpt>
      <trkpt lat="50.48926" lon="5.58497">
        <ele>99</ele>
        <time>2019-01-17T17:33:35Z</time>
      </trkpt>
      <trkpt lat="50.48957" lon="5.58518">
        <ele>99</ele>
        <time>2019-01-17T17:34:35Z</time>
      </trkpt>
      <trkpt lat="50.48989" lon="5.58539">
        <ele>99</ele>
        <time>2019-01-17T17:35:35Z</time>
      </trkpt>
      <trkpt lat="50.49008" lon="5.58554">
        <ele>99</ele>
        <time>2019-01-17T17:36:35Z</time>
      </trkpt>
      <trkpt lat="50.4909" lon="5.58629">
        <ele>97</ele>
        <time>2019-01-17T17:37:35Z</time>
      </trkpt>
      <trkpt lat="50.49189" lon="5.58723">
        <ele>97</ele>
        <time>2019-01-17T17:38:35Z</time>
      </trkpt>
      <trkpt lat="50.49216" lon="5.58751">
        <ele>96</ele>
        <time>2019-01-17T17:39:35Z</time>
      </trkpt>
      <trkpt lat="50.4925" lon="5.58792">
        <ele>96</ele>
        <time>2019-01-17T17:40:35Z</time>
      </trkpt>
      <trkpt lat="50.49274" lon="5.58821">
        <ele>96</ele>
        <time>2019-01-17T17:41:35Z</time>
      </trkpt>
      <trkpt lat="50.49289" lon="5.58838">
        <ele>96</ele>
        <time>2019-01-17T17:42:35Z</time>
      </trkpt>
      <trkpt lat="50.49346" lon="5.58923">
        <ele>96</ele>
        <time>2019-01-17T17:43:35Z</time>
      </trkpt>
      <trkpt lat="50.4938" lon="5.58974">
        <ele>98</ele>
        <time>2019-01-17T17:44:35Z</time>
      </trkpt>
      <trkpt lat="50.49404" lon="5.59012">
        <ele>99</ele>
        <time>2019-01-17T17:45:35Z</time>
      </trkpt>
      <trkpt lat="50.49433" lon="5.59048">
        <ele>99</ele>
        <time>2019-01-17T17:46:35Z</time>
      </trkpt>
      <trkpt lat="50.49448" lon="5.59067">
        <ele>100</ele>
        <time>2019-01-17T17:47:35Z</time>
      </trkpt>
      <trkpt lat="50.49462" lon="5.5908">
        <ele>99</ele>
        <time>2019-01-17T17:48:35Z</time>
      </trkpt>
      <trkpt lat="50.49518" lon="5.59131">
        <ele>100</ele>
        <time>2019-01-17T17:49:35Z</time>
      </trkpt>
      <trkpt lat="50.49568" lon="5.59158">
        <ele>97</ele>
        <time>2019-01-17T17:50:35Z</time>
      </trkpt>
      <trkpt lat="50.49587" lon="5.59171">
        <ele>96</ele>
        <time>2019-01-17T17:51:35Z</time>
      </trkpt>
      <trkpt lat="50.49599" lon="5.59184">
        <ele>97</ele>
        <time>2019-01-17T17:52:35Z</time>
      </trkpt>
      <trkpt lat="50.49607" lon="5.592">
        <ele>98</ele>
        <time>2019-01-17T17:53:35Z</time>
      </trkpt>
      <trkpt lat="50.49615" lon="5.59211">
        <ele>98</ele>
        <time>2019-01-17T17:54:35Z</time>
      </trkpt>
      <trkpt lat="50.49622" lon="5.59218">
        <ele>98</ele>
        <time>2019-01-17T17:55:35Z</time>
      </trkpt>
      <trkpt lat="50.49638" lon="5.59224">
        <ele>98</ele>
        <time>2019-01-17T17:56:35Z</time>
      </trkpt>
      <trkpt lat="50.49646" lon="5.59228">
        <ele>98</ele>
        <time>2019-01-17T17:57:35Z</time>
      </trkpt>
      <trkpt lat="50.49673" lon="5.59251">
        <ele>96</ele>
        <time>2019-01-17T17:58:35Z</time>
      </trkpt>
      <trkpt lat="50.49693" lon="5.59274">
        <ele>97</ele>
        <time>2019-01-17T17:59:35Z</time>
      </trkpt>
      <trkpt lat="50.49719" lon="5.59312">
        <ele>97</ele>
        <time>2019-01-17T18:00:35Z</time>
      </trkpt>
      <trkpt lat="50.4974" lon="5.59342">
        <ele>96</ele>
        <time>2019-01-17T18:01:35Z</time>
      </trkpt>
      <trkpt lat="50.49753" lon="5.59361">
        <ele>96</ele>
        <time>2019-01-17T18:02:35Z</time>
      </trkpt>
      <trkpt lat="50.49772" lon="5.59384">
        <ele>96</ele>
        <time>2019-01-17T18:03:35Z</time>
      </trkpt>
      <trkpt lat="50.49789" lon="5.59403">
        <ele>95</ele>
        <time>2019-01-17T18:04:35Z</time>
      </trkpt>
      <trkpt lat="50.49842" lon="5.59456">
        <ele>95</ele>
        <time>2019-01-17T18:05:35Z</time>
      </trkpt>
      <trkpt lat="50.49874" lon="5.59486">
        <ele>95</ele>
        <time>2019-01-17T18:06:35Z</time>
      </trkpt>
      <trkpt lat="50.49898" lon="5.59507">
        <ele>95</ele>
        <time>2019-01-17T18:07:35Z</time>
      </trkpt>
      <trkpt lat="50.49944" lon="5.59544">
        <ele>94</ele>
        <time>2019-01-17T18:08:35Z</time>
      </trkpt>
      <trkpt lat="50.49986" lon="5.59574">
        <ele>95</ele>
        <time>2019-01-17T18:09:35Z</time>
      </trkpt>
      <trkpt lat="50.50018" lon="5.59593">
        <ele>95</ele>
        <time>2019-01-17T18:10:35Z</time>
      </trkpt>
      <trkpt lat="50.5005" lon="5.59602">
        <ele>94</ele>
        <time>2019-01-17T18:11:35Z</time>
      </trkpt>
      <trkpt lat="50.50104" lon="5.59617">
        <ele>94</ele>
        <time>2019-01-17T18:12:35Z</time>
      </trkpt>
      <trkpt lat="50.50123" lon="5.59626">
        <ele>94</ele>
        <time>2019-01-17T18:13:35Z</time>
      </trkpt>
      <trkpt lat="50.50135" lon="5.59631">
        <ele>94</ele>
        <time>2019-01-17T18:14:35Z</time>
      </trkpt>
      <trkpt lat="50.50145" lon="5.5964">
        <ele>94</ele>
        <time>2019-01-17T18:15:35Z</time>
      </trkpt>
      <trkpt lat="50.50155" lon="5.59656">
        <ele>94</ele>
        <time>2019-01-17T18:16:35Z</time>
      </trkpt>
      <trkpt lat="50.50168" lon="5.59677">
        <ele>94</ele>
        <time>2019-01-17T18:17:35Z</time>
      </trkpt>
      <trkpt lat="50.5018" lon="5.59699">
        <ele>94</ele>
        <time>2019-01-17T18:18:35Z</time>
      </trkpt>
      <trkpt lat="50.50209" lon="5.59738">
        <ele>95</ele>
        <time>2019-01-17T18:19:35Z</time>
      </trkpt>
      <trkpt lat="50.50227" lon="5.59763">
        <ele>96</ele>
        <time>2019-01-17T18:20:35Z</time>
      </trkpt>
      <trkpt lat="50.50238" lon="5.59769">
        <ele>96</ele>
        <time>2019-01-17T18:21:35Z</time>
      </trkpt>
      <trkpt lat="50.50246" lon="5.5977">
        <ele>96</ele>
        <time>2019-01-17T18:22:35Z</time>
      </trkpt>
      <trkpt lat="50.50251" lon="5.59795">
        <ele>97</ele>
        <time>2019-01-17T18:23:35Z</time>
      </trkpt>
      <trkpt lat="50.5027" lon="5.59867">
        <ele>106</ele>
        <time>2019-01-17T18:24:35Z</time>
      </trkpt>
      <trkpt lat="50.50303" lon="5.59919">
        <ele>111</ele>
        <time>2019-01-17T18:25:35Z</time>
      </trkpt>
      <trkpt lat="50.50339" lon="5.59969">
        <ele>116</ele>
        <time>2019-01-17T18:26:35Z</time>
      </trkpt>
      <trkpt lat="50.50358" lon="5.59998">
        <ele>119</ele>
        <time>2019-01-17T18:27:35Z</time>
      </trkpt>
      <trkpt lat="50.50387" lon="5.60042">
        <ele>121</ele>
        <time>2019-01-17T18:28:35Z</time>
      </trkpt>
      <trkpt lat="50.50426" lon="5.60085">
        <ele>114</ele>
        <time>2019-01-17T18:29:35Z</time>
      </trkpt>
      <trkpt lat="50.50448" lon="5.601">
        <ele>116</ele>
        <time>2019-01-17T18:30:35Z</time>
      </trkpt>
      <trkpt lat="50.50484" lon="5.60122">
        <ele>116</ele>
        <time>2019-01-17T18:31:35Z</time>
      </trkpt>
      <trkpt lat="50.50496" lon="5.60126">
        <ele>116</ele>
        <time>2019-01-17T18:32:35Z</time>
      </trkpt>
      <trkpt lat="50.50503" lon="5.60128">
        <ele>116</ele>
        <time>2019-01-17T18:33:35Z</time>
      </trkpt>
      <trkpt lat="50.50507" lon="5.60122">
        <ele>117</ele>
        <time>2019-01-17T18:34:35Z</time>
      </trkpt>
      <trkpt lat="50.50506" lon="5.60113">
        <ele>117</ele>
        <time>2019-01-17T18:35:35Z</time>
      </trkpt>
      <trkpt lat="50.50503" lon="5.60096">
        <ele>117</ele>
        <time>2019-01-17T18:36:35Z</time>
      </trkpt>
      <trkpt lat="50.50497" lon="5.60077">
        <ele>118</ele>
        <time>2019-01-17T18:37:35Z</time>
      </trkpt>
      <trkpt lat="50.50493" lon="5.60061">
        <ele>123</ele>
        <time>2019-01-17T18:38:35Z</time>
      </trkpt>
      <trkpt lat="50.50481" lon="5.60049">
        <ele>125</ele>
        <time>2019-01-17T18:39:35Z</time>
      </trkpt>
      <trkpt lat="50.50439" lon="5.60017">
        <ele>123</ele>
        <time>2019-01-17T18:40:35Z</time>
      </trkpt>
      <trkpt lat="50.50358" lon="5.5993">
        <ele>117</ele>
        <time>2019-01-17T18:41:35Z</time>
      </trkpt>
      <trkpt lat="50.50345" lon="5.59914">
        <ele>112</ele>
        <time>2019-01-17T18:42:35Z</time>
      </trkpt>
      <trkpt lat="50.50332" lon="5.5989">
        <ele>109</ele>
        <time>2019-01-17T18:43:35Z</time>
      </trkpt>
      <trkpt lat="50.50325" lon="5.59872">
        <ele>109</ele>
        <time>2019-01-17T18:44:35Z</time>
      </trkpt>
      <trkpt lat="50.5032" lon="5.5985">
        <ele>108</ele>
        <time>2019-01-17T18:45:35Z</time>
      </trkpt>
      <trkpt lat="50.50319" lon="5.59822">
        <ele>107</ele>
        <time>2019-01-17T18:46:35Z</time>
      </trkpt>
      <trkpt lat="50.50322" lon="5.59746">
        <ele>102</ele>
        <time>2019-01-17T18:47:35Z</time>
      </trkpt>
      <trkpt lat="50.50324" lon="5.59683">
        <ele>96</ele>
        <time>2019-01-17T18:48:35Z</time>
      </trkpt>
      <trkpt lat="50.50332" lon="5.5949">
        <ele>97</ele>
        <time>2019-01-17T18:49:35Z</time>
      </trkpt>
      <trkpt lat="50.50337" lon="5.5941">
        <ele>102</ele>
        <time>2019-01-17T18:50:35Z</time>
      </trkpt>
      <trkpt lat="50.50338" lon="5.59385">
        <ele>107</ele>
        <time>2019-01-17T18:51:35Z</time>
      </trkpt>
      <trkpt lat="50.50339" lon="5.59366">
        <ele>110</ele>
        <time>2019-01-17T18:52:35Z</time>
      </trkpt>
      <trkpt lat="50.50382" lon="5.59367">
        <ele>109</ele>
        <time>2019-01-17T18:53:35Z</time>
      </trkpt>
      <trkpt lat="50.50414" lon="5.59358">
        <ele>111</ele>
        <time>2019-01-17T18:54:35Z</time>
      </trkpt>
      <trkpt lat="50.50437" lon="5.59349">
        <ele>112</ele>
        <time>2019-01-17T18:55:35Z</time>
      </trkpt>
      <trkpt lat="50.50494" lon="5.59333">
        <ele>111</ele>
        <time>2019-01-17T18:56:35Z</time>
      </trkpt>
      <trkpt lat="50.50557" lon="5.59313">
        <ele>114</ele>
        <time>2019-01-17T18:57:35Z</time>
      </trkpt>
      <trkpt lat="50.50624" lon="5.593">
        <ele>114</ele>
        <time>2019-01-17T18:58:35Z</time>
      </trkpt>
      <trkpt lat="50.50684" lon="5.59299">
        <ele>110</ele>
        <time>2019-01-17T18:59:35Z</time>
      </trkpt>
      <trkpt lat="50.50708" lon="5.59291">
        <ele>108</ele>
        <time>2019-01-17T19:00:35Z</time>
      </trkpt>
      <trkpt lat="50.50723" lon="5.59285">
        <ele>108</ele>
        <time>2019-01-17T19:01:35Z</time>
      </trkpt>
      <trkpt lat="50.50756" lon="5.59263">
        <ele>106</ele>
        <time>2019-01-17T19:02:35Z</time>
      </trkpt>
      <trkpt lat="50.5078" lon="5.59237">
        <ele>106</ele>
        <time>2019-01-17T19:03:35Z</time>
      </trkpt>
      <trkpt lat="50.50796" lon="5.59209">
        <ele>106</ele>
        <time>2019-01-17T19:04:35Z</time>
      </trkpt>
      <trkpt lat="50.50836" lon="5.59091">
        <ele>104</ele>
        <time>2019-01-17T19:05:35Z</time>
      </trkpt>
      <trkpt lat="50.50841" lon="5.59066">
        <ele>105</ele>
        <time>2019-01-17T19:06:35Z</time>
      </trkpt>
      <trkpt lat="50.50846" lon="5.58987">
        <ele>106</ele>
        <time>2019-01-17T19:07:35Z</time>
      </trkpt>
      <trkpt lat="50.50852" lon="5.58923">
        <ele>108</ele>
        <time>2019-01-17T19:08:35Z</time>
      </trkpt>
      <trkpt lat="50.50857" lon="5.58884">
        <ele>109</ele>
        <time>2019-01-17T19:09:35Z</time>
      </trkpt>
      <trkpt lat="50.50862" lon="5.58864">
        <ele>109</ele>
        <time>2019-01-17T19:10:35Z</time>
      </trkpt>
      <trkpt lat="50.50887" lon="5.58781">
        <ele>108</ele>
        <time>2019-01-17T19:11:35Z</time>
      </trkpt>
      <trkpt lat="50.50904" lon="5.58725">
        <ele>106</ele>
        <time>2019-01-17T19:12:35Z</time>
      </trkpt>
      <trkpt lat="50.5092" lon="5.58674">
        <ele>105</ele>
        <time>2019-01-17T19:13:35Z</time>
      </trkpt>
      <trkpt lat="50.50937" lon="5.58617">
        <ele>104</ele>
        <time>2019-01-17T19:14:35Z</time>
      </trkpt>
      <trkpt lat="50.50953" lon="5.58566">
        <ele>103</ele>
        <time>2019-01-17T19:15:35Z</time>
      </trkpt>
      <trkpt lat="50.50968" lon="5.58507">
        <ele>102</ele>
        <time>2019-01-17T19:16:35Z</time>
      </trkpt>
      <trkpt lat="50.50973" lon="5.58463">
        <ele>101</ele>
        <time>2019-01-17T19:17:35Z</time>
      </trkpt>
      <trkpt lat="50.50973" lon="5.58425">
        <ele>100</ele>
        <time>2019-01-17T19:18:35Z</time>
      </trkpt>
      <trkpt lat="50.5097" lon="5.58389">
        <ele>99</ele>
        <time>2019-01-17T19:19:35Z</time>
      </trkpt>
      <trkpt lat="50.50945" lon="5.58213">
        <ele>96</ele>
        <time>2019-01-17T19:20:35Z</time>
      </trkpt>
      <trkpt lat="50.50918" lon="5.58087">
        <ele>95</ele>
        <time>2019-01-17T19:21:35Z</time>
      </trkpt>
      <trkpt lat="50.50914" lon="5.58067">
        <ele>95</ele>
        <time>2019-01-17T19:22:35Z</time>
      </trkpt>
      <trkpt lat="50.50905" lon="5.58036">
        <ele>96</ele>
        <time>2019-01-17T19:23:35Z</time>
      </trkpt>
      <trkpt lat="50.50863" lon="5.57934">
        <ele>98</ele>
        <time>2019-01-17T19:24:35Z</time>
      </trkpt>
      <trkpt lat="50.50851" lon="5.579">
        <ele>99</ele>
        <time>2019-01-17T19:25:35Z</time>
      </trkpt>
      <trkpt lat="50.50843" lon="5.57863">
        <ele>99</ele>
        <time>2019-01-17T19:26:35Z</time>
      </trkpt>
      <trkpt lat="50.50827" lon="5.5779">
        <ele>101</ele>
        <time>2019-01-17T19:27:35Z</time>
      </trkpt>
      <trkpt lat="50.50817" lon="5.5775">
        <ele>105</ele>
        <time>2019-01-17T19:28:35Z</time>
      </trkpt>
      <trkpt lat="50.50775" lon="5.57619">
        <ele>107</ele>
        <time>2019-01-17T19:29:35Z</time>
      </trkpt>
      <trkpt lat="50.50732" lon="5.57479">
        <ele>105</ele>
        <time>2019-01-17T19:30:35Z</time>
      </trkpt>
      <trkpt lat="50.50656" lon="5.5725">
        <ele>104</ele>
        <time>2019-01-17T19:31:35Z</time>
      </trkpt>
      <trkpt lat="50.50594" lon="5.57067">
        <ele>105</ele>
        <time>2019-01-17T19:32:35Z</time>
      </trkpt>
      <trkpt lat="50.50583" lon="5.57034">
        <ele>105</ele>
        <time>2019-01-17T19:33:35Z</time>
      </trkpt>
      <trkpt lat="50.50581" lon="5.56968">
        <ele>103</ele>
        <time>2019-01-17T19:34:35Z</time>
      </trkpt>
      <trkpt lat="50.50582" lon="5.56868">
        <ele>105</ele>
        <time>2019-01-17T19:35:35Z</time>
      </trkpt>
      <trkpt lat="50.50584" lon="5.56807">
        <ele>109</ele>
        <time>2019-01-17T19:36:35Z</time>
      </trkpt>
      <trkpt lat="50.50589" lon="5.56776">
        <ele>112</ele>
        <time>2019-01-17T19:37:35Z</time>
      </trkpt>
      <trkpt lat="50.50595" lon="5.56761">
        <ele>112</ele>
        <time>2019-01-17T19:38:35Z</time>
      </trkpt>
      <trkpt lat="50.50636" lon="5.56661">
        <ele>111</ele>
        <time>2019-01-17T19:39:35Z</time>
      </trkpt>
      <trkpt lat="50.50666" lon="5.56583">
        <ele>111</ele>
        <time>2019-01-17T19:40:35Z</time>
      </trkpt>
      <trkpt lat="50.50714" lon="5.56528">
        <ele>110</ele>
        <time>2019-01-17T19:41:35Z</time>
      </trkpt>
      <trkpt lat="50.5075" lon="5.56437">
        <ele>115</ele>
        <time>2019-01-17T19:42:35Z</time>
      </trkpt>
      <trkpt lat="50.5077" lon="5.56392">
        <ele>117</ele>
        <time>2019-01-17T19:43:35Z</time>
      </trkpt>
      <trkpt lat="50.50806" lon="5.56323">
        <ele>110</ele>
        <time>2019-01-17T19:44:35Z</time>
      </trkpt>
      <trkpt lat="50.50845" lon="5.56253">
        <ele>107</ele>
        <time>2019-01-17T19:45:35Z</time>
      </trkpt>
      <trkpt lat="50.50949" lon="5.56082">
        <ele>113</ele>
        <time>2019-01-17T19:46:35Z</time>
      </trkpt>
      <trkpt lat="50.50974" lon="5.56044">
        <ele>113</ele>
        <time>2019-01-17T19:47:35Z</time>
      </trkpt>
      <trkpt lat="50.50996" lon="5.56019">
        <ele>109</ele>
        <time>2019-01-17T19:48:35Z</time>
      </trkpt>
      <trkpt lat="50.51028" lon="5.55985">
        <ele>106</ele>
        <time>2019-01-17T19:49:35Z</time>
      </trkpt>
      <trkpt lat="50.51059" lon="5.5596">
        <ele>103</ele>
        <time>2019-01-17T19:50:35Z</time>
      </trkpt>
      <trkpt lat="50.51064" lon="5.55958">
        <ele>102</ele>
        <time>2019-01-17T19:51:35Z</time>
      </trkpt>
      <trkpt lat="50.51089" lon="5.55942">
        <ele>101</ele>
        <time>2019-01-17T19:52:35Z</time>
      </trkpt>
      <trkpt lat="50.51137" lon="5.55923">
        <ele>104</ele>
        <time>2019-01-17T19:53:35Z</time>
      </trkpt>
      <trkpt lat="50.51155" lon="5.5592">
        <ele>105</ele>
        <time>2019-01-17T19:54:35Z</time>
      </trkpt>
      <trkpt lat="50.51199" lon="5.55919">
        <ele>106</ele>
        <time>2019-01-17T19:55:35Z</time>
      </trkpt>
      <trkpt lat="50.51262" lon="5.55921">
        <ele>109</ele>
        <time>2019-01-17T19:56:35Z</time>
      </trkpt>
      <trkpt lat="50.51315" lon="5.55924">
        <ele>114</ele>
        <time>2019-01-17T19:57:35Z</time>
      </trkpt>
      <trkpt lat="50.51328" lon="5.55926">
        <ele>115</ele>
        <time>2019-01-17T19:58:35Z</time>
      </trkpt>
      <trkpt lat="50.51342" lon="5.5593">
        <ele>115</ele>
        <time>2019-01-17T19:59:35Z</time>
      </trkpt>
      <trkpt lat="50.51354" lon="5.55934">
        <ele>115</ele>
        <time>2019-01-17T20:00:35Z</time>
      </trkpt>
      <trkpt lat="50.51368" lon="5.5594">
        <ele>115</ele>
        <time>2019-01-17T20:01:35Z</time>
      </trkpt>
      <trkpt lat="50.51384" lon="5.5595">
        <ele>114</ele>
        <time>2019-01-17T20:02:35Z</time>
      </trkpt>
      <trkpt lat="50.51401" lon="5.55963">
        <ele>111</ele>
        <time>2019-01-17T20:03:35Z</time>
      </trkpt>
      <trkpt lat="50.51411" lon="5.55969">
        <ele>110</ele>
        <time>2019-01-17T20:04:35Z</time>
      </trkpt>
      <trkpt lat="50.51434" lon="5.55991">
        <ele>107</ele>
        <time>2019-01-17T20:05:35Z</time>
      </trkpt>
      <trkpt lat="50.51516" lon="5.56064">
        <ele>105</ele>
        <time>2019-01-17T20:06:35Z</time>
      </trkpt>
      <trkpt lat="50.51622" lon="5.56158">
        <ele>102</ele>
        <time>2019-01-17T20:07:35Z</time>
      </trkpt>
      <trkpt lat="50.51662" lon="5.56191">
        <ele>102</ele>
        <time>2019-01-17T20:08:35Z</time>
      </trkpt>
      <trkpt lat="50.51708" lon="5.56226">
        <ele>101</ele>
        <time>2019-01-17T20:09:35Z</time>
      </trkpt>
      <trkpt lat="50.51717" lon="5.56232">
        <ele>100</ele>
        <time>2019-01-17T20:10:35Z</time>
      </trkpt>
      <trkpt lat="50.51731" lon="5.5624">
        <ele>100</ele>
        <time>2019-01-17T20:11:35Z</time>
      </trkpt>
      <trkpt lat="50.51748" lon="5.56247">
        <ele>99</ele>
        <time>2019-01-17T20:12:35Z</time>
      </trkpt>
      <trkpt lat="50.51775" lon="5.56252">
        <ele>100</ele>
        <time>2019-01-17T20:13:35Z</time>
      </trkpt>
      <trkpt lat="50.51829" lon="5.56263">
        <ele>104</ele>
        <time>2019-01-17T20:14:35Z</time>
      </trkpt>
      <trkpt lat="50.51846" lon="5.56266">
        <ele>106</ele>
        <time>2019-01-17T20:15:35Z</time>
      </trkpt>
      <trkpt lat="50.51859" lon="5.5627">
        <ele>107</ele>
        <time>2019-01-17T20:16:35Z</time>
      </trkpt>
      <trkpt lat="50.51908" lon="5.56297">
        <ele>107</ele>
        <time>2019-01-17T20:17:35Z</time>
      </trkpt>
      <trkpt lat="50.52006" lon="5.56358">
        <ele>105</ele>
        <time>2019-01-17T20:18:35Z</time>
      </trkpt>
      <trkpt lat="50.52038" lon="5.56383">
        <ele>104</ele>
        <time>2019-01-17T20:19:35Z</time>
      </trkpt>
      <trkpt lat="50.5211" lon="5.56473">
        <ele>100</ele>
        <time>2019-01-17T20:20:35Z</time>
      </trkpt>
      <trkpt lat="50.52249" lon="5.56641">
        <ele>98</ele>
        <time>2019-01-17T20:21:35Z</time>
      </trkpt>
      <trkpt lat="50.52265" lon="5.5666">
        <ele>97</ele>
        <time>2019-01-17T20:22:35Z</time>
      </trkpt>
      <trkpt lat="50.52273" lon="5.56669">
        <ele>97</ele>
        <time>2019-01-17T20:23:35Z</time>
      </trkpt>
      <trkpt lat="50.52286" lon="5.56679">
        <ele>98</ele>
        <time>2019-01-17T20:24:35Z</time>
      </trkpt>
      <trkpt lat="50.523" lon="5.56691">
        <ele>98</ele>
        <time>2019-01-17T20:25:35Z</time>
      </trkpt>
      <trkpt lat="50.52448" lon="5.56788">
        <ele>104</ele>
        <time>2019-01-17T20:26:35Z</time>
      </trkpt>
      <trkpt lat="50.52596" lon="5.56888">
        <ele>99</ele>
        <time>2019-01-17T20:27:35Z</time>
      </trkpt>
      <trkpt lat="50.52629" lon="5.56911">
        <ele>93</ele>
        <time>2019-01-17T20:28:35Z</time>
      </trkpt>
      <trkpt lat="50.52649" lon="5.56921">
        <ele>91</ele>
        <time>2019-01-17T20:29:35Z</time>
      </trkpt>
      <trkpt lat="50.52663" lon="5.56925">
        <ele>91</ele>
        <time>2019-01-17T20:30:35Z</time>
      </trkpt>
      <trkpt lat="50.52677" lon="5.56924">
        <ele>90</ele>
        <time>2019-01-17T20:31:35Z</time>
      </trkpt>
      <trkpt lat="50.52687" lon="5.56924">
        <ele>90</ele>
        <time>2019-01-17T20:32:35Z</time>
      </trkpt>
      <trkpt lat="50.527" lon="5.5692">
        <ele>90</ele>
        <time>2019-01-17T20:33:35Z</time>
      </trkpt>
      <trkpt lat="50.52713" lon="5.5691">
        <ele>91</ele>
        <time>2019-01-17T20:34:35Z</time>
      </trkpt>
      <trkpt lat="50.52737" lon="5.56887">
        <ele>93</ele>
        <time>2019-01-17T20:35:35Z</time>
      </trkpt>
      <trkpt lat="50.52777" lon="5.56845">
        <ele>93</ele>
        <time>2019-01-17T20:36:35Z</time>
      </trkpt>
      <trkpt lat="50.52832" lon="5.56787">
        <ele>91</ele>
        <time>2019-01-17T20:37:35Z</time>
      </trkpt>
      <trkpt lat="50.52882" lon="5.56736">
        <ele>91</ele>
        <time>2019-01-17T20:38:35Z</time>
      </trkpt>
      <trkpt lat="50.52933" lon="5.5668">
        <ele>90</ele>
        <time>2019-01-17T20:39:35Z</time>
      </trkpt>
      <trkpt lat="50.52938" lon="5.56673">
        <ele>90</ele>
        <time>2019-01-17T20:40:35Z</time>
      </trkpt>
      <trkpt lat="50.52951" lon="5.56655">
        <ele>90</ele>
        <time>2019-01-17T20:41:35Z</time>
      </trkpt>
      <trkpt lat="50.52968" lon="5.56631">
        <ele>91</ele>
        <time>2019-01-17T20:42:35Z</time>
      </trkpt>
      <trkpt lat="50.52979" lon="5.56631">
        <ele>91</ele>
        <time>2019-01-17T20:43:35Z</time>
      </trkpt>
      <trkpt lat="50.52991" lon="5.56634">
        <ele>91</ele>
        <time>2019-01-17T20:44:35Z</time>
      </trkpt>
      <trkpt lat="50.53057" lon="5.56665">
        <ele>89</ele>
        <time>2019-01-17T20:45:35Z</time>
      </trkpt>
      <trkpt lat="50.5308" lon="5.56673">
        <ele>89</ele>
        <time>2019-01-17T20:46:35Z</time>
      </trkpt>
      <trkpt lat="50.53127" lon="5.56687">
        <ele>89</ele>
        <time>2019-01-17T20:47:35Z</time>
      </trkpt>
      <trkpt lat="50.53151" lon="5.56688">
        <ele>89</ele>
        <time>2019-01-17T20:48:35Z</time>
      </trkpt>
      <trkpt lat="50.53177" lon="5.56693">
        <ele>89</ele>
        <time>2019-01-17T20:49:35Z</time>
      </trkpt>
      <trkpt lat="50.53182" lon="5.56601">
        <ele>89</ele>
        <time>2019-01-17T20:50:35Z</time>
      </trkpt>
      <trkpt lat="50.53181" lon="5.56586">
        <ele>89</ele>
        <time>2019-01-17T20:51:35Z</time>
      </trkpt>
      <trkpt lat="50.53176" lon="5.56508">
        <ele>88</ele>
        <time>2019-01-17T20:52:35Z</time>
      </trkpt>
      <trkpt lat="50.53158" lon="5.56281">
        <ele>89</ele>
        <time>2019-01-17T20:53:35Z</time>
      </trkpt>
      <trkpt lat="50.53153" lon="5.5624">
        <ele>90</ele>
        <time>2019-01-17T20:54:35Z</time>
      </trkpt>
      <trkpt lat="50.53151" lon="5.56193">
        <ele>90</ele>
        <time>2019-01-17T20:55:35Z</time>
      </trkpt>
      <trkpt lat="50.53148" lon="5.56149">
        <ele>92</ele>
        <time>2019-01-17T20:56:35Z</time>
      </trkpt>
      <trkpt lat="50.5315" lon="5.56104">
        <ele>94</ele>
        <time>2019-01-17T20:57:35Z</time>
      </trkpt>
      <trkpt lat="50.53154" lon="5.56032">
        <ele>100</ele>
        <time>2019-01-17T20:58:35Z</time>
      </trkpt>
      <trkpt lat="50.53164" lon="5.55923">
        <ele>104</ele>
        <time>2019-01-17T20:59:35Z</time>
      </trkpt>
      <trkpt lat="50.53192" lon="5.55651">
        <ele>108</ele>
        <time>2019-01-17T21:00:35Z</time>
      </trkpt>
      <trkpt lat="50.53198" lon="5.55613">
        <ele>108</ele>
        <time>2019-01-17T21:01:35Z</time>
      </trkpt>
      <trkpt lat="50.53203" lon="5.55589">
        <ele>108</ele>
        <time>2019-01-17T21:02:35Z</time>
      </trkpt>
      <trkpt lat="50.53209" lon="5.5557">
        <ele>106</ele>
        <time>2019-01-17T21:03:35Z</time>
      </trkpt>
      <trkpt lat="50.5323" lon="5.55526">
        <ele>101</ele>
        <time>2019-01-17T21:04:35Z</time>
      </trkpt>
      <trkpt lat="50.53267" lon="5.55462">
        <ele>95</ele>
        <time>2019-01-17T21:05:35Z</time>
      </trkpt>
      <trkpt lat="50.53274" lon="5.55444">
        <ele>95</ele>
        <time>2019-01-17T21:06:35Z</time>
      </trkpt>
      <trkpt lat="50.53286" lon="5.55414">
        <ele>95</ele>
        <time>2019-01-17T21:07:35Z</time>
      </trkpt>
      <trkpt lat="50.53295" lon="5.55372">
        <ele>95</ele>
        <time>2019-01-17T21:08:35Z</time>
      </trkpt>
      <trkpt lat="50.53304" lon="5.55293">
        <ele>97</ele>
        <time>2019-01-17T21:09:35Z</time>
      </trkpt>
      <trkpt lat="50.53308" lon="5.55256">
        <ele>99</ele>
        <time>2019-01-17T21:10:35Z</time>
      </trkpt>
      <trkpt lat="50.53311" lon="5.55228">
        <ele>101</ele>
        <time>2019-01-17T21:11:35Z</time>
      </trkpt>
      <trkpt lat="50.53313" lon="5.5521">
        <ele>103</ele>
        <time>2019-01-17T21:12:35Z</time>
      </trkpt>
      <trkpt lat="50.53313" lon="5.55191">
        <ele>104</ele>
        <time>2019-01-17T21:13:35Z</time>
      </trkpt>
      <trkpt lat="50.53309" lon="5.55166">
        <ele>106</ele>
        <time>2019-01-17T21:14:35Z</time>
      </trkpt>
      <trkpt lat="50.53302" lon="5.55144">
        <ele>107</ele>
        <time>2019-01-17T21:15:35Z</time>
      </trkpt>
      <trkpt lat="50.53226" lon="5.5495">
        <ele>112</ele>
        <time>2019-01-17T21:16:35Z</time>
      </trkpt>
      <trkpt lat="50.53205" lon="5.54896">
        <ele>114</ele>
        <time>2019-01-17T21:17:35Z</time>
      </trkpt>
      <trkpt lat="50.53188" lon="5.54848">
        <ele>112</ele>
        <time>2019-01-17T21:18:35Z</time>
      </trkpt>
      <trkpt lat="50.53161" lon="5.54739">
        <ele>111</ele>
        <time>2019-01-17T21:19:35Z</time>
      </trkpt>
      <trkpt lat="50.53113" lon="5.54546">
        <ele>121</ele>
        <time>2019-01-17T21:20:35Z</time>
      </trkpt>
      <trkpt lat="50.53077" lon="5.54397">
        <ele>114</ele>
        <time>2019-01-17T21:21:35Z</time>
      </trkpt>
      <trkpt lat="50.53069" lon="5.54365">
        <ele>114</ele>
        <time>2019-01-17T21:22:35Z</time>
      </trkpt>
      <trkpt lat="50.53067" lon="5.54347">
        <ele>114</ele>
        <time>2019-01-17T21:23:35Z</time>
      </trkpt>
      <trkpt lat="50.53067" lon="5.54331">
        <ele>114</ele>
        <time>2019-01-17T21:24:35Z</time>
      </trkpt>
      <trkpt lat="50.53076" lon="5.54312">
        <ele>111</ele>
        <time>2019-01-17T21:25:35Z</time>
      </trkpt>
      <trkpt lat="50.53084" lon="5.54301">
        <ele>109</ele>
        <time>2019-01-17T21:26:35Z</time>
      </trkpt>
      <trkpt lat="50.53095" lon="5.54293">
        <ele>111</ele>
        <time>2019-01-17T21:27:35Z</time>
      </trkpt>
      <trkpt lat="50.5311" lon="5.5429">
        <ele>112</ele>
        <time>2019-01-17T21:28:35Z</time>
      </trkpt>
      <trkpt lat="50.53136" lon="5.54291">
        <ele>116</ele>
        <time>2019-01-17T21:29:35Z</time>
      </trkpt>
      <trkpt lat="50.53154" lon="5.54291">
        <ele>118</ele>
        <time>2019-01-17T21:30:35Z</time>
      </trkpt>
      <trkpt lat="50.53176" lon="5.54282">
        <ele>121</ele>
        <time>2019-01-17T21:31:35Z</time>
      </trkpt>
      <trkpt lat="50.53191" lon="5.54264">
        <ele>123</ele>
        <time>2019-01-17T21:32:35Z</time>
      </trkpt>
      <trkpt lat="50.53201" lon="5.54238">
        <ele>124</ele>
        <time>2019-01-17T21:33:35Z</time>
      </trkpt>
      <trkpt lat="50.53206" lon="5.54217">
        <ele>124</ele>
        <time>2019-01-17T21:34:35Z</time>
      </trkpt>
      <trkpt lat="50.53208" lon="5.54203">
        <ele>124</ele>
        <time>2019-01-17T21:35:35Z</time>
      </trkpt>
      <trkpt lat="50.53208" lon="5.5419">
        <ele>123</ele>
        <time>2019-01-17T21:36:35Z</time>
      </trkpt>
      <trkpt lat="50.53196" lon="5.54132">
        <ele>120</ele>
        <time>2019-01-17T21:37:35Z</time>
      </trkpt>
      <trkpt lat="50.5314" lon="5.53857">
        <ele>132</ele>
        <time>2019-01-17T21:38:35Z</time>
      </trkpt>
      <trkpt lat="50.53118" lon="5.5381">
        <ele>133</ele>
        <time>2019-01-17T21:39:35Z</time>
      </trkpt>
      <trkpt lat="50.531" lon="5.53787">
        <ele>132</ele>
        <time>2019-01-17T21:40:35Z</time>
      </trkpt>
      <trkpt lat="50.53083" lon="5.53771">
        <ele>129</ele>
        <time>2019-01-17T21:41:35Z</time>
      </trkpt>
      <trkpt lat="50.53066" lon="5.53761">
        <ele>130</ele>
        <time>2019-01-17T21:42:35Z</time>
      </trkpt>
      <trkpt lat="50.53041" lon="5.53746">
        <ele>130</ele>
        <time>2019-01-17T21:43:35Z</time>
      </trkpt>
      <trkpt lat="50.53006" lon="5.53731">
        <ele>130</ele>
        <time>2019-01-17T21:44:35Z</time>
      </trkpt>
      <trkpt lat="50.52973" lon="5.53713">
        <ele>130</ele>
        <time>2019-01-17T21:45:35Z</time>
      </trkpt>
      <trkpt lat="50.5294" lon="5.53694">
        <ele>129</ele>
        <time>2019-01-17T21:46:35Z</time>
      </trkpt>
      <trkpt lat="50.52919" lon="5.53678">
        <ele>128</ele>
        <time>2019-01-17T21:47:35Z</time>
      </trkpt>
      <trkpt lat="50.52894" lon="5.53654">
        <ele>128</ele>
        <time>2019-01-17T21:48:35Z</time>
      </trkpt>
      <trkpt lat="50.52874" lon="5.53622">
        <ele>128</ele>
        <time>2019-01-17T21:49:35Z</time>
      </trkpt>
      <trkpt lat="50.52861" lon="5.53599">
        <ele>126</ele>
        <time>2019-01-17T21:50:35Z</time>
      </trkpt>
      <trkpt lat="50.52852" lon="5.53552">
        <ele>127</ele>
        <time>2019-01-17T21:51:35Z</time>
      </trkpt>
      <trkpt lat="50.52838" lon="5.53493">
        <ele>127</ele>
        <time>2019-01-17T21:52:35Z</time>
      </trkpt>
      <trkpt lat="50.52801" lon="5.53263">
        <ele>129</ele>
        <time>2019-01-17T21:53:35Z</time>
      </trkpt>
      <trkpt lat="50.52797" lon="5.53188">
        <ele>131</ele>
        <time>2019-01-17T21:54:35Z</time>
      </trkpt>
      <trkpt lat="50.52793" lon="5.53026">
        <ele>127</ele>
        <time>2019-01-17T21:55:35Z</time>
      </trkpt>
      <trkpt lat="50.52874" lon="5.52939">
        <ele>132</ele>
        <time>2019-01-17T21:56:35Z</time>
      </trkpt>
      <trkpt lat="50.52955" lon="5.5289">
        <ele>140</ele>
        <time>2019-01-17T21:57:35Z</time>
      </trkpt>
      <trkpt lat="50.52979" lon="5.52869">
        <ele>141</ele>
        <time>2019-01-17T21:58:35Z</time>
      </trkpt>
      <trkpt lat="50.5301" lon="5.5284">
        <ele>139</ele>
        <time>2019-01-17T21:59:35Z</time>
      </trkpt>
      <trkpt lat="50.53038" lon="5.5281">
        <ele>142</ele>
        <time>2019-01-17T22:00:35Z</time>
      </trkpt>
      <trkpt lat="50.53066" lon="5.52765">
        <ele>140</ele>
        <time>2019-01-17T22:01:35Z</time>
      </trkpt>
      <trkpt lat="50.53082" lon="5.52734">
        <ele>137</ele>
        <time>2019-01-17T22:02:35Z</time>
      </trkpt>
      <trkpt lat="50.53091" lon="5.52713">
        <ele>139</ele>
        <time>2019-01-17T22:03:35Z</time>
      </trkpt>
      <trkpt lat="50.53115" lon="5.52645">
        <ele>143</ele>
        <time>2019-01-17T22:04:35Z</time>
      </trkpt>
      <trkpt lat="50.53135" lon="5.52582">
        <ele>144</ele>
        <time>2019-01-17T22:05:35Z</time>
      </trkpt>
      <trkpt lat="50.53143" lon="5.52566">
        <ele>144</ele>
        <time>2019-01-17T22:06:35Z</time>
      </trkpt>
      <trkpt lat="50.53164" lon="5.52539">
        <ele>142</ele>
        <time>2019-01-17T22:07:35Z</time>
      </trkpt>
      <trkpt lat="50.53189" lon="5.52525">
        <ele>142</ele>
        <time>2019-01-17T22:08:35Z</time>
      </trkpt>
      <trkpt lat="50.53249" lon="5.52507">
        <ele>142</ele>
        <time>2019-01-17T22:09:35Z</time>
      </trkpt>
      <trkpt lat="50.53314" lon="5.52481">
        <ele>146</ele>
        <time>2019-01-17T22:10:35Z</time>
      </trkpt>
      <trkpt lat="50.53324" lon="5.52476">
        <ele>146</ele>
        <time>2019-01-17T22:11:35Z</time>
      </trkpt>
      <trkpt lat="50.53331" lon="5.52472">
        <ele>146</ele>
        <time>2019-01-17T22:12:35Z</time>
      </trkpt>
      <trkpt lat="50.53336" lon="5.52468">
        <ele>147</ele>
        <time>2019-01-17T22:13:35Z</time>
      </trkpt>
      <trkpt lat="50.53342" lon="5.5246">
        <ele>149</ele>
        <time>2019-01-17T22:14:35Z</time>
      </trkpt>
      <trkpt lat="50.53346" lon="5.5245">
        <ele>150</ele>
        <time>2019-01-17T22:15:35Z</time>
      </trkpt>
      <trkpt lat="50.53349" lon="5.52441">
        <ele>151</ele>
        <time>2019-01-17T22:16:35Z</time>
      </trkpt>
      <trkpt lat="50.53351" lon="5.52419">
        <ele>151</ele>
        <time>2019-01-17T22:17:35Z</time>
      </trkpt>
      <trkpt lat="50.53352" lon="5.5236">
        <ele>153</ele>
        <time>2019-01-17T22:18:35Z</time>
      </trkpt>
      <trkpt lat="50.53353" lon="5.52286">
        <ele>157</ele>
        <time>2019-01-17T22:19:35Z</time>
      </trkpt>
      <trkpt lat="50.53356" lon="5.52261">
        <ele>159</ele>
        <time>2019-01-17T22:20:35Z</time>
      </trkpt>
      <trkpt lat="50.53361" lon="5.52239">
        <ele>160</ele>
        <time>2019-01-17T22:21:35Z</time>
      </trkpt>
      <trkpt lat="50.53369" lon="5.52212">
        <ele>162</ele>
        <time>2019-01-17T22:22:35Z</time>
      </trkpt>
      <trkpt lat="50.53382" lon="5.52186">
        <ele>163</ele>
        <time>2019-01-17T22:23:35Z</time>
      </trkpt>
      <trkpt lat="50.53434" lon="5.52136">
        <ele>165</ele>
        <time>2019-01-17T22:24:35Z</time>
      </trkpt>
      <trkpt lat="50.53494" lon="5.52103">
        <ele>161</ele>
        <time>2019-01-17T22:25:35Z</time>
      </trkpt>
      <trkpt lat="50.53516" lon="5.52091">
        <ele>162</ele>
        <time>2019-01-17T22:26:35Z</time>
      </trkpt>
      <trkpt lat="50.53533" lon="5.52068">
        <ele>164</ele>
        <time>2019-01-17T22:27:35Z</time>
      </trkpt>
      <trkpt lat="50.53543" lon="5.52041">
        <ele>165</ele>
        <time>2019-01-17T22:28:35Z</time>
      </trkpt>
      <trkpt lat="50.53577" lon="5.51946">
        <ele>168</ele>
        <time>2019-01-17T22:29:35Z</time>
      </trkpt>
      <trkpt lat="50.53591" lon="5.51906">
        <ele>172</ele>
        <time>2019-01-17T22:30:35Z</time>
      </trkpt>
      <trkpt lat="50.536" lon="5.5187">
        <ele>176</ele>
        <time>2019-01-17T22:31:35Z</time>
      </trkpt>
      <trkpt lat="50.53597" lon="5.51846">
        <ele>176</ele>
        <time>2019-01-17T22:32:35Z</time>
      </trkpt>
      <trkpt lat="50.53589" lon="5.51807">
        <ele>173</ele>
        <time>2019-01-17T22:33:35Z</time>
      </trkpt>
      <trkpt lat="50.53583" lon="5.51744">
        <ele>171</ele>
        <time>2019-01-17T22:34:35Z</time>
      </trkpt>
      <trkpt lat="50.53582" lon="5.51675">
        <ele>174</ele>
        <time>2019-01-17T22:35:35Z</time>
      </trkpt>
      <trkpt lat="50.53584" lon="5.51655">
        <ele>176</ele>
        <time>2019-01-17T22:36:35Z</time>
      </trkpt>
      <trkpt lat="50.53587" lon="5.51637">
        <ele>179</ele>
        <time>2019-01-17T22:37:35Z</time>
      </trkpt>
      <trkpt lat="50.53593" lon="5.51622">
        <ele>181</ele>
        <time>2019-01-17T22:38:35Z</time>
      </trkpt>
      <trkpt lat="50.53598" lon="5.51615">
        <ele>182</ele>
        <time>2019-01-17T22:39:35Z</time>
      </trkpt>
      <trkpt lat="50.53605" lon="5.51604">
        <ele>183</ele>
        <time>2019-01-17T22:40:35Z</time>
      </trkpt>
      <trkpt lat="50.53642" lon="5.51589">
        <ele>179</ele>
        <time>2019-01-17T22:41:35Z</time>
      </trkpt>
      <trkpt lat="50.53653" lon="5.51579">
        <ele>179</ele>
        <time>2019-01-17T22:42:35Z</time>
      </trkpt>
      <trkpt lat="50.53652" lon="5.51567">
        <ele>181</ele>
        <time>2019-01-17T22:43:35Z</time>
      </trkpt>
      <trkpt lat="50.5362" lon="5.51565">
        <ele>186</ele>
        <time>2019-01-17T22:44:35Z</time>
      </trkpt>
      <trkpt lat="50.5359" lon="5.51584">
        <ele>188</ele>
        <time>2019-01-17T22:45:35Z</time>
      </trkpt>
      <trkpt lat="50.53571" lon="5.51595">
        <ele>188</ele>
        <time>2019-01-17T22:46:35Z</time>
      </trkpt>
      <trkpt lat="50.53558" lon="5.51603">
        <ele>187</ele>
        <time>2019-01-17T22:47:35Z</time>
      </trkpt>
      <trkpt lat="50.53542" lon="5.51608">
        <ele>187</ele>
        <time>2019-01-17T22:48:35Z</time>
      </trkpt>
      <trkpt lat="50.53527" lon="5.51606">
        <ele>188</ele>
        <time>2019-01-17T22:49:35Z</time>
      </trkpt>
      <trkpt lat="50.53512" lon="5.51602">
        <ele>190</ele>
        <time>2019-01-17T22:50:35Z</time>
      </trkpt>
      <trkpt lat="50.53504" lon="5.51594">
        <ele>192</ele>
        <time>2019-01-17T22:51:35Z</time>
      </trkpt>
      <trkpt lat="50.53492" lon="5.51585">
        <ele>194</ele>
        <time>2019-01-17T22:52:35Z</time>
      </trkpt>
      <trkpt lat="50.53476" lon="5.51577">
        <ele>194</ele>
        <time>2019-01-17T22:53:35Z</time>
      </trkpt>
      <trkpt lat="50.53465" lon="5.51574">
        <ele>195</ele>
        <time>2019-01-17T22:54:35Z</time>
      </trkpt>
      <trkpt lat="50.53452" lon="5.51574">
        <ele>194</ele>
        <time>2019-01-17T22:55:35Z</time>
      </trkpt>
      <trkpt lat="50.53439" lon="5.51584">
        <ele>193</ele>
        <time>2019-01-17T22:56:35Z</time>
      </trkpt>
      <trkpt lat="50.53431" lon="5.51591">
        <ele>192</ele>
        <time>2019-01-17T22:57:35Z</time>
      </trkpt>
      <trkpt lat="50.53412" lon="5.51613">
        <ele>192</ele>
        <time>2019-01-17T22:58:35Z</time>
      </trkpt>
      <trkpt lat="50.53394" lon="5.51637">
        <ele>194</ele>
        <time>2019-01-17T22:59:35Z</time>
      </trkpt>
      <trkpt lat="50.53383" lon="5.5166">
        <ele>196</ele>
        <time>2019-01-17T23:00:35Z</time>
      </trkpt>
      <trkpt lat="50.53378" lon="5.51683">
        <ele>198</ele>
        <time>2019-01-17T23:01:35Z</time>
      </trkpt>
      <trkpt lat="50.53371" lon="5.51723">
        <ele>201</ele>
        <time>2019-01-17T23:02:35Z</time>
      </trkpt>
      <trkpt lat="50.53368" lon="5.51742">
        <ele>202</ele>
        <time>2019-01-17T23:03:35Z</time>
      </trkpt>
      <trkpt lat="50.53379" lon="5.51847">
        <ele>197</ele>
        <time>2019-01-17T23:04:35Z</time>
      </trkpt>
      <trkpt lat="50.53375" lon="5.51873">
        <ele>197</ele>
        <time>2019-01-17T23:05:35Z</time>
      </trkpt>
      <trkpt lat="50.53374" lon="5.51884">
        <ele>197</ele>
        <time>2019-01-17T23:06:35Z</time>
      </trkpt>
      <trkpt lat="50.53371" lon="5.51894">
        <ele>197</ele>
        <time>2019-01-17T23:07:35Z</time>
      </trkpt>
      <trkpt lat="50.53367" lon="5.51902">
        <ele>198</ele>
        <time>2019-01-17T23:08:35Z</time>
      </trkpt>
      <trkpt lat="50.53363" lon="5.51906">
        <ele>199</ele>
        <time>2019-01-17T23:09:35Z</time>
      </trkpt>
      <trkpt lat="50.53359" lon="5.51907">
        <ele>199</ele>
        <time>2019-01-17T23:10:35Z</time>
      </trkpt>
      <trkpt lat="50.53353" lon="5.51906">
        <ele>201</ele>
        <time>2019-01-17T23:11:35Z</time>
      </trkpt>
      <trkpt lat="50.53347" lon="5.51903">
        <ele>202</ele>
        <time>2019-01-17T23:12:35Z</time>
      </trkpt>
      <trkpt lat="50.53311" lon="5.5188">
        <ele>207</ele>
        <time>2019-01-17T23:13:35Z</time>
      </trkpt>
      <trkpt lat="50.53231" lon="5.51829">
        <ele>210</ele>
        <time>2019-01-17T23:14:35Z</time>
      </trkpt>
      <trkpt lat="50.53199" lon="5.51806">
        <ele>211</ele>
        <time>2019-01-17T23:15:35Z</time>
      </trkpt>
      <trkpt lat="50.53192" lon="5.51799">
        <ele>212</ele>
        <time>2019-01-17T23:16:35Z</time>
      </trkpt>
      <trkpt lat="50.53183" lon="5.51793">
        <ele>212</ele>
        <time>2019-01-17T23:17:35Z</time>
      </trkpt>
      <trkpt lat="50.53174" lon="5.51783">
        <ele>212</ele>
        <time>2019-01-17T23:18:35Z</time>
      </trkpt>
      <trkpt lat="50.53164" lon="5.51768">
        <ele>213</ele>
        <time>2019-01-17T23:19:35Z</time>
      </trkpt>
      <trkpt lat="50.53158" lon="5.5175">
        <ele>213</ele>
        <time>2019-01-17T23:20:35Z</time>
      </trkpt>
      <trkpt lat="50.53156" lon="5.51734">
        <ele>214</ele>
        <time>2019-01-17T23:21:35Z</time>
      </trkpt>
      <trkpt lat="50.53155" lon="5.51714">
        <ele>215</ele>
        <time>2019-01-17T23:22:35Z</time>
      </trkpt>
      <trkpt lat="50.53155" lon="5.51699">
        <ele>216</ele>
        <time>2019-01-17T23:23:35Z</time>
      </trkpt>
      <trkpt lat="50.53154" lon="5.51684">
        <ele>216</ele>
        <time>2019-01-17T23:24:35Z</time>
      </trkpt>
      <trkpt lat="50.53156" lon="5.51664">
        <ele>217</ele>
        <time>2019-01-17T23:25:35Z</time>
      </trkpt>
      <trkpt lat="50.53159" lon="5.51655">
        <ele>218</ele>
        <time>2019-01-17T23:26:35Z</time>
      </trkpt>
      <trkpt lat="50.53163" lon="5.51646">
        <ele>219</ele>
        <time>2019-01-17T23:27:35Z</time>
      </trkpt>
      <trkpt lat="50.53179" lon="5.51622">
        <ele>221</ele>
        <time>2019-01-17T23:28:35Z</time>
      </trkpt>
      <trkpt lat="50.53222" lon="5.51561">
        <ele>223</ele>
        <time>2019-01-17T23:29:35Z</time>
      </trkpt>
      <trkpt lat="50.53229" lon="5.51542">
        <ele>224</ele>
        <time>2019-01-17T23:30:35Z</time>
      </trkpt>
      <trkpt lat="50.53238" lon="5.51516">
        <ele>224</ele>
        <time>2019-01-17T23:31:35Z</time>
      </trkpt>
      <trkpt lat="50.53244" lon="5.51496">
        <ele>224</ele>
        <time>2019-01-17T23:32:35Z</time>
      </trkpt>
      <trkpt lat="50.53248" lon="5.51475">
        <ele>224</ele>
        <time>2019-01-17T23:33:35Z</time>
      </trkpt>
      <trkpt lat="50.53251" lon="5.51397">
        <ele>224</ele>
        <time>2019-01-17T23:34:35Z</time>
      </trkpt>
      <trkpt lat="50.53269" lon="5.51215">
        <ele>226</ele>
        <time>2019-01-17T23:35:35Z</time>
      </trkpt>
      <trkpt lat="50.53272" lon="5.51156">
        <ele>227</ele>
        <time>2019-01-17T23:36:35Z</time>
      </trkpt>
      <trkpt lat="50.53272" lon="5.51042">
        <ele>231</ele>
        <time>2019-01-17T23:37:35Z</time>
      </trkpt>
      <trkpt lat="50.5327" lon="5.51014">
        <ele>233</ele>
        <time>2019-01-17T23:38:35Z</time>
      </trkpt>
      <trkpt lat="50.53253" lon="5.50953">
        <ele>234</ele>
        <time>2019-01-17T23:39:35Z</time>
      </trkpt>
      <trkpt lat="50.53237" lon="5.50911">
        <ele>235</ele>
        <time>2019-01-17T23:40:35Z</time>
      </trkpt>
      <trkpt lat="50.5321" lon="5.50765">
        <ele>240</ele>
        <time>2019-01-17T23:41:35Z</time>
      </trkpt>
      <trkpt lat="50.53199" lon="5.50658">
        <ele>241</ele>
        <time>2019-01-17T23:42:35Z</time>
      </trkpt>
      <trkpt lat="50.532" lon="5.50374">
        <ele>238</ele>
        <time>2019-01-17T23:43:35Z</time>
      </trkpt>
      <trkpt lat="50.53196" lon="5.50173">
        <ele>238</ele>
        <time>2019-01-17T23:44:35Z</time>
      </trkpt>
      <trkpt lat="50.53195" lon="5.50023">
        <ele>234</ele>
        <time>2019-01-17T23:45:35Z</time>
      </trkpt>
      <trkpt lat="50.53191" lon="5.49939">
        <ele>234</ele>
        <time>2019-01-17T23:46:35Z</time>
      </trkpt>
      <trkpt lat="50.53199" lon="5.49877">
        <ele>234</ele>
        <time>2019-01-17T23:47:35Z</time>
      </trkpt>
      <trkpt lat="50.53204" lon="5.49844">
        <ele>233</ele>
        <time>2019-01-17T23:48:35Z</time>
      </trkpt>
      <trkpt lat="50.53211" lon="5.49795">
        <ele>233</ele>
        <time>2019-01-17T23:49:35Z</time>
      </trkpt>
      <trkpt lat="50.5322" lon="5.49747">
        <ele>233</ele>
        <time>2019-01-17T23:50:35Z</time>
      </trkpt>
      <trkpt lat="50.53226" lon="5.49731">
        <ele>233</ele>
        <time>2019-01-17T23:51:35Z</time>
      </trkpt>
      <trkpt lat="50.53236" lon="5.49708">
        <ele>232</ele>
        <time>2019-01-17T23:52:35Z</time>
      </trkpt>
      <trkpt lat="50.53246" lon="5.49688">
        <ele>232</ele>
        <time>2019-01-17T23:53:35Z</time>
      </trkpt>
      <trkpt lat="50.53291" lon="5.49629">
        <ele>231</ele>
        <time>2019-01-17T23:54:35Z</time>
      </trkpt>
      <trkpt lat="50.53326" lon="5.49588">
        <ele>232</ele>
        <time>2019-01-17T23:55:35Z</time>
      </trkpt>
      <trkpt lat="50.53346" lon="5.49575">
        <ele>233</ele>
        <time>2019-01-17T23:56:35Z</time>
      </trkpt>
      <trkpt lat="50.53357" lon="5.49568">
        <ele>234</ele>
        <time>2019-01-17T23:57:35Z</time>
      </trkpt>
      <trkpt lat="50.53391" lon="5.49558">
        <ele>237</ele>
        <time>2019-01-17T23:58:35Z</time>
      </trkpt>
      <trkpt lat="50.53419" lon="5.49547">
        <ele>240</ele>
        <time>2019-01-17T23:59:35Z</time>
      </trkpt>
      <trkpt lat="50.53509" lon="5.49516">
        <ele>244</ele>
        <time>2019-01-18T00:00:35Z</time>
      </trkpt>
      <trkpt lat="50.53548" lon="5.49504">
        <ele>243</ele>
        <time>2019-01-18T00:01:35Z</time>
      </trkpt>
      <trkpt lat="50.53553" lon="5.495">
        <ele>243</ele>
        <time>2019-01-18T00:02:35Z</time>
      </trkpt>
      <trkpt lat="50.53573" lon="5.49477">
        <ele>244</ele>
        <time>2019-01-18T00:03:35Z</time>
      </trkpt>
      <trkpt lat="50.53595" lon="5.49374">
        <ele>249</ele>
        <time>2019-01-18T00:04:35Z</time>
      </trkpt>
      <trkpt lat="50.53599" lon="5.49367">
        <ele>249</ele>
        <time>2019-01-18T00:05:35Z</time>
      </trkpt>
      <trkpt lat="50.53622" lon="5.49328">
        <ele>250</ele>
        <time>2019-01-18T00:06:35Z</time>
      </trkpt>
      <trkpt lat="50.53658" lon="5.49265">
        <ele>252</ele>
        <time>2019-01-18T00:07:35Z</time>
      </trkpt>
      <trkpt lat="50.53675" lon="5.49237">
        <ele>253</ele>
        <time>2019-01-18T00:08:35Z</time>
      </trkpt>
      <trkpt lat="50.53681" lon="5.49211">
        <ele>254</ele>
        <time>2019-01-18T00:09:35Z</time>
      </trkpt>
      <trkpt lat="50.53694" lon="5.49161">
        <ele>255</ele>
        <time>2019-01-18T00:10:35Z</time>
      </trkpt>
      <trkpt lat="50.53706" lon="5.49103">
        <ele>255</ele>
        <time>2019-01-18T00:11:35Z</time>
      </trkpt>
      <trkpt lat="50.53724" lon="5.49038">
        <ele>256</ele>
        <time>2019-01-18T00:12:35Z</time>
      </trkpt>
      <trkpt lat="50.53734" lon="5.49015">
        <ele>257</ele>
        <time>2019-01-18T00:13:35Z</time>
      </trkpt>
      <trkpt lat="50.5382" lon="5.48854">
        <ele>263</ele>
        <time>2019-01-18T00:14:35Z</time>
      </trkpt>
      <trkpt lat="50.53845" lon="5.48803">
        <ele>265</ele>
        <time>2019-01-18T00:15:35Z</time>
      </trkpt>
      <trkpt lat="50.53848" lon="5.48785">
        <ele>265</ele>
        <time>2019-01-18T00:16:35Z</time>
      </trkpt>
      <trkpt lat="50.53849" lon="5.48688">
        <ele>264</ele>
        <time>2019-01-18T00:17:35Z</time>
      </trkpt>
      <trkpt lat="50.53844" lon="5.48334">
        <ele>257</ele>
        <time>2019-01-18T00:18:35Z</time>
      </trkpt>
      <trkpt lat="50.53837" lon="5.47999">
        <ele>262</ele>
        <time>2019-01-18T00:19:35Z</time>
      </trkpt>
      <trkpt lat="50.53836" lon="5.47977">
        <ele>262</ele>
        <time>2019-01-18T00:20:35Z</time>
      </trkpt>
      <trkpt lat="50.53835" lon="5.4797">
        <ele>262</ele>
        <time>2019-01-18T00:21:35Z</time>
      </trkpt>
      <trkpt lat="50.53809" lon="5.4783">
        <ele>260</ele>
        <time>2019-01-18T00:22:35Z</time>
      </trkpt>
      <trkpt lat="50.53804" lon="5.47746">
        <ele>261</ele>
        <time>2019-01-18T00:23:35Z</time>
      </trkpt>
      <trkpt lat="50.53801" lon="5.47672">
        <ele>262</ele>
        <time>2019-01-18T00:24:35Z</time>
      </trkpt>
      <trkpt lat="50.53805" lon="5.47613">
        <ele>263</ele>
        <time>2019-01-18T00:25:35Z</time>
      </trkpt>
      <trkpt lat="50.5384" lon="5.4741">
        <ele>266</ele>
        <time>2019-01-18T00:26:35Z</time>
      </trkpt>
      <trkpt lat="50.53856" lon="5.47313">
        <ele>269</ele>
        <time>2019-01-18T00:27:35Z</time>
      </trkpt>
      <trkpt lat="50.53863" lon="5.47284">
        <ele>269</ele>
        <time>2019-01-18T00:28:35Z</time>
      </trkpt>
      <trkpt lat="50.53875" lon="5.47256">
        <ele>270</ele>
        <time>2019-01-18T00:29:35Z</time>
      </trkpt>
      <trkpt lat="50.53882" lon="5.47234">
        <ele>270</ele>
        <time>2019-01-18T00:30:35Z</time>
      </trkpt>
      <trkpt lat="50.53902" lon="5.47109">
        <ele>269</ele>
        <time>2019-01-18T00:31:35Z</time>
      </trkpt>
      <trkpt lat="50.53962" lon="5.4675">
        <ele>263</ele>
        <time>2019-01-18T00:32:35Z</time>
      </trkpt>
      <trkpt lat="50.53998" lon="5.46563">
        <ele>257</ele>
        <time>2019-01-18T00:33:35Z</time>
      </trkpt>
      <trkpt lat="50.54026" lon="5.4645">
        <ele>255</ele>
        <time>2019-01-18T00:34:35Z</time>
      </trkpt>
      <trkpt lat="50.54048" lon="5.4636">
        <ele>255</ele>
        <time>2019-01-18T00:35:35Z</time>
      </trkpt>
      <trkpt lat="50.54053" lon="5.46316">
        <ele>255</ele>
        <time>2019-01-18T00:36:35Z</time>
      </trkpt>
      <trkpt lat="50.54057" lon="5.46269">
        <ele>255</ele>
        <time>2019-01-18T00:37:35Z</time>
      </trkpt>
      <trkpt lat="50.54061" lon="5.46235">
        <ele>255</ele>
        <time>2019-01-18T00:38:35Z</time>
      </trkpt>
      <trkpt lat="50.54067" lon="5.46221">
        <ele>255</ele>
        <time>2019-01-18T00:39:35Z</time>
      </trkpt>
      <trkpt lat="50.54077" lon="5.46203">
        <ele>255</ele>
        <time>2019-01-18T00:40:35Z</time>
      </trkpt>
      <trkpt lat="50.54089" lon="5.46185">
        <ele>254</ele>
        <time>2019-01-18T00:41:35Z</time>
      </trkpt>
      <trkpt lat="50.54112" lon="5.46137">
        <ele>254</ele>
        <time>2019-01-18T00:42:35Z</time>
      </trkpt>
      <trkpt lat="50.54133" lon="5.46091">
        <ele>254</ele>
        <time>2019-01-18T00:43:35Z</time>
      </trkpt>
      <trkpt lat="50.54145" lon="5.46063">
        <ele>254</ele>
        <time>2019-01-18T00:44:35Z</time>
      </trkpt>
      <trkpt lat="50.54154" lon="5.46045">
        <ele>253</ele>
        <time>2019-01-18T00:45:35Z</time>
      </trkpt>
      <trkpt lat="50.5417" lon="5.46024">
        <ele>253</ele>
        <time>2019-01-18T00:46:35Z</time>
      </trkpt>
      <trkpt lat="50.5418" lon="5.46014">
        <ele>253</ele>
        <time>2019-01-18T00:47:35Z</time>
      </trkpt>
      <trkpt lat="50.54247" lon="5.4596">
        <ele>252</ele>
        <time>2019-01-18T00:48:35Z</time>
      </trkpt>
      <trkpt lat="50.54303" lon="5.4591">
        <ele>251</ele>
        <time>2019-01-18T00:49:35Z</time>
      </trkpt>
      <trkpt lat="50.54313" lon="5.45901">
        <ele>250</ele>
        <time>2019-01-18T00:50:35Z</time>
      </trkpt>
      <trkpt lat="50.54553" lon="5.45682">
        <ele>237</ele>
        <time>2019-01-18T00:51:35Z</time>
      </trkpt>
      <trkpt lat="50.54609" lon="5.45633">
        <ele>232</ele>
        <time>2019-01-18T00:52:35Z</time>
      </trkpt>
      <trkpt lat="50.54722" lon="5.4553">
        <ele>225</ele>
        <time>2019-01-18T00:53:35Z</time>
      </trkpt>
      <trkpt lat="50.54935" lon="5.45338">
        <ele>212</ele>
        <time>2019-01-18T00:54:35Z</time>
      </trkpt>
      <trkpt lat="50.5504" lon="5.45242">
        <ele>215</ele>
        <time>2019-01-18T00:55:35Z</time>
      </trkpt>
      <trkpt lat="50.55059" lon="5.45226">
        <ele>217</ele>
        <time>2019-01-18T00:56:35Z</time>
      </trkpt>
      <trkpt lat="50.55074" lon="5.45222">
        <ele>218</ele>
        <time>2019-01-18T00:57:35Z</time>
      </trkpt>
      <trkpt lat="50.55126" lon="5.45231">
        <ele>221</ele>
        <time>2019-01-18T00:58:35Z</time>
      </trkpt>
      <trkpt lat="50.55149" lon="5.45225">
        <ele>223</ele>
        <time>2019-01-18T00:59:35Z</time>
      </trkpt>
      <trkpt lat="50.55181" lon="5.45206">
        <ele>225</ele>
        <time>2019-01-18T01:00:35Z</time>
      </trkpt>
      <trkpt lat="50.55218" lon="5.45183">
        <ele>226</ele>
        <time>2019-01-18T01:01:35Z</time>
      </trkpt>
      <trkpt lat="50.55238" lon="5.45171">
        <ele>227</ele>
        <time>2019-01-18T01:02:35Z</time>
      </trkpt>
      <trkpt lat="50.5524" lon="5.45164">
        <ele>227</ele>
        <time>2019-01-18T01:03:35Z</time>
      </trkpt>
      <trkpt lat="50.55243" lon="5.45143">
        <ele>227</ele>
        <time>2019-01-18T01:04:35Z</time>
      </trkpt>
      <trkpt lat="50.55247" lon="5.45121">
        <ele>228</ele>
        <time>2019-01-18T01:05:35Z</time>
      </trkpt>
      <trkpt lat="50.55253" lon="5.4512">
        <ele>228</ele>
        <time>2019-01-18T01:06:35Z</time>
      </trkpt>
      <trkpt lat="50.55282" lon="5.4512">
        <ele>230</ele>
        <time>2019-01-18T01:07:35Z</time>
      </trkpt>
      <trkpt lat="50.55286" lon="5.45092">
        <ele>231</ele>
        <time>2019-01-18T01:08:35Z</time>
      </trkpt>
      <trkpt lat="50.55362" lon="5.44948">
        <ele>234</ele>
        <time>2019-01-18T01:09:35Z</time>
      </trkpt>
      <trkpt lat="50.55401" lon="5.44878">
        <ele>235</ele>
        <time>2019-01-18T01:10:35Z</time>
      </trkpt>
      <trkpt lat="50.55418" lon="5.44852">
        <ele>234</ele>
        <time>2019-01-18T01:11:35Z</time>
      </trkpt>
      <trkpt lat="50.55504" lon="5.44745">
        <ele>237</ele>
        <time>2019-01-18T01:12:35Z</time>
      </trkpt>
      <trkpt lat="50.55816" lon="5.44364">
        <ele>230</ele>
        <time>2019-01-18T01:13:35Z</time>
      </trkpt>
      <trkpt lat="50.55976" lon="5.44166">
        <ele>223</ele>
        <time>2019-01-18T01:14:35Z</time>
      </trkpt>
      <trkpt lat="50.5609" lon="5.44027">
        <ele>219</ele>
        <time>2019-01-18T01:15:35Z</time>
      </trkpt>
      <trkpt lat="50.56125" lon="5.43986">
        <ele>218</ele>
        <time>2019-01-18T01:16:35Z</time>
      </trkpt>
      <trkpt lat="50.56207" lon="5.43875">
        <ele>216</ele>
        <time>2019-01-18T01:17:35Z</time>
      </trkpt>
      <trkpt lat="50.56259" lon="5.43794">
        <ele>214</ele>
        <time>2019-01-18T01:18:35Z</time>
      </trkpt>
      <trkpt lat="50.56292" lon="5.43723">
        <ele>213</ele>
        <time>2019-01-18T01:19:35Z</time>
      </trkpt>
      <trkpt lat="50.5634" lon="5.43618">
        <ele>214</ele>
        <time>2019-01-18T01:20:35Z</time>
      </trkpt>
      <trkpt lat="50.56359" lon="5.43583">
        <ele>214</ele>
        <time>2019-01-18T01:21:35Z</time>
      </trkpt>
      <trkpt lat="50.56383" lon="5.43542">
        <ele>213</ele>
        <time>2019-01-18T01:22:35Z</time>
      </trkpt>
      <trkpt lat="50.56436" lon="5.43449">
        <ele>211</ele>
        <time>2019-01-18T01:23:35Z</time>
      </trkpt>
      <trkpt lat="50.56457" lon="5.43406">
        <ele>211</ele>
        <time>2019-01-18T01:24:35Z</time>
      </trkpt>
      <trkpt lat="50.56456" lon="5.43375">
        <ele>210</ele>
        <time>2019-01-18T01:25:35Z</time>
      </trkpt>
      <trkpt lat="50.56457" lon="5.4335">
        <ele>209</ele>
        <time>2019-01-18T01:26:35Z</time>
      </trkpt>
      <trkpt lat="50.56474" lon="5.43289">
        <ele>206</ele>
        <time>2019-01-18T01:27:35Z</time>
      </trkpt>
      <trkpt lat="50.56501" lon="5.43219">
        <ele>202</ele>
        <time>2019-01-18T01:28:35Z</time>
      </trkpt>
      <trkpt lat="50.56513" lon="5.43184">
        <ele>201</ele>
        <time>2019-01-18T01:29:35Z</time>
      </trkpt>
      <trkpt lat="50.56514" lon="5.43167">
        <ele>200</ele>
        <time>2019-01-18T01:30:35Z</time>
      </trkpt>
      <trkpt lat="50.56514" lon="5.43153">
        <ele>200</ele>
        <time>2019-01-18T01:31:35Z</time>
      </trkpt>
      <trkpt lat="50.5651" lon="5.4313">
        <ele>199</ele>
        <time>2019-01-18T01:32:35Z</time>
      </trkpt>
      <trkpt lat="50.56499" lon="5.43079">
        <ele>197</ele>
        <time>2019-01-18T01:33:35Z</time>
      </trkpt>
      <trkpt lat="50.56497" lon="5.43066">
        <ele>197</ele>
        <time>2019-01-18T01:34:35Z</time>
      </trkpt>
      <trkpt lat="50.56499" lon="5.43039">
        <ele>196</ele>
        <time>2019-01-18T01:35:35Z</time>
      </trkpt>
      <trkpt lat="50.56497" lon="5.42999">
        <ele>195</ele>
        <time>2019-01-18T01:36:35Z</time>
      </trkpt>
      <trkpt lat="50.56492" lon="5.42978">
        <ele>196</ele>
        <time>2019-01-18T01:37:35Z</time>
      </trkpt>
      <trkpt lat="50.56485" lon="5.42956">
        <ele>196</ele>
        <time>2019-01-18T01:38:35Z</time>
      </trkpt>
      <trkpt lat="50.56467" lon="5.42932">
        <ele>197</ele>
        <time>2019-01-18T01:39:35Z</time>
      </trkpt>
      <trkpt lat="50.56448" lon="5.42905">
        <ele>196</ele>
        <time>2019-01-18T01:40:35Z</time>
      </trkpt>
      <trkpt lat="50.56446" lon="5.42869">
        <ele>195</ele>
        <time>2019-01-18T01:41:35Z</time>
      </trkpt>
      <trkpt lat="50.56449" lon="5.42807">
        <ele>193</ele>
        <time>2019-01-18T01:42:35Z</time>
      </trkpt>
      <trkpt lat="50.56447" lon="5.42766">
        <ele>191</ele>
        <time>2019-01-18T01:43:35Z</time>
      </trkpt>
      <trkpt lat="50.56432" lon="5.42732">
        <ele>187</ele>
        <time>2019-01-18T01:44:35Z</time>
      </trkpt>
      <trkpt lat="50.56422" lon="5.42694">
        <ele>183</ele>
        <time>2019-01-18T01:45:35Z</time>
      </trkpt>
      <trkpt lat="50.56421" lon="5.42655">
        <ele>181</ele>
        <time>2019-01-18T01:46:35Z</time>
      </trkpt>
      <trkpt lat="50.56427" lon="5.42617">
        <ele>180</ele>
        <time>2019-01-18T01:47:35Z</time>
      </trkpt>
      <trkpt lat="50.56434" lon="5.42593">
        <ele>180</ele>
        <time>2019-01-18T01:48:35Z</time>
      </trkpt>
      <trkpt lat="50.56437" lon="5.42563">
        <ele>178</ele>
        <time>2019-01-18T01:49:35Z</time>
      </trkpt>
      <trkpt lat="50.56449" lon="5.42527">
        <ele>176</ele>
        <time>2019-01-18T01:50:35Z</time>
      </trkpt>
      <trkpt lat="50.56468" lon="5.42504">
        <ele>175</ele>
        <time>2019-01-18T01:51:35Z</time>
      </trkpt>
      <trkpt lat="50.56484" lon="5.4248">
        <ele>173</ele>
        <time>2019-01-18T01:52:35Z</time>
      </trkpt>
      <trkpt lat="50.565" lon="5.42453">
        <ele>171</ele>
        <time>2019-01-18T01:53:35Z</time>
      </trkpt>
      <trkpt lat="50.56516" lon="5.42412">
        <ele>169</ele>
        <time>2019-01-18T01:54:35Z</time>
      </trkpt>
      <trkpt lat="50.56559" lon="5.42368">
        <ele>169</ele>
        <time>2019-01-18T01:55:35Z</time>
      </trkpt>
      <trkpt lat="50.56585" lon="5.42348">
        <ele>166</ele>
        <time>2019-01-18T01:56:35Z</time>
      </trkpt>
      <trkpt lat="50.56609" lon="5.42303">
        <ele>166</ele>
        <time>2019-01-18T01:57:35Z</time>
      </trkpt>
      <trkpt lat="50.56635" lon="5.42253">
        <ele>164</ele>
        <time>2019-01-18T01:58:35Z</time>
      </trkpt>
      <trkpt lat="50.56659" lon="5.42202">
        <ele>161</ele>
        <time>2019-01-18T01:59:35Z</time>
      </trkpt>
      <trkpt lat="50.56669" lon="5.42158">
        <ele>158</ele>
        <time>2019-01-18T02:00:35Z</time>
      </trkpt>
      <trkpt lat="50.56687" lon="5.42131">
        <ele>159</ele>
        <time>2019-01-18T02:01:35Z</time>
      </trkpt>
      <trkpt lat="50.5673" lon="5.4212">
        <ele>158</ele>
        <time>2019-01-18T02:02:35Z</time>
      </trkpt>
      <trkpt lat="50.56757" lon="5.42128">
        <ele>158</ele>
        <time>2019-01-18T02:03:35Z</time>
      </trkpt>
      <trkpt lat="50.56814" lon="5.42139">
        <ele>156</ele>
        <time>2019-01-18T02:04:35Z</time>
      </trkpt>
      <trkpt lat="50.56851" lon="5.42137">
        <ele>155</ele>
        <time>2019-01-18T02:05:35Z</time>
      </trkpt>
      <trkpt lat="50.56895" lon="5.4212">
        <ele>151</ele>
        <time>2019-01-18T02:06:35Z</time>
      </trkpt>
      <trkpt lat="50.56922" lon="5.42111">
        <ele>149</ele>
        <time>2019-01-18T02:07:35Z</time>
      </trkpt>
      <trkpt lat="50.56952" lon="5.42105">
        <ele>149</ele>
        <time>2019-01-18T02:08:35Z</time>
      </trkpt>
      <trkpt lat="50.56985" lon="5.42087">
        <ele>144</ele>
        <time>2019-01-18T02:09:35Z</time>
      </trkpt>
      <trkpt lat="50.57011" lon="5.42058">
        <ele>146</ele>
        <time>2019-01-18T02:10:35Z</time>
      </trkpt>
      <trkpt lat="50.57048" lon="5.41999">
        <ele>148</ele>
        <time>2019-01-18T02:11:35Z</time>
      </trkpt>
      <trkpt lat="50.57071" lon="5.41941">
        <ele>143</ele>
        <time>2019-01-18T02:12:35Z</time>
      </trkpt>
      <trkpt lat="50.57116" lon="5.41889">
        <ele>137</ele>
        <time>2019-01-18T02:13:35Z</time>
      </trkpt>
      <trkpt lat="50.57139" lon="5.41867">
        <ele>134</ele>
        <time>2019-01-18T02:14:35Z</time>
      </trkpt>
      <trkpt lat="50.57169" lon="5.41859">
        <ele>130</ele>
        <time>2019-01-18T02:15:35Z</time>
      </trkpt>
      <trkpt lat="50.57196" lon="5.41851">
        <ele>130</ele>
        <time>2019-01-18T02:16:35Z</time>
      </trkpt>
      <trkpt lat="50.57237" lon="5.41824">
        <ele>128</ele>
        <time>2019-01-18T02:17:35Z</time>
      </trkpt>
      <trkpt lat="50.57257" lon="5.41802">
        <ele>129</ele>
        <time>2019-01-18T02:18:35Z</time>
      </trkpt>
      <trkpt lat="50.57269" lon="5.41778">
        <ele>131</ele>
        <time>2019-01-18T02:19:35Z</time>
      </trkpt>
      <trkpt lat="50.57281" lon="5.41712">
        <ele>130</ele>
        <time>2019-01-18T02:20:35Z</time>
      </trkpt>
      <trkpt lat="50.57297" lon="5.41638">
        <ele>128</ele>
        <time>2019-01-18T02:21:35Z</time>
      </trkpt>
      <trkpt lat="50.57324" lon="5.41598">
        <ele>125</ele>
        <time>2019-01-18T02:22:35Z</time>
      </trkpt>
      <trkpt lat="50.57353" lon="5.41563">
        <ele>124</ele>
        <time>2019-01-18T02:23:35Z</time>
      </trkpt>
      <trkpt lat="50.574" lon="5.41523">
        <ele>120</ele>
        <time>2019-01-18T02:24:35Z</time>
      </trkpt>
      <trkpt lat="50.57461" lon="5.41468">
        <ele>111</ele>
        <time>2019-01-18T02:25:35Z</time>
      </trkpt>
      <trkpt lat="50.57486" lon="5.41434">
        <ele>106</ele>
        <time>2019-01-18T02:26:35Z</time>
      </trkpt>
      <trkpt lat="50.57512" lon="5.41385">
        <ele>104</ele>
        <time>2019-01-18T02:27:35Z</time>
      </trkpt>
      <trkpt lat="50.57552" lon="5.41283">
        <ele>106</ele>
        <time>2019-01-18T02:28:35Z</time>
      </trkpt>
      <trkpt lat="50.57606" lon="5.4114">
        <ele>101</ele>
        <time>2019-01-18T02:29:35Z</time>
      </trkpt>
      <trkpt lat="50.57634" lon="5.41068">
        <ele>99</ele>
        <time>2019-01-18T02:30:35Z</time>
      </trkpt>
      <trkpt lat="50.57647" lon="5.41053">
        <ele>98</ele>
        <time>2019-01-18T02:31:35Z</time>
      </trkpt>
      <trkpt lat="50.57662" lon="5.41047">
        <ele>95</ele>
        <time>2019-01-18T02:32:35Z</time>
      </trkpt>
      <trkpt lat="50.57681" lon="5.41047">
        <ele>93</ele>
        <time>2019-01-18T02:33:35Z</time>
      </trkpt>
      <trkpt lat="50.5773" lon="5.41051">
        <ele>89</ele>
        <time>2019-01-18T02:34:35Z</time>
      </trkpt>
      <trkpt lat="50.57739" lon="5.4105">
        <ele>88</ele>
        <time>2019-01-18T02:35:35Z</time>
      </trkpt>
      <trkpt lat="50.57748" lon="5.41044">
        <ele>88</ele>
        <time>2019-01-18T02:36:35Z</time>
      </trkpt>
      <trkpt lat="50.57765" lon="5.41026">
        <ele>86</ele>
        <time>2019-01-18T02:37:35Z</time>
      </trkpt>
      <trkpt lat="50.57809" lon="5.40954">
        <ele>78</ele>
        <time>2019-01-18T02:38:35Z</time>
      </trkpt>
      <trkpt lat="50.5783" lon="5.4092">
        <ele>73</ele>
        <time>2019-01-18T02:39:35Z</time>
      </trkpt>
      <trkpt lat="50.57839" lon="5.40925">
        <ele>72</ele>
        <time>2019-01-18T02:40:35Z</time>
      </trkpt>
      <trkpt lat="50.5785" lon="5.40922">
        <ele>71</ele>
        <time>2019-01-18T02:41:35Z</time>
      </trkpt>
      <trkpt lat="50.57854" lon="5.40905">
        <ele>71</ele>
        <time>2019-01-18T02:42:35Z</time>
      </trkpt>
      <trkpt lat="50.57851" lon="5.40889">
        <ele>71</ele>
        <time>2019-01-18T02:43:35Z</time>
      </trkpt>
      <trkpt lat="50.57872" lon="5.40852">
        <ele>70</ele>
        <time>2019-01-18T02:44:35Z</time>
      </trkpt>
      <trkpt lat="50.57942" lon="5.40728">
        <ele>73</ele>
        <time>2019-01-18T02:45:35Z</time>
      </trkpt>
      <trkpt lat="50.57981" lon="5.40663">
        <ele>72</ele>
        <time>2019-01-18T02:46:35Z</time>
      </trkpt>
      <trkpt lat="50.57998" lon="5.40639">
        <ele>70</ele>
        <time>2019-01-18T02:47:35Z</time>
      </trkpt>
      <trkpt lat="50.58013" lon="5.40622">
        <ele>69</ele>
        <time>2019-01-18T02:48:35Z</time>
      </trkpt>
      <trkpt lat="50.5811" lon="5.40506">
        <ele>67</ele>
        <time>2019-01-18T02:49:35Z</time>
      </trkpt>
      <trkpt lat="50.58119" lon="5.40496">
        <ele>67</ele>
        <time>2019-01-18T02:50:35Z</time>
      </trkpt>
      <trkpt lat="50.58134" lon="5.40479">
        <ele>67</ele>
        <time>2019-01-18T02:51:35Z</time>
      </trkpt>
      <trkpt lat="50.58159" lon="5.40449">
        <ele>68</ele>
        <time>2019-01-18T02:52:35Z</time>
      </trkpt>
      <trkpt lat="50.58177" lon="5.40434">
        <ele>68</ele>
        <time>2019-01-18T02:53:35Z</time>
      </trkpt>
      <trkpt lat="50.58185" lon="5.40433">
        <ele>69</ele>
        <time>2019-01-18T02:54:35Z</time>
      </trkpt>
      <trkpt lat="50.58195" lon="5.40437">
        <ele>69</ele>
        <time>2019-01-18T02:55:35Z</time>
      </trkpt>
      <trkpt lat="50.58203" lon="5.40451">
        <ele>69</ele>
        <time>2019-01-18T02:56:35Z</time>
      </trkpt>
      <trkpt lat="50.5821" lon="5.40468">
        <ele>69</ele>
        <time>2019-01-18T02:57:35Z</time>
      </trkpt>
      <trkpt lat="50.58215" lon="5.40489">
        <ele>68</ele>
        <time>2019-01-18T02:58:35Z</time>
      </trkpt>
      <trkpt lat="50.58213" lon="5.40503">
        <ele>68</ele>
        <time>2019-01-18T02:59:35Z</time>
      </trkpt>
      <trkpt lat="50.5821" lon="5.4052">
        <ele>68</ele>
        <time>2019-01-18T03:00:35Z</time>
      </trkpt>
      <trkpt lat="50.58207" lon="5.40533">
        <ele>67</ele>
        <time>2019-01-18T03:01:35Z</time>
      </trkpt>
      <trkpt lat="50.58195" lon="5.40568">
        <ele>66</ele>
        <time>2019-01-18T03:02:35Z</time>
      </trkpt>
      <trkpt lat="50.58184" lon="5.40583">
        <ele>65</ele>
        <time>2019-01-18T03:03:35Z</time>
      </trkpt>
      <trkpt lat="50.58176" lon="5.40592">
        <ele>65</ele>
        <time>2019-01-18T03:04:35Z</time>
      </trkpt>
      <trkpt lat="50.58194" lon="5.40638">
        <ele>66</ele>
        <time>2019-01-18T03:05:35Z</time>
      </trkpt>
      <trkpt lat="50.58225" lon="5.40724">
        <ele>67</ele>
        <time>2019-01-18T03:06:35Z</time>
      </trkpt>
      <trkpt lat="50.58273" lon="5.40855">
        <ele>67</ele>
        <time>2019-01-18T03:07:35Z</time>
      </trkpt>
      <trkpt lat="50.5831" lon="5.40948">
        <ele>67</ele>
        <time>2019-01-18T03:08:35Z</time>
      </trkpt>
      <trkpt lat="50.58348" lon="5.41036">
        <ele>68</ele>
        <time>2019-01-18T03:09:35Z</time>
      </trkpt>
      <trkpt lat="50.58371" lon="5.41085">
        <ele>69</ele>
        <time>2019-01-18T03:10:35Z</time>
      </trkpt>
      <trkpt lat="50.58418" lon="5.41181">
        <ele>71</ele>
        <time>2019-01-18T03:11:35Z</time>
      </trkpt>
      <trkpt lat="50.58443" lon="5.41226">
        <ele>71</ele>
        <time>2019-01-18T03:12:35Z</time>
      </trkpt>
      <trkpt lat="50.58447" lon="5.41234">
        <ele>70</ele>
        <time>2019-01-18T03:13:35Z</time>
      </trkpt>
      <trkpt lat="50.58497" lon="5.41322">
        <ele>68</ele>
        <time>2019-01-18T03:14:35Z</time>
      </trkpt>
      <trkpt lat="50.58546" lon="5.41401">
        <ele>67</ele>
        <time>2019-01-18T03:15:35Z</time>
      </trkpt>
      <trkpt lat="50.58574" lon="5.41445">
        <ele>68</ele>
        <time>2019-01-18T03:16:35Z</time>
      </trkpt>
      <trkpt lat="50.58603" lon="5.41498">
        <ele>68</ele>
        <time>2019-01-18T03:17:35Z</time>
      </trkpt>
      <trkpt lat="50.5861" lon="5.4154">
        <ele>68</ele>
        <time>2019-01-18T03:18:35Z</time>
      </trkpt>
      <trkpt lat="50.58612" lon="5.41575">
        <ele>68</ele>
        <time>2019-01-18T03:19:35Z</time>
      </trkpt>
      <trkpt lat="50.5861" lon="5.41629">
        <ele>67</ele>
        <time>2019-01-18T03:20:35Z</time>
      </trkpt>
      <trkpt lat="50.58608" lon="5.41676">
        <ele>66</ele>
        <time>2019-01-18T03:21:35Z</time>
      </trkpt>
      <trkpt lat="50.58609" lon="5.41742">
        <ele>65</ele>
        <time>2019-01-18T03:22:35Z</time>
      </trkpt>
      <trkpt lat="50.58619" lon="5.41855">
        <ele>66</ele>
        <time>2019-01-18T03:23:35Z</time>
      </trkpt>
      <trkpt lat="50.58633" lon="5.41988">
        <ele>66</ele>
        <time>2019-01-18T03:24:35Z</time>
      </trkpt>
      <trkpt lat="50.58654" lon="5.42194">
        <ele>64</ele>
        <time>2019-01-18T03:25:35Z</time>
      </trkpt>
      <trkpt lat="50.58691" lon="5.42547">
        <ele>64</ele>
        <time>2019-01-18T03:26:35Z</time>
      </trkpt>
      <trkpt lat="50.58704" lon="5.42622">
        <ele>63</ele>
        <time>2019-01-18T03:27:35Z</time>
      </trkpt>
      <trkpt lat="50.58719" lon="5.42686">
        <ele>64</ele>
        <time>2019-01-18T03:28:35Z</time>
      </trkpt>
      <trkpt lat="50.58756" lon="5.42836">
        <ele>64</ele>
        <time>2019-01-18T03:29:35Z</time>
      </trkpt>
      <trkpt lat="50.58823" lon="5.43107">
        <ele>67</ele>
        <time>2019-01-18T03:30:35Z</time>
      </trkpt>
      <trkpt lat="50.58866" lon="5.43276">
        <ele>73</ele>
        <time>2019-01-18T03:31:35Z</time>
      </trkpt>
      <trkpt lat="50.58876" lon="5.43343">
        <ele>72</ele>
        <time>2019-01-18T03:32:35Z</time>
      </trkpt>
      <trkpt lat="50.58883" lon="5.43426">
        <ele>71</ele>
        <time>2019-01-18T03:33:35Z</time>
      </trkpt>
      <trkpt lat="50.58899" lon="5.43647">
        <ele>69</ele>
        <time>2019-01-18T03:34:35Z</time>
      </trkpt>
      <trkpt lat="50.58915" lon="5.43776">
        <ele>68</ele>
        <time>2019-01-18T03:35:35Z</time>
      </trkpt>
      <trkpt lat="50.58936" lon="5.43921">
        <ele>65</ele>
        <time>2019-01-18T03:36:35Z</time>
      </trkpt>
      <trkpt lat="50.58969" lon="5.44166">
        <ele>70</ele>
        <time>2019-01-18T03:37:35Z</time>
      </trkpt>
      <trkpt lat="50.5899" lon="5.44298">
        <ele>71</ele>
        <time>2019-01-18T03:38:35Z</time>
      </trkpt>
      <trkpt lat="50.59015" lon="5.44426">
        <ele>68</ele>
        <time>2019-01-18T03:39:35Z</time>
      </trkpt>
      <trkpt lat="50.59041" lon="5.44557">
        <ele>67</ele>
        <time>2019-01-18T03:40:35Z</time>
      </trkpt>
      <trkpt lat="50.59063" lon="5.44617">
        <ele>67</ele>
        <time>2019-01-18T03:41:35Z</time>
      </trkpt>
      <trkpt lat="50.59086" lon="5.44669">
        <ele>66</ele>
        <time>2019-01-18T03:42:35Z</time>
      </trkpt>
      <trkpt lat="50.59111" lon="5.44724">
        <ele>65</ele>
        <time>2019-01-18T03:43:35Z</time>
      </trkpt>
      <trkpt lat="50.59145" lon="5.44792">
        <ele>64</ele>
        <time>2019-01-18T03:44:35Z</time>
      </trkpt>
      <trkpt lat="50.59169" lon="5.44849">
        <ele>63</ele>
        <time>2019-01-18T03:45:35Z</time>
      </trkpt>
      <trkpt lat="50.59184" lon="5.44893">
        <ele>65</ele>
        <time>2019-01-18T03:46:35Z</time>
      </trkpt>
      <trkpt lat="50.5919" lon="5.44929">
        <ele>65</ele>
        <time>2019-01-18T03:47:35Z</time>
      </trkpt>
      <trkpt lat="50.59217" lon="5.45072">
        <ele>66</ele>
        <time>2019-01-18T03:48:35Z</time>
      </trkpt>
      <trkpt lat="50.59229" lon="5.45147">
        <ele>66</ele>
        <time>2019-01-18T03:49:35Z</time>
      </trkpt>
      <trkpt lat="50.59239" lon="5.45227">
        <ele>65</ele>
        <time>2019-01-18T03:50:35Z</time>
      </trkpt>
      <trkpt lat="50.59241" lon="5.45248">
        <ele>64</ele>
        <time>2019-01-18T03:51:35Z</time>
      </trkpt>
      <trkpt lat="50.5924" lon="5.4529">
        <ele>64</ele>
        <time>2019-01-18T03:52:35Z</time>
      </trkpt>
      <trkpt lat="50.59237" lon="5.45333">
        <ele>64</ele>
        <time>2019-01-18T03:53:35Z</time>
      </trkpt>
      <trkpt lat="50.59235" lon="5.45388">
        <ele>66</ele>
        <time>2019-01-18T03:54:35Z</time>
      </trkpt>
      <trkpt lat="50.59245" lon="5.45393">
        <ele>66</ele>
        <time>2019-01-18T03:55:35Z</time>
      </trkpt>
      <trkpt lat="50.59263" lon="5.45398">
        <ele>66</ele>
        <time>2019-01-18T03:56:35Z</time>
      </trkpt>
      <trkpt lat="50.59268" lon="5.45403">
        <ele>67</ele>
        <time>2019-01-18T03:57:35Z</time>
      </trkpt>
      <trkpt lat="50.59275" lon="5.45406">
        <ele>67</ele>
        <time>2019-01-18T03:58:35Z</time>
      </trkpt>
      <trkpt lat="50.59278" lon="5.45418">
        <ele>67</ele>
        <time>2019-01-18T03:59:35Z</time>
      </trkpt>
      <trkpt lat="50.59288" lon="5.45445">
        <ele>67</ele>
        <time>2019-01-18T04:00:35Z</time>
      </trkpt>
      <trkpt lat="50.59308" lon="5.45487">
        <ele>66</ele>
        <time>2019-01-18T04:01:35Z</time>
      </trkpt>
      <trkpt lat="50.59348" lon="5.45554">
        <ele>67</ele>
        <time>2019-01-18T04:02:35Z</time>
      </trkpt>
      <trkpt lat="50.59378" lon="5.4561">
        <ele>68</ele>
        <time>2019-01-18T04:03:35Z</time>
      </trkpt>
      <trkpt lat="50.59423" lon="5.45734">
        <ele>67</ele>
        <time>2019-01-18T04:04:35Z</time>
      </trkpt>
      <trkpt lat="50.59476" lon="5.45869">
        <ele>67</ele>
        <time>2019-01-18T04:05:35Z</time>
      </trkpt>
      <trkpt lat="50.59535" lon="5.46017">
        <ele>68</ele>
        <time>2019-01-18T04:06:35Z</time>
      </trkpt>
      <trkpt lat="50.59576" lon="5.46117">
        <ele>68</ele>
        <time>2019-01-18T04:07:35Z</time>
      </trkpt>
      <trkpt lat="50.59611" lon="5.46214">
        <ele>67</ele>
        <time>2019-01-18T04:08:35Z</time>
      </trkpt>
      <trkpt lat="50.59649" lon="5.46315">
        <ele>66</ele>
        <time>2019-01-18T04:09:35Z</time>
      </trkpt>
      <trkpt lat="50.59709" lon="5.46471">
        <ele>67</ele>
        <time>2019-01-18T04:10:35Z</time>
      </trkpt>
      <trkpt lat="50.59757" lon="5.46593">
        <ele>68</ele>
        <time>2019-01-18T04:11:35Z</time>
      </trkpt>
      <trkpt lat="50.59786" lon="5.46646">
        <ele>67</ele>
        <time>2019-01-18T04:12:35Z</time>
      </trkpt>
      <trkpt lat="50.59806" lon="5.46686">
        <ele>67</ele>
        <time>2019-01-18T04:13:35Z</time>
      </trkpt>
      <trkpt lat="50.59839" lon="5.46766">
        <ele>68</ele>
        <time>2019-01-18T04:14:35Z</time>
      </trkpt>
      <trkpt lat="50.59851" lon="5.46802">
        <ele>68</ele>
        <time>2019-01-18T04:15:35Z</time>
      </trkpt>
      <trkpt lat="50.59876" lon="5.46901">
        <ele>67</ele>
        <time>2019-01-18T04:16:35Z</time>
      </trkpt>
      <trkpt lat="50.59892" lon="5.47003">
        <ele>65</ele>
        <time>2019-01-18T04:17:35Z</time>
      </trkpt>
      <trkpt lat="50.59912" lon="5.47123">
        <ele>64</ele>
        <time>2019-01-18T04:18:35Z</time>
      </trkpt>
      <trkpt lat="50.59926" lon="5.47201">
        <ele>64</ele>
        <time>2019-01-18T04:19:35Z</time>
      </trkpt>
      <trkpt lat="50.59948" lon="5.47266">
        <ele>65</ele>
        <time>2019-01-18T04:20:35Z</time>
      </trkpt>
      <trkpt lat="50.59966" lon="5.47301">
        <ele>66</ele>
        <time>2019-01-18T04:21:35Z</time>
      </trkpt>
      <trkpt lat="50.60111" lon="5.47557">
        <ele>67</ele>
        <time>2019-01-18T04:22:35Z</time>
      </trkpt>
      <trkpt lat="50.60229" lon="5.47767">
        <ele>64</ele>
        <time>2019-01-18T04:23:35Z</time>
      </trkpt>
      <trkpt lat="50.60359" lon="5.47994">
        <ele>67</ele>
        <time>2019-01-18T04:24:35Z</time>
      </trkpt>
      <trkpt lat="50.604" lon="5.48088">
        <ele>67</ele>
        <time>2019-01-18T04:25:35Z</time>
      </trkpt>
      <trkpt lat="50.6044" lon="5.48189">
        <ele>68</ele>
        <time>2019-01-18T04:26:35Z</time>
      </trkpt>
      <trkpt lat="50.60468" lon="5.48277">
        <ele>68</ele>
        <time>2019-01-18T04:27:35Z</time>
      </trkpt>
      <trkpt lat="50.60492" lon="5.48365">
        <ele>67</ele>
        <time>2019-01-18T04:28:35Z</time>
      </trkpt>
      <trkpt lat="50.60487" lon="5.48374">
        <ele>67</ele>
        <time>2019-01-18T04:29:35Z</time>
      </trkpt>
      <trkpt lat="50.60486" lon="5.48384">
        <ele>67</ele>
        <time>2019-01-18T04:30:35Z</time>
      </trkpt>
      <trkpt lat="50.60488" lon="5.48393">
        <ele>67</ele>
        <time>2019-01-18T04:31:35Z</time>
      </trkpt>
      <trkpt lat="50.60422" lon="5.4847">
        <ele>64</ele>
        <time>2019-01-18T04:32:35Z</time>
      </trkpt>
      <trkpt lat="50.60403" lon="5.48442">
        <ele>65</ele>
        <time>2019-01-18T04:33:35Z</time>
      </trkpt>
      <trkpt lat="50.60428" lon="5.48407">
        <ele>65</ele>
        <time>2019-01-18T04:34:35Z</time>
      </trkpt>
    </trkseg>
  </trk>
</gpx>